[[{"header":{"parameterUnit":"m.s-1","parameterCategory":1,"la1":30.6,"la2":28.766,"lo1":-90.7593,"lo2":-88.6598,"dx":0.0162,"dy":0.0183,"nx":116,"ny":114,"refTime":"2022-11-11T06:00:00:Z","depth":0,"parameterNumber":2,"parameterNumberName":"U-component_of_WINDS"},"data":[0.0,0.0,0.0,0.0,0.0,0.0,0.0,0.0,0.0,0.0,0.0,0.0,0.0,0.0,0.0,0.0,0.0,0.0,0.0,0.0,0.0,0.0,0.0,0.0,0.0,0.0,0.0,0.0,0.0,0.0,0.0,0.0,0.0,0.0,0.0,0.0,0.0,0.0,0.0,0.0,0.0,0.0,0.0,0.0,0.0,0.0,0.0,0.0,0.0,0.0,0.0,0.0,0.0,0.0,0.0,0.0,0.0,0.0,0.0,0.0,0.0,0.0,0.0,0.0,0.0,0.0,0.0,0.0,0.0,0.0,0.0,0.0,0.0,0.0,0.0,0.0,0.0,0.0,0.0,0.0,0.0,0.0,0.0,0.0,0.0,0.0,0.0,0.0,0.0,0.0,0.0,0.0,0.0,0.0,0.0,0.0,0.0,0.0,0.0,0.0,0.0,0.0,0.0,0.0,0.0,0.0,0.0,0.0,0.0,0.0,0.0,0.0,0.0,0.0,0.0,0.0,0.0,0.0,0.0,0.0,0.0,0.0,0.0,0.0,0.0,0.0,0.0,0.0,0.0,0.0,0.0,0.0,0.0,0.0,0.0,0.0,0.0,0.0,0.0,0.0,0.0,0.0,0.0,0.0,0.0,0.0,0.0,0.0,0.0,0.0,0.0,0.0,0.0,0.0,0.0,0.0,0.0,0.0,0.0,0.0,0.0,0.0,0.0,0.0,0.0,0.0,0.0,0.0,0.0,0.0,0.0,0.0,0.0,0.0,0.0,0.0,0.0,0.0,0.0,0.0,0.0,0.0,0.0,0.0,0.0,0.0,0.0,0.0,0.0,0.0,0.0,0.0,0.0,0.0,0.0,0.0,0.0,0.0,0.0,0.0,0.0,0.0,0.0,0.0,0.0,0.0,0.0,0.0,0.0,0.0,0.0,0.0,0.0,0.0,0.0,0.0,0.0,0.0,0.0,0.0,0.0,0.0,0.0,0.0,0.0,0.0,0.0,0.0,0.0,0.0,0.0,0.0,0.0,0.0,0.0,0.0,0.0,0.0,0.0,0.0,0.0,0.0,0.0,0.0,0.0,0.0,0.0,0.0,0.0,0.0,0.0,0.0,0.0,0.0,0.0,0.0,0.0,0.0,0.0,0.0,0.0,0.0,0.0,0.0,0.0,0.0,0.0,0.0,0.0,0.0,0.0,0.0,0.0,0.0,0.0,0.0,0.0,0.0,0.0,0.0,0.0,0.0,0.0,0.0,0.0,0.0,0.0,0.0,0.0,0.0,0.0,0.0,0.0,0.0,0.0,0.0,0.0,0.0,0.0,0.0,0.0,0.0,0.0,0.0,0.0,0.0,0.0,0.0,0.0,0.0,0.0,0.0,0.0,0.0,0.0,0.0,0.0,0.0,0.0,0.0,0.0,0.0,0.0,0.0,0.0,0.0,0.0,0.0,0.0,0.0,0.0,0.0,0.0,0.0,0.0,0.0,0.0,0.0,0.0,0.0,0.0,0.0,0.0,0.0,0.0,0.0,0.0,0.0,0.0,0.0,0.0,0.0,0.0,0.0,0.0,0.0,0.0,0.0,0.0,0.0,0.0,0.0,0.0,0.0,0.0,0.0,0.0,0.0,0.0,0.0,0.0,0.0,0.0,0.0,0.0,0.0,0.0,0.0,0.0,0.0,0.0,0.0,0.0,0.0,0.0,0.0,0.0,0.0,0.0,0.0,0.0,0.0,0.0,0.0,0.0,0.0,0.0,0.0,0.0,0.0,0.0,0.0,0.0,0.0,0.0,0.0,0.0,0.0,0.0,0.0,0.0,0.0,0.0,0.0,0.0,0.0,0.0,0.0,0.0,0.0,0.0,0.0,0.0,0.0,0.0,0.0,0.0,0.0,0.0,0.0,0.0,0.0,0.0,0.0,0.0,0.0,0.0,0.0,0.0,0.0,0.0,0.0,0.0,0.0,0.0,0.0,0.0,0.0,0.0,0.0,0.0,0.0,0.0,0.0,0.0,0.0,0.0,0.0,0.0,0.0,0.0,0.0,0.0,0.0,0.0,0.0,0.0,0.0,0.0,0.0,0.0,0.0,0.0,0.0,0.0,0.0,0.0,0.0,0.0,0.0,0.0,0.0,0.0,0.0,0.0,0.0,0.0,0.0,0.0,0.0,0.0,0.0,0.0,0.0,0.0,0.0,0.0,0.0,0.0,0.0,0.0,0.0,0.0,0.0,0.0,0.0,0.0,0.0,0.0,0.0,0.0,0.0,0.0,0.0,0.0,0.0,0.0,0.0,0.0,0.0,0.0,0.0,0.0,0.0,0.0,0.0,0.0,0.0,0.0,0.0,0.0,0.0,0.0,0.0,0.0,0.0,0.0,0.0,0.0,0.0,0.0,0.0,0.0,0.0,0.0,0.0,0.0,0.0,0.0,0.0,0.0,0.0,0.0,0.0,0.0,0.0,0.0,0.0,0.0,0.0,0.0,0.0,0.0,0.0,0.0,0.0,0.0,0.0,0.0,0.0,0.0,0.0,0.0,0.0,0.0,0.0,0.0,0.0,0.0,0.0,0.0,0.0,0.0,0.0,0.0,0.0,0.0,0.0,0.0,0.0,0.0,0.0,0.0,0.0,0.0,0.0,0.0,0.0,0.0,0.0,0.0,0.0,0.0,0.0,0.0,0.0,0.0,0.0,0.0,0.0,0.0,0.0,0.0,0.0,0.0,0.0,0.0,0.0,0.0,0.0,0.0,0.0,0.0,0.0,0.0,0.0,0.0,0.0,0.0,0.0,0.0,0.0,0.0,0.0,0.0,0.0,0.0,0.0,0.0,0.0,0.0,0.0,0.0,0.0,0.0,0.0,0.0,0.0,0.0,0.0,0.0,0.0,0.0,0.0,0.0,0.0,0.0,0.0,0.0,0.0,0.0,0.0,0.0,0.0,0.0,0.0,0.0,0.0,0.0,0.0,0.0,0.0,0.0,0.0,0.0,0.0,0.0,0.0,0.0,0.0,0.0,0.0,0.0,0.0,0.0,0.0,0.0,0.0,0.0,0.0,0.0,0.0,0.0,0.0,0.0,0.0,0.0,0.0,0.0,0.0,0.0,0.0,0.0,0.0,0.0,0.0,0.0,0.0,0.0,0.0,0.0,0.0,0.0,0.0,0.0,0.0,0.0,0.0,0.0,0.0,0.0,0.0,0.0,0.0,0.0,0.0,0.0,0.0,0.0,0.0,0.0,0.0,0.0,0.0,0.0,0.0,0.0,0.0,0.0,0.0,0.0,0.0,0.0,0.0,0.0,0.0,0.0,0.0,0.0,0.0,0.0,0.0,0.0,0.0,0.0,0.0,0.0,0.0,0.0,0.0,0.0,0.0,0.0,0.0,0.0,0.0,0.0,0.0,0.0,0.0,0.0,0.0,0.0,0.0,0.0,0.0,0.0,0.0,0.0,0.0,0.0,0.0,0.0,0.0,0.0,0.0,0.0,0.0,0.0,0.0,0.0,0.0,0.0,0.0,0.0,0.0,0.0,0.0,0.0,0.0,0.0,0.0,0.0,0.0,0.0,0.0,0.0,0.0,0.0,0.0,0.0,0.0,0.0,0.0,0.0,0.0,0.0,0.0,0.0,0.0,0.0,0.0,0.0,0.0,0.0,0.0,0.0,0.0,0.0,0.0,0.0,0.0,0.0,0.0,0.0,0.0,0.0,0.0,0.0,0.0,0.0,0.0,0.0,0.0,0.0,0.0,0.0,0.0,0.0,0.0,0.0,0.0,0.0,0.0,0.0,0.0,0.0,0.0,0.0,0.0,0.0,0.0,0.0,0.0,0.0,0.0,0.0,0.0,0.0,0.0,0.0,0.0,0.0,0.0,0.0,0.0,0.0,0.0,0.0,0.0,0.0,0.0,0.0,0.0,0.0,0.0,0.0,0.0,0.0,0.0,0.0,0.0,0.0,0.0,0.0,0.0,0.0,0.0,0.0,0.0,0.0,0.0,0.0,0.0,0.0,0.0,0.0,0.0,0.0,0.0,0.0,0.0,0.0,0.0,0.0,0.0,0.0,0.0,0.0,0.0,0.0,0.0,0.0,0.0,0.0,0.0,0.0,0.0,0.0,0.0,0.0,0.0,0.0,0.0,0.0,0.0,0.0,0.0,0.0,0.0,0.0,0.0,0.0,0.0,0.0,0.0,0.0,0.0,0.0,0.0,0.0,0.0,0.0,0.0,0.0,0.0,0.0,0.0,0.0,0.0,0.0,0.0,0.0,0.0,0.0,0.0,0.0,0.0,0.0,0.0,0.0,0.0,0.0,0.0,0.0,0.0,0.0,0.0,0.0,0.0,0.0,0.0,0.0,0.0,0.0,0.0,0.0,0.0,0.0,0.0,0.0,0.0,0.0,0.0,0.0,0.0,0.0,0.0,0.0,0.0,0.0,0.0,0.0,0.0,0.0,0.0,0.0,0.0,0.0,0.0,0.0,0.0,0.0,0.0,0.0,0.0,0.0,0.0,0.0,0.0,0.0,0.0,0.0,0.0,0.0,0.0,0.0,0.0,0.0,0.0,0.0,0.0,0.0,0.0,0.0,0.0,0.0,0.0,0.0,0.0,0.0,0.0,0.0,0.0,0.0,0.0,0.0,0.0,0.0,0.0,0.0,0.0,0.0,0.0,0.0,0.0,0.0,0.0,0.0,0.0,0.0,0.0,0.0,0.0,0.0,0.0,0.0,0.0,0.0,0.0,0.0,0.0,0.0,0.0,0.0,0.0,0.0,0.0,0.0,0.0,0.0,0.0,0.0,0.0,0.0,0.0,0.0,0.0,0.0,0.0,0.0,0.0,0.0,0.0,0.0,0.0,0.0,0.0,0.0,0.0,0.0,0.0,0.0,0.0,0.0,0.0,0.0,0.0,0.0,0.0,0.0,0.0,0.0,0.0,0.0,0.0,0.0,0.0,0.0,0.0,0.0,0.0,0.0,0.0,0.0,0.0,0.0,0.0,0.0,0.0,0.0,0.0,0.0,0.0,0.0,0.0,0.0,0.0,0.0,0.0,0.0,0.0,0.0,0.0,0.0,0.0,0.0,0.0,0.0,0.0,0.0,0.0,0.0,0.0,0.0,0.0,0.0,0.0,0.0,0.0,0.0,0.0,0.0,0.0,0.0,0.0,0.0,0.0,0.0,0.0,0.0,0.0,0.0,0.0,0.0,0.0,0.0,0.0,0.0,0.0,0.0,0.0,0.0,0.0,0.0,0.0,0.0,0.0,0.0,0.0,0.0,0.0,0.0,0.0,0.0,0.0,0.0,0.0,0.0,0.0,0.0,0.0,0.0,0.0,0.0,0.0,0.0,0.0,0.0,0.0,0.0,0.0,0.0,0.0,0.0,0.0,0.0,0.0,0.0,0.0,0.0,0.0,0.0,0.0,0.0,0.0,0.0,0.0,0.0,0.0,0.0,0.0,0.0,0.0,0.0,0.0,0.0,0.0,0.0,0.0,0.0,0.0,0.0,0.0,0.0,0.0,0.0,0.0,0.0,0.0,0.0,0.0,0.0,0.0,0.0,0.0,0.0,0.0,0.0,0.0,0.0,0.0,0.0,0.0,0.0,0.0,0.0,0.0,0.0,0.0,0.0,0.0,0.0,0.0,0.0,0.0,0.0,0.0,0.0,0.0,0.0,0.0,0.0,0.0,0.0,0.0,0.0,0.0,0.0,0.0,0.0,0.0,0.0,0.0,0.0,0.0,0.0,0.0,0.0,0.0,0.0,0.0,0.0,0.0,0.0,0.0,0.0,0.0,0.0,0.0,0.0,0.0,0.0,0.0,0.0,0.0,0.0,0.0,0.0,0.0,0.0,0.0,0.0,0.0,0.0,0.0,0.0,0.0,0.0,0.0,0.0,0.0,0.0,0.0,0.0,0.0,0.0,0.0,0.0,0.0,0.0,0.0,0.0,0.0,0.0,0.0,0.0,0.0,0.0,0.0,0.0,0.0,0.0,0.0,0.0,0.0,0.0,0.0,0.0,0.0,0.0,0.0,0.0,0.0,0.0,0.0,0.0,0.0,0.0,0.0,0.0,0.0,0.0,0.0,0.0,0.0,0.0,0.0,0.0,0.0,4.7407,4.296,0.0,0.0,0.0,0.0,0.0,0.0,0.0,0.0,0.0,0.0,0.0,0.0,0.0,0.0,0.0,0.0,0.0,0.0,0.0,0.0,0.0,0.0,0.0,2.5902,2.6099,2.6495,2.6535,0.0,0.0,0.0,0.0,0.0,0.0,0.0,2.7208,2.7635,2.8244,2.9115,3.1599,3.4737,3.8415,3.6245,3.39,3.1489,0.0,0.0,0.0,0.0,0.0,0.0,0.0,0.0,0.0,0.0,0.0,0.0,0.0,0.0,0.0,0.0,0.0,0.0,0.0,0.0,0.0,0.0,0.0,0.0,0.0,0.0,0.0,0.0,0.0,0.0,0.0,0.0,0.0,0.0,0.0,0.0,0.0,0.0,0.0,0.0,0.0,0.0,0.0,0.0,0.0,0.0,0.0,0.0,0.0,0.0,0.0,0.0,0.0,0.0,0.0,0.0,0.0,0.0,0.0,0.0,0.0,0.0,0.0,0.0,0.0,0.0,0.0,0.0,0.0,0.0,5.0584,4.8035,0.0,0.0,0.0,0.0,0.0,0.0,0.0,0.0,0.0,0.0,0.0,0.0,0.0,0.0,0.0,0.0,0.0,0.0,0.0,0.0,0.0,2.5861,2.6733,2.6836,2.7103,2.7855,2.8014,2.8094,2.8094,2.8252,0.0,0.0,0.0,0.0,2.8568,2.9397,3.0454,3.1743,3.6746,4.1093,4.4641,4.4799,4.2636,3.8417,3.4448,0.0,0.0,0.0,0.0,0.0,0.0,0.0,0.0,0.0,0.0,0.0,0.0,0.0,0.0,0.0,0.0,0.0,0.0,0.0,0.0,0.0,0.0,0.0,0.0,0.0,0.0,0.0,0.0,0.0,0.0,0.0,0.0,0.0,0.0,0.0,0.0,0.0,0.0,0.0,0.0,0.0,0.0,0.0,0.0,0.0,0.0,0.0,0.0,0.0,0.0,0.0,0.0,0.0,0.0,0.0,0.0,0.0,0.0,0.0,0.0,0.0,0.0,0.0,5.4894,5.5404,5.628,5.6255,5.6703,5.7317,5.4082,5.4003,5.5795,5.104,0.0,0.0,0.0,0.0,0.0,0.0,0.0,0.0,0.0,0.0,0.0,0.0,0.0,0.0,0.0,0.0,0.0,0.0,0.0,2.6772,2.7644,2.7723,2.7783,2.7903,2.8539,2.8936,2.8936,2.9651,0.0,0.0,0.0,3.0405,3.1197,3.2016,3.3907,3.6987,4.4958,4.9504,5.0743,5.1499,5.1498,5.0588,4.428,4.0192,3.8016,0.0,0.0,0.0,0.0,0.0,0.0,0.0,0.0,0.0,0.0,0.0,0.0,0.0,0.0,0.0,0.0,0.0,0.0,0.0,0.0,0.0,0.0,0.0,0.0,0.0,0.0,0.0,0.0,0.0,0.0,0.0,0.0,0.0,0.0,0.0,0.0,0.0,0.0,0.0,0.0,0.0,4.2357,4.4808,0.0,0.0,0.0,0.0,0.0,0.0,0.0,0.0,0.0,0.0,0.0,0.0,0.0,5.4379,5.6132,5.7703,5.9331,6.0934,6.1627,6.2411,6.3277,6.3267,6.3741,6.4423,6.1741,0.0,5.7943,5.7855,0.0,0.0,0.0,0.0,0.0,0.0,0.0,0.0,0.0,0.0,0.0,0.0,0.0,0.0,0.0,0.0,0.0,0.0,0.0,0.0,0.0,3.1005,3.2364,3.2801,3.4462,3.4913,3.3471,3.3744,0.0,0.0,3.2555,3.295,3.3824,3.6518,4.0745,4.6536,5.0282,5.3253,5.5497,5.5893,5.6052,5.5904,5.2436,4.8185,4.3492,4.2244,0.0,0.0,0.0,0.0,0.0,0.0,0.0,0.0,0.0,0.0,0.0,0.0,0.0,0.0,0.0,0.0,0.0,0.0,0.0,0.0,0.0,0.0,0.0,0.0,0.0,0.0,0.0,0.0,0.0,0.0,0.0,0.0,0.0,0.0,0.0,0.0,0.0,0.0,0.0,4.2948,4.5789,4.8797,4.8649,4.8176,0.0,0.0,0.0,0.0,0.0,0.0,0.0,0.0,0.0,5.6659,5.7586,5.9075,6.1257,6.2506,6.348,6.4223,6.4596,6.5199,6.6,6.5994,6.6494,6.7234,6.6131,6.5013,6.379,6.126,5.971,5.8803,0.0,0.0,0.0,0.0,5.5085,5.5646,0.0,0.0,0.0,0.0,0.0,0.0,0.0,0.0,0.0,0.0,0.0,0.0,3.1932,3.5058,3.7363,3.7964,3.9937,4.0183,3.7845,3.7875,3.7245,3.5579,3.5516,3.59,3.6773,4.1147,4.6733,5.3522,5.3958,5.5585,5.8283,5.8522,5.8484,5.8283,5.7846,5.4357,4.8764,4.7697,4.5508,4.2487,0.0,0.0,0.0,0.0,0.0,0.0,0.0,0.0,0.0,0.0,0.0,0.0,0.0,0.0,0.0,0.0,0.0,0.0,0.0,0.0,0.0,0.0,0.0,0.0,0.0,0.0,0.0,0.0,0.0,0.0,0.0,0.0,0.0,0.0,0.0,0.0,0.0,4.7092,4.9334,5.2497,5.2344,5.1891,0.0,0.0,0.0,0.0,0.0,0.0,5.6409,5.7028,5.8588,6.1374,6.2076,6.3334,6.5225,6.6109,6.6551,6.6548,6.6551,6.6971,6.7776,6.7773,6.8231,6.9032,6.9043,6.8928,6.8413,6.4419,6.2349,6.1693,6.1051,6.0027,5.8951,5.8939,5.9485,6.0339,0.0,0.0,0.0,0.0,0.0,0.0,0.0,0.0,0.0,0.0,0.0,3.5495,3.6311,3.9429,4.1497,4.1545,4.2432,4.2193,4.0428,4.1089,4.0805,3.9105,3.9024,3.9412,4.0244,4.5184,4.9956,5.4435,5.6027,5.7335,5.8324,5.9078,5.9036,5.8324,5.9039,5.7415,5.4008,5.2305,5.0573,4.8537,4.3534,0.0,0.0,0.0,0.0,0.0,0.0,0.0,0.0,0.0,0.0,0.0,0.0,0.0,0.0,0.0,0.0,0.0,0.0,0.0,0.0,0.0,0.0,0.0,0.0,0.0,0.0,0.0,0.0,0.0,0.0,0.0,0.0,0.0,0.0,0.0,0.0,0.0,0.0,5.5183,5.7582,0.0,0.0,0.0,0.0,5.5504,5.6322,5.8304,6.1533,6.1745,6.3281,6.6615,6.6763,6.6832,6.6977,6.7858,6.8269,6.8259,6.8269,6.8727,6.9557,6.9577,7.0014,7.0779,7.0779,7.0346,6.9557,6.8462,6.7978,6.7715,6.5272,6.4279,6.4206,6.4226,6.4757,6.5862,0.0,0.0,0.0,2.5306,2.5306,2.5504,2.606,2.6892,2.8044,2.9722,3.413,3.7225,3.7517,4.3014,4.6466,4.5913,4.8143,4.8895,4.7182,4.5824,4.4561,4.3414,4.1777,4.3071,4.7745,5.1205,5.4821,5.8545,5.9151,5.9591,5.9931,6.0209,6.0175,5.9914,5.9625,5.9142,5.8424,5.6131,5.3891,5.1636,4.9255,4.6676,0.0,0.0,0.0,0.0,0.0,0.0,0.0,0.0,0.0,0.0,0.0,0.0,0.0,0.0,0.0,0.0,0.0,0.0,0.0,0.0,0.0,0.0,0.0,0.0,0.0,0.0,0.0,0.0,0.0,0.0,0.0,0.0,0.0,0.0,0.0,0.0,0.0,5.6218,5.8279,0.0,5.986,6.012,6.0207,6.0088,6.2188,6.3889,6.4768,6.5675,6.671,6.79,6.8473,6.9012,6.955,7.0416,7.1119,7.1692,7.1696,7.185,7.215,7.2161,7.2315,7.2587,7.2587,7.2427,7.2112,7.1811,7.0391,6.8314,6.74,6.7394,6.7897,6.7895,6.8422,6.9236,0.0,2.5306,0.0,2.5306,2.5306,2.5584,2.6457,2.7575,2.9312,3.2176,3.695,4.0577,4.1733,4.7384,5.1012,5.0699,5.2733,5.3088,5.0861,4.9127,4.7289,4.5253,4.4639,4.7287,5.3485,5.4982,5.7367,6.0806,6.0502,6.0502,6.0806,6.1084,6.1087,6.0787,6.05,6.0531,6.0682,5.8672,5.6877,5.5197,5.3766,5.0833,4.7016,0.0,0.0,0.0,0.0,0.0,0.0,0.0,0.0,0.0,0.0,0.0,0.0,0.0,0.0,0.0,0.0,0.0,0.0,0.0,0.0,0.0,0.0,0.0,0.0,0.0,0.0,0.0,0.0,0.0,0.0,0.0,0.0,0.0,0.0,5.3108,5.5743,5.7993,6.0036,6.1683,6.2793,6.345,6.3982,6.4459,6.6459,6.7658,6.7581,6.8558,6.9334,6.9812,7.0382,7.1025,7.1776,7.2892,7.3776,7.4357,7.4934,7.4937,7.4443,7.4443,7.4168,7.3726,7.3932,7.4054,7.4067,7.4242,7.2989,7.0923,7.035,7.0475,7.0982,7.0965,7.1507,7.2206,0.0,2.5306,2.5306,2.5306,2.5306,2.5584,2.6495,2.8032,3.0938,3.6078,4.1127,4.5555,4.9038,5.2467,5.4826,5.5637,5.5706,5.4353,5.1056,5.0798,4.8903,4.4707,4.7841,5.1977,5.6939,5.6337,5.7607,6.0864,6.0068,6.0107,6.0938,6.1731,6.1689,6.0896,6.1731,6.1651,6.0778,5.9944,5.957,5.9339,5.6823,5.3834,5.0482,0.0,0.0,0.0,0.0,0.0,0.0,0.0,0.0,0.0,0.0,0.0,0.0,0.0,0.0,0.0,0.0,0.0,0.0,0.0,0.0,0.0,0.0,0.0,0.0,0.0,0.0,0.0,0.0,0.0,0.0,0.0,0.0,0.0,5.5498,5.7287,5.9034,6.0778,6.3183,6.534,6.7006,6.7188,6.7525,6.8398,6.8736,6.9257,7.008,7.0427,7.1209,7.2567,7.2595,7.2946,7.3579,7.5201,7.6058,7.6146,7.7769,7.7822,7.645,7.645,7.5667,7.4347,7.502,7.526,7.5286,7.585,7.6071,7.5881,7.4234,7.3584,7.3588,7.357,7.4074,7.4875,2.5306,2.5306,2.5306,2.5306,2.5306,2.5821,2.7327,2.8429,3.1149,3.6898,4.1005,4.4951,4.8965,5.2441,5.4826,5.5629,5.6272,5.5985,5.4434,5.3203,5.1685,4.9905,5.37,5.6511,5.7928,6.0704,6.229,6.2607,6.3004,6.3324,6.3565,6.3168,6.2652,6.2134,6.2374,6.2096,6.1501,6.1261,6.0849,6.0197,5.8935,5.6807,5.4148,0.0,0.0,0.0,0.0,0.0,0.0,0.0,0.0,0.0,0.0,0.0,0.0,0.0,0.0,0.0,0.0,0.0,0.0,0.0,0.0,0.0,0.0,0.0,0.0,0.0,0.0,0.0,0.0,0.0,0.0,0.0,5.6766,5.8465,5.8784,5.9583,6.1261,6.4436,6.5769,6.6934,6.8204,6.8893,6.9274,6.9351,7.0703,7.13,7.0716,7.1545,7.2274,7.2795,7.2821,7.3774,7.5712,7.6194,7.7305,7.8987,7.945,7.9695,7.976,7.976,7.954,7.9207,7.9383,7.9107,7.8473,7.8215,7.7744,7.7023,7.5814,7.5319,7.5319,7.5326,7.5453,7.5772,2.5306,2.5306,2.5306,2.5306,2.561,2.632,2.7682,2.9205,3.2465,3.8759,4.2231,4.6019,5.1006,5.3592,5.547,5.6697,5.6282,5.5741,5.5222,5.3584,5.3215,5.4518,5.731,5.9485,6.0914,6.3338,6.4547,6.4382,6.5214,6.5641,6.5625,6.5503,6.5305,6.5042,6.5029,6.4528,6.3684,6.3359,6.2602,6.1565,6.0766,5.8633,5.5847,5.5404,5.3586,5.1166,5.1041,5.055,4.9764,4.8637,0.0,0.0,0.0,0.0,0.0,0.0,0.0,0.0,0.0,0.0,0.0,0.0,0.0,0.0,0.0,0.0,0.0,0.0,0.0,0.0,0.0,0.0,0.0,0.0,6.0086,6.2437,6.354,6.336,6.4262,6.7347,6.788,6.8478,6.9749,7.0408,7.0729,7.0559,7.1683,7.2245,7.1923,7.2648,7.3368,7.4109,7.4094,7.524,7.7626,7.8344,7.9728,8.1745,8.2482,8.2695,8.2493,8.2493,8.2136,8.1552,8.1824,8.165,8.1183,8.1088,8.0731,8.0005,0.0,0.0,0.0,0.0,7.8151,7.8212,2.5306,2.5306,2.5306,2.5306,2.6031,2.689,2.7787,3.0054,3.4177,4.1063,4.3978,4.7811,5.3973,5.5206,5.6302,5.8126,5.5964,5.4518,5.4502,5.3318,5.4392,5.8395,5.9523,6.1534,6.467,6.4911,6.5416,6.6172,6.7089,6.7496,6.7468,6.8222,6.8459,6.825,6.8258,6.7525,6.6237,6.5355,6.4284,6.3124,6.2168,5.9746,5.669,5.6631,5.5014,5.2817,5.3565,5.2927,5.1835,5.2315,0.0,0.0,0.0,0.0,0.0,0.0,0.0,0.0,0.0,0.0,0.0,0.0,0.0,0.0,0.0,0.0,0.0,0.0,0.0,0.0,0.0,0.0,0.0,0.0,6.2443,6.5405,6.842,6.7658,6.7503,6.9538,6.9606,6.9991,7.126,7.1676,7.1902,7.1939,7.2283,7.2795,7.3467,7.3864,0.0,0.0,0.0,7.7297,7.9444,8.1009,8.2611,8.4207,8.5761,8.5833,8.4643,8.466,8.393,8.2718,8.3245,8.3438,8.3378,8.3846,8.3966,8.3375,7.916,7.8326,7.9632,8.1025,8.1566,8.155,2.5306,2.5306,2.5306,2.5306,2.6037,2.6883,2.7764,3.005,3.4363,4.1876,4.3835,4.7353,5.4672,5.5044,5.5706,5.8085,5.5964,5.4506,5.4483,5.6118,5.805,6.0223,6.242,6.4235,6.5622,6.6987,6.7765,6.7923,6.9431,6.9958,6.95,6.9699,6.8945,6.7427,6.742,6.6722,6.5476,6.4635,6.4125,6.3787,6.2247,6.0888,5.9671,5.8998,5.8356,5.7848,5.7753,5.7962,5.8047,5.6535,5.5903,5.5281,5.2341,5.1081,0.0,0.0,0.0,0.0,0.0,0.0,0.0,0.0,0.0,0.0,0.0,0.0,0.0,0.0,0.0,0.0,0.0,0.0,0.0,6.2883,6.5725,6.8151,6.9066,6.9467,6.9831,7.0288,7.0843,7.1396,7.1888,7.2572,7.308,7.3287,7.4403,7.4921,7.4631,7.5706,7.6578,7.699,7.8324,7.9856,8.1592,8.2586,8.3797,8.5278,8.5623,0.0,8.6165,8.6184,8.6019,8.5762,8.5856,8.5524,8.4836,8.4491,8.3629,8.256,8.2597,8.2753,8.3119,8.3999,8.4338,8.4415,2.5306,2.5306,2.5306,2.5306,2.6387,2.7383,2.7823,3.0078,3.3667,3.9183,4.0997,4.405,5.0004,5.1029,5.2173,5.4317,5.4488,5.4298,5.3886,5.7431,6.0299,6.1975,6.4116,6.5862,6.7128,6.7977,6.8677,6.9232,7.05,7.0832,7.0322,7.0702,7.0164,6.8833,6.8844,6.7902,6.6256,6.5865,6.5091,6.4038,6.3203,6.2383,6.1588,6.0589,5.9816,5.9322,5.9605,5.9685,5.9595,5.8998,5.9078,5.9116,5.7409,5.6178,5.4779,0.0,0.0,0.0,0.0,0.0,0.0,0.0,0.0,0.0,0.0,0.0,0.0,0.0,0.0,6.0571,6.1269,0.0,6.5284,6.5973,6.8099,6.9957,7.0842,7.128,7.1401,7.1121,7.1685,7.224,7.2653,7.3538,7.4323,7.4867,7.5941,7.6602,7.675,7.7783,7.8643,7.9142,7.9963,8.1357,8.3374,8.4217,8.5374,8.6889,8.7327,8.7697,8.8004,8.8018,8.8011,8.8011,8.8011,8.7764,8.7317,8.7034,8.6492,8.5852,8.6453,8.5663,8.4323,8.543,8.5863,8.589,2.5306,2.5306,2.5306,2.5306,2.6619,2.7694,2.7868,2.9917,3.2779,3.6486,3.8337,4.0964,4.5387,4.7055,4.8447,4.9857,5.3037,5.4463,5.3295,5.8274,6.1876,6.3245,6.4987,6.6689,6.8341,6.841,6.8953,7.0105,7.0919,7.1044,7.0614,7.1391,7.1325,7.0426,7.0416,6.9279,6.7367,6.7033,6.5899,6.43,6.3964,6.3418,6.2707,6.1788,6.0726,5.9834,6.0463,5.9923,5.9109,6.0217,6.0838,6.1158,6.1478,6.0241,5.8183,5.5739,5.36,0.0,0.0,0.0,0.0,0.0,0.0,0.0,0.0,5.877,6.0441,6.2253,6.2894,6.3461,6.4426,6.6004,6.7494,6.8639,6.979,7.1076,7.2535,7.27,7.2584,7.2336,7.2687,7.3251,7.3993,7.4864,7.5777,7.6743,7.7411,7.8162,7.9026,7.9818,8.0706,8.166,8.1986,8.3183,8.5276,8.6103,8.7152,8.8442,8.9096,8.9386,8.9386,8.939,8.9392,8.9392,8.9392,8.9392,8.9392,8.9392,8.9392,8.9401,8.9397,8.7762,8.5545,8.6854,8.7353,8.7385,2.5306,2.5306,2.5306,2.5306,2.6117,2.7004,2.7775,2.9425,3.2306,3.7227,3.8707,4.1206,4.62,4.6933,4.7122,4.731,5.3097,5.5732,5.3363,5.9344,6.31,6.3284,6.4987,6.667,6.8363,6.8386,6.8953,7.0105,7.0982,7.1198,7.0886,7.1745,7.1449,7.0134,7.0124,6.9235,6.7577,6.6119,6.5394,6.5055,6.3556,6.2872,6.2793,6.2664,6.207,6.1331,6.1104,5.9589,5.7985,5.9926,5.9707,5.8836,6.0293,5.9585,5.782,5.5658,5.3804,5.2035,4.9853,5.1664,5.4326,5.4898,5.704,5.9882,0.0,6.4901,6.6388,6.86,6.9669,7.0018,6.9444,6.9707,7.0092,7.0236,7.0588,7.1395,7.2988,7.3221,7.3553,7.4443,7.4581,7.5206,7.6725,7.6972,7.7694,7.9276,7.9472,7.9885,8.0678,8.1473,8.2614,8.4142,8.5594,8.6783,8.777,8.8601,8.9084,8.9258,8.934,8.9386,8.9414,8.9383,8.9386,8.9386,8.9386,8.9386,8.9386,8.9386,8.9386,8.9413,8.9412,8.9184,8.8943,8.9777,9.0053,9.0156,2.5306,2.5306,2.5306,2.5306,2.6001,2.689,2.7777,2.8892,3.0774,3.3921,3.5069,3.6779,3.9928,4.2454,4.4336,4.5282,5.1152,5.4325,5.3283,5.9093,6.2811,6.3284,6.4472,6.5929,6.7609,6.8124,6.8571,6.8898,7.0215,7.0236,6.9084,7.0381,6.9913,6.8043,6.85,6.7824,6.6243,6.5577,6.5015,6.4541,6.384,6.3246,6.2793,6.2793,6.2584,6.2107,6.0543,5.9359,0.0,6.0045,6.0331,6.0547,6.2665,6.2088,6.0174,5.7775,5.6162,5.5331,5.6341,5.6796,5.7935,6.2039,6.3363,6.4477,6.7719,6.9199,7.0369,7.1993,7.1925,7.1643,7.1768,7.1592,7.1697,7.2517,7.2831,7.3421,7.4581,7.4853,7.5284,7.6184,7.6741,7.711,7.7297,7.8186,7.9419,8.1079,8.1208,8.1942,8.3688,8.4112,8.5013,8.6631,8.7339,8.8076,8.8907,8.9693,9.0107,9.0109,9.0573,9.0819,9.081,9.0804,9.0804,9.0804,9.0804,9.0804,9.0804,9.0804,9.0804,9.0786,9.0793,9.0794,9.0713,9.0088,8.9867,8.9904,2.5306,2.5306,2.5306,2.5306,2.5808,2.6619,2.7739,2.8394,2.9473,3.1437,3.2202,3.3313,3.5308,3.9042,4.2038,4.3485,4.8613,5.2185,5.3134,5.8114,6.1633,6.2918,6.4014,6.5193,6.6516,6.7524,6.7956,6.7805,6.9143,6.9185,6.8066,6.9238,6.8706,6.6853,6.7447,6.6792,6.5294,6.5047,6.4639,6.4075,6.383,6.3369,6.2823,6.3061,6.2736,6.1916,6.0162,5.9109,5.863,5.9227,5.9509,6.0005,6.2264,6.1826,6.017,5.8433,5.728,5.7245,6.0392,6.077,6.1552,6.7014,6.8157,6.8478,7.0733,7.1777,7.2553,7.3535,7.3063,7.2601,7.3,7.3224,7.3598,7.4294,7.4882,7.5588,7.6457,7.669,7.7156,7.8197,7.905,7.952,7.9312,7.9998,8.1236,8.3064,8.3202,8.417,8.6332,8.6464,8.7186,8.8809,8.8845,8.9267,9.0063,9.064,9.0933,9.0933,9.1519,9.1803,9.1803,9.1803,9.1803,9.1803,9.1803,9.1803,9.1803,9.1803,9.1803,9.1803,9.1803,9.1803,9.1647,9.0475,9.0063,9.0063,2.5306,2.5306,2.5306,2.5306,2.5306,2.5924,2.7623,2.7932,2.8823,3.138,3.1711,3.2695,3.5231,3.8509,4.0896,4.181,4.5774,4.9678,5.2973,5.6481,5.9547,6.2038,6.3737,6.4777,6.5134,6.6444,6.7182,6.7331,6.7824,6.8369,6.887,6.8919,6.8466,6.7674,6.7689,6.6796,6.5262,6.4474,6.4112,6.4038,6.3167,6.2829,6.289,6.3755,6.256,6.0455,6.0376,5.8872,5.6868,5.6906,5.5877,5.49,5.6541,5.6492,5.5861,5.6183,5.5989,5.6288,5.9164,6.2011,6.4642,6.6799,6.9633,7.1955,7.2022,7.2291,7.2647,7.3204,7.3785,7.4009,7.343,7.5099,7.6184,7.5045,7.6176,7.7511,7.8382,7.8529,7.9106,8.0682,8.1621,8.2708,8.424,8.3027,8.3108,8.5513,8.5704,8.6412,8.8043,8.8141,8.8865,9.0493,9.053,9.0896,9.1721,9.1767,9.1767,9.1767,9.1803,9.1803,9.1803,9.1803,9.1803,9.1803,9.1803,9.1803,9.1803,9.1803,9.1803,9.1803,9.1803,9.1803,9.1803,9.1767,9.173,9.173,2.5306,2.5306,2.5306,2.5306,2.5306,2.5886,2.7623,2.7893,2.8625,3.0589,3.1817,0.0,0.0,0.0,0.0,0.0,4.4853,4.8036,4.9716,5.408,5.7473,5.9506,6.1743,6.3354,6.4226,6.5572,6.6094,6.5623,6.6684,6.6693,6.5727,6.6808,6.6585,6.5329,6.586,6.5519,6.445,6.3584,6.2916,6.2451,6.2683,6.1514,5.9694,6.0533,5.9341,5.7143,0.0,5.6252,5.6077,5.6615,5.6424,5.6445,5.9146,5.869,5.7304,5.7998,5.8688,6.0089,6.4014,6.6405,6.8364,7.0748,7.2148,7.3077,7.3488,7.406,7.4427,7.4221,7.5173,7.5886,7.5285,7.6697,7.7823,7.7431,7.8276,7.9238,8.0075,8.0193,8.0779,8.2396,8.3308,8.4417,8.6044,8.5207,8.5371,8.7245,8.7395,8.8105,8.9731,8.9806,9.031,9.1354,9.1391,9.1519,9.1803,9.1803,9.1803,9.1803,9.1803,9.1803,9.1803,9.1803,9.1803,9.1803,9.1803,9.1803,9.1803,9.1803,9.1803,9.1803,9.1803,9.1803,9.1849,9.2436,9.2638,9.2592,2.5306,2.5306,2.5306,2.5345,2.5577,0.0,0.0,0.0,0.0,0.0,0.0,0.0,0.0,0.0,0.0,0.0,0.0,4.5622,4.7968,5.1164,5.4049,5.6393,5.8322,5.9657,6.0181,6.1835,6.238,6.1693,6.3924,6.4396,6.3258,6.5154,6.5359,6.4108,6.464,6.4417,6.3584,6.3038,6.2353,6.1605,6.1533,6.0117,5.8042,5.8246,5.6833,0.0,5.4483,5.4186,5.4065,5.5149,5.5497,5.6035,5.8959,5.9197,5.8753,6.0439,6.1107,6.2292,6.6895,6.872,6.9952,7.2452,7.328,7.361,7.3984,7.4689,7.5351,7.5529,7.6565,7.7472,7.7423,7.8695,7.9711,7.9491,8.0361,8.1273,8.1778,8.21,8.2788,8.412,8.4984,8.6088,8.7688,8.7634,8.7926,8.8967,8.9046,8.9642,9.0978,9.1015,9.1272,9.1767,9.1803,9.1803,9.1803,9.1803,9.1968,9.2262,9.2262,9.2427,9.2684,9.2684,9.2684,9.2684,9.2684,9.2519,9.2262,9.2262,9.2097,9.1803,9.1803,9.1803,9.1849,9.2427,9.2629,9.2638,2.5306,2.5306,2.5345,0.0,0.0,0.0,0.0,0.0,0.0,0.0,0.0,0.0,0.0,0.0,0.0,0.0,0.0,0.0,4.7468,4.7892,4.9469,5.2777,5.3857,5.4154,5.3715,5.5797,5.6605,5.5996,5.9652,6.1358,6.1269,6.3619,6.4347,6.3662,6.3662,6.3246,6.2499,6.2462,6.1955,6.1086,5.9563,5.8394,5.7488,5.6706,5.4976,5.2989,5.3785,5.2653,5.098,5.2585,5.3308,5.3933,5.635,5.8192,6.0124,6.3365,6.3173,6.3017,6.7729,6.907,6.9697,7.1991,7.3199,7.3815,7.3831,7.4367,7.5286,7.679,7.7553,7.8249,7.9227,8.0695,8.1562,8.1029,8.2358,8.3472,8.3529,8.4169,8.4985,8.5821,8.6649,8.7732,8.9313,9.0182,9.0649,9.0649,9.0649,9.0978,9.1767,9.1803,9.1803,9.1803,9.1803,9.1803,9.1803,9.1803,9.2262,9.318,9.307,9.3474,9.4227,9.4182,9.4182,9.4182,9.4182,9.3731,9.3024,9.3042,9.2556,9.1803,9.1803,9.1803,9.1812,9.1849,9.1876,9.2106,0.0,0.0,0.0,0.0,0.0,0.0,0.0,0.0,0.0,0.0,0.0,0.0,0.0,0.0,0.0,0.0,0.0,0.0,4.3235,4.5163,4.7165,4.9315,5.1428,5.2919,5.3676,5.4638,5.4989,5.4678,5.5806,5.6131,5.5731,5.6721,5.7373,5.7788,5.7788,5.7966,5.8284,5.7703,5.6974,5.6198,5.5794,5.4069,5.1735,5.151,5.0288,4.8764,4.9581,4.9884,5.0141,5.1742,5.4703,5.8081,6.0508,6.241,6.4141,6.6194,6.692,6.759,7.0024,7.1574,7.2613,7.3236,7.4439,7.5477,7.5483,7.4702,7.4127,7.4513,7.3806,7.3366,7.4179,7.7142,7.9605,8.0028,8.2439,8.449,8.5117,8.5345,8.6022,8.7433,8.8309,8.9184,9.0191,9.1015,9.1473,9.1473,9.1473,9.1602,9.1803,9.1803,9.1803,9.1803,9.1803,9.1803,9.1803,9.1803,9.2556,9.3961,9.2728,9.2568,9.3395,9.2733,9.2439,9.2439,9.2439,9.2311,9.2128,9.2134,9.2014,9.1803,9.1803,9.1803,9.1886,9.2519,9.2776,9.2905,0.0,0.0,0.0,0.0,0.0,0.0,0.0,0.0,0.0,0.0,0.0,0.0,0.0,0.0,0.0,0.0,0.0,0.0,0.0,4.2933,4.4509,4.5853,4.7622,4.8879,4.9556,5.0602,5.1016,5.0716,5.2149,5.2586,5.2145,5.3322,5.4106,5.4546,5.4546,5.4803,5.5196,5.473,5.4069,0.0,0.0,5.0996,4.8935,4.8242,4.7393,4.6682,4.7484,4.8778,5.0582,5.3601,5.7147,6.0694,6.3112,6.5045,6.6724,6.8711,6.9113,6.9325,7.1281,7.2753,7.3795,7.4153,7.5439,7.6359,7.5278,7.4616,7.3934,7.2852,7.1917,7.1999,7.4206,7.6796,7.9208,8.1072,8.3481,8.5394,8.6229,8.6321,8.6941,8.8555,8.9147,8.973,9.0502,9.1308,9.1803,9.1803,9.1803,9.1803,9.1803,9.1803,9.1803,9.1803,9.1803,9.1803,9.1803,9.1785,9.2455,9.3758,9.2817,9.2823,9.36,9.3104,9.2893,9.2893,9.2893,9.2691,9.237,9.2372,9.2143,9.1803,9.1803,9.1803,9.1895,9.2767,9.3097,9.318,0.0,0.0,0.0,0.0,0.0,0.0,0.0,0.0,0.0,3.2005,3.2043,3.2583,0.0,0.0,0.0,0.0,0.0,0.0,0.0,0.0,4.1852,4.2701,4.3547,4.4011,4.4126,4.5737,4.6393,4.6026,4.8624,4.9707,4.9395,5.1109,5.1966,5.2076,5.2076,5.2113,5.2223,5.2223,5.183,5.1069,4.9564,4.8494,4.7672,0.0,4.5663,4.5842,4.6787,4.8548,5.1274,5.6418,5.9767,6.2234,6.5037,6.7056,6.8742,7.0828,7.0455,6.9828,7.1947,7.3164,7.4057,7.4876,7.6378,7.6993,7.4581,7.432,7.3852,7.1322,7.0475,7.1355,7.5296,7.6727,7.8385,8.1747,8.3532,8.4978,8.6332,8.6498,8.7318,8.9473,8.974,9.0063,9.085,9.1556,9.1932,9.1812,9.1803,9.1803,9.1803,9.1803,9.1803,9.1803,9.1803,9.1849,9.1978,9.1846,9.2295,9.3262,9.3039,9.3352,9.4135,9.4007,9.397,9.397,9.397,9.3556,9.2932,9.2932,9.2473,9.1803,9.1803,9.1849,9.206,9.2803,9.318,9.3263,0.0,0.0,0.0,0.0,0.0,0.0,0.0,0.0,0.0,0.0,3.3779,3.3896,0.0,0.0,0.0,0.0,0.0,0.0,0.0,0.0,0.0,4.0937,4.1777,4.2583,4.3278,4.4278,4.4718,4.4635,4.534,4.5615,4.5533,4.5284,4.5553,4.6168,4.6168,4.6539,4.7168,4.7168,4.7099,4.6879,4.5915,4.5471,4.5214,4.4273,0.0,0.0,4.6567,4.7815,4.9769,5.6664,6.0597,6.3366,6.785,7.0354,7.1742,7.2159,7.2078,7.1954,7.2408,7.3575,7.4894,7.5672,7.7639,7.8717,7.6251,7.4259,7.2041,6.8964,6.6149,6.5332,6.8753,7.0031,7.1845,7.575,7.7181,7.9243,8.3449,8.4009,8.5873,9.0877,9.1473,9.1767,9.2601,9.2803,9.2592,9.1849,9.1803,9.1803,9.1803,9.1803,9.1803,9.1803,9.1803,9.2143,9.2886,9.2152,9.2565,9.4089,9.2684,9.2482,9.3262,9.2556,9.2225,9.2225,9.2225,9.2143,9.2014,9.2014,9.1932,9.1803,9.1803,9.2225,9.2886,9.3051,9.3529,9.4092,0.0,0.0,0.0,0.0,0.0,0.0,0.0,3.283,3.351,3.4776,3.4891,3.489,3.489,3.5232,3.5654,0.0,0.0,0.0,0.0,0.0,0.0,3.9165,4.0433,4.1318,4.1743,4.301,4.3662,4.3662,0.0,4.3665,4.39,4.3368,4.348,4.4085,4.4085,4.4309,4.4644,4.4644,4.4644,4.4603,4.4236,4.4085,4.4011,4.3653,0.0,0.0,4.6058,4.7273,4.9145,5.4798,5.8022,6.0958,6.8378,7.1835,7.2789,7.113,7.1798,7.2863,7.1578,7.334,7.5835,7.7097,7.8615,7.8702,7.4544,7.2708,7.0356,6.501,6.2996,6.3195,6.6468,6.8092,7.0211,7.4243,7.7017,7.9895,8.3511,8.5103,8.755,9.1987,9.2114,9.2168,9.3003,9.3088,9.2721,9.1849,9.1803,9.1803,9.1803,9.1803,9.1803,9.1803,9.1803,9.2014,9.2427,9.2014,9.2188,9.2978,9.2179,9.2014,9.239,9.1978,9.1803,9.1803,9.1803,9.1803,9.1803,9.1803,9.1803,9.1849,9.2308,9.2721,9.3189,9.4043,9.4582,9.4934,0.0,0.0,0.0,0.0,0.0,0.0,3.3102,3.3852,3.4606,3.5472,3.554,3.55,3.55,3.55,3.55,0.0,0.0,0.0,0.0,0.0,0.0,0.0,0.0,4.0244,4.0244,0.0,0.0,4.2814,4.2604,0.0,0.0,0.0,0.0,0.0,4.303,4.2988,4.2988,4.2988,4.3102,0.0,0.0,4.3359,4.3506,0.0,0.0,0.0,0.0,4.6728,4.8485,5.3115,5.5605,5.8321,6.702,7.0624,7.1328,6.9669,7.0954,7.2686,7.1468,7.356,7.646,7.7965,7.8919,7.8046,7.2342,7.105,6.9038,6.1881,6.0903,6.2297,6.5428,6.6715,6.8603,7.2462,7.5652,7.8971,8.2765,8.5094,8.8114,9.2784,9.2587,9.2417,9.3269,9.3207,9.2721,9.1849,9.1803,9.1803,9.1803,9.1803,9.1803,9.1803,9.1803,9.1803,9.1803,9.1803,9.1803,9.1803,9.1803,9.1803,9.1803,9.1803,9.1803,9.1803,9.1803,9.1803,9.1803,9.1803,9.1895,9.2143,9.2849,9.3327,9.3786,9.5022,9.5597,9.5763,0.0,0.0,0.0,0.0,0.0,0.0,3.3161,3.3889,3.4614,3.5494,3.554,3.55,3.55,3.55,3.55,0.0,0.0,0.0,0.0,0.0,0.0,0.0,0.0,0.0,0.0,0.0,0.0,4.1927,4.2295,0.0,0.0,0.0,0.0,0.0,0.0,4.1323,4.1323,4.1323,0.0,0.0,0.0,0.0,0.0,0.0,0.0,0.0,0.0,4.5993,4.7095,5.3382,5.6051,5.7734,6.3062,6.4867,6.5645,6.9015,7.0183,7.1027,7.3736,7.5241,7.6306,7.7215,7.8067,7.7238,7.1505,7.022,6.8348,6.1771,6.0444,6.1294,6.3834,6.3191,6.3375,6.6715,6.6976,6.9667,7.7982,7.9955,8.3968,9.3116,9.3473,9.3315,9.4125,9.3547,9.2721,9.1849,9.1803,9.1803,9.1803,9.1803,9.1803,9.1803,9.1803,9.1803,9.1803,9.1803,9.1803,9.1803,9.1803,9.1803,9.1803,9.1803,9.1803,9.1803,9.1803,9.1803,9.1803,9.1803,9.2262,9.2978,9.306,9.3979,9.5286,9.5451,9.5975,9.6602,0.0,0.0,0.0,0.0,0.0,0.0,3.332,3.4442,3.5366,3.5612,3.5619,3.554,3.55,3.55,3.55,3.55,0.0,0.0,0.0,0.0,0.0,0.0,0.0,0.0,0.0,0.0,4.101,4.101,4.1187,0.0,0.0,0.0,0.0,0.0,0.0,4.1099,4.1099,4.1099,0.0,0.0,0.0,0.0,0.0,0.0,0.0,0.0,0.0,0.0,4.6434,4.9994,5.2082,5.377,5.7189,5.859,5.977,6.3802,6.776,7.0763,7.0624,7.3634,7.704,7.7884,7.7957,7.6342,7.066,6.9015,6.6813,6.0309,5.9349,5.9967,6.0964,6.141,6.2187,6.3973,6.6469,7.0624,7.7598,8.0975,8.5196,9.1987,9.2969,9.2454,9.0771,9.2132,9.2749,9.1877,9.1803,9.1803,9.1803,9.1803,9.1803,9.1803,9.1803,9.1803,9.1803,9.1803,9.1803,9.1803,9.1803,9.1803,9.1803,9.1803,9.2097,9.2592,9.2592,9.2849,9.3299,9.3299,9.351,9.386,9.4346,9.4921,9.5561,9.6058,9.6436,9.6685,0.0,0.0,0.0,0.0,0.0,3.3398,3.3398,3.4805,3.5882,3.5787,3.5669,3.5579,3.5538,3.55,3.55,3.55,3.55,0.0,0.0,0.0,0.0,0.0,0.0,0.0,0.0,0.0,4.0516,4.0516,4.0516,4.0696,0.0,0.0,4.0727,4.0993,0.0,0.0,0.0,0.0,0.0,0.0,0.0,0.0,0.0,0.0,0.0,0.0,0.0,0.0,0.0,0.0,0.0,5.1194,5.3512,5.4859,5.6429,6.0713,6.5185,6.8811,6.9052,7.2422,7.6335,7.8148,7.7223,7.4647,6.9956,6.754,6.4684,5.914,5.8431,5.8866,5.8866,6.0156,6.1447,6.1985,6.5809,7.0844,7.6974,8.0938,8.5049,9.0115,9.1289,9.086,8.8743,9.1078,9.2473,9.184,9.1803,9.1803,9.1803,9.1803,9.1803,9.1803,9.1803,9.1803,9.1803,9.1803,9.1803,9.1803,9.1803,9.1803,9.1803,9.1803,9.2143,9.2721,9.2996,9.34,9.3942,9.4191,9.4439,9.4696,9.527,9.5643,9.5929,9.6473,9.6685,9.6685,0.0,0.0,0.0,0.0,0.0,0.0,3.3398,3.4805,3.5898,3.5898,3.5707,3.5619,3.5619,3.554,3.55,3.55,3.55,0.0,0.0,0.0,0.0,0.0,0.0,0.0,0.0,0.0,4.0516,4.0516,4.0516,4.0514,4.0506,4.0235,3.9933,3.9601,0.0,0.0,0.0,0.0,0.0,0.0,0.0,0.0,4.3506,0.0,0.0,0.0,0.0,0.0,0.0,0.0,0.0,0.0,0.0,5.4618,5.6539,6.1367,6.2829,6.4297,7.069,7.2488,7.3523,7.7598,7.5542,7.1901,6.9442,6.5765,6.1912,5.8657,5.8002,5.7997,5.7997,5.9318,6.0413,6.0413,6.3203,6.7864,7.5102,7.8266,8.1937,8.7582,8.8243,8.8533,8.9311,9.0841,9.1803,9.1803,9.1803,9.1803,9.1803,9.1803,9.1803,9.1803,9.1803,9.1803,9.1803,9.1803,9.1803,9.1803,9.1803,9.1803,9.1803,9.1803,9.1803,9.1868,9.2716,9.3104,9.3186,9.3977,9.4778,9.5487,9.5514,9.5975,9.6685,9.6685,9.6685,9.6685,0.0,0.0,0.0,0.0,0.0,0.0,3.332,3.4375,3.5273,3.582,3.5827,3.5738,3.5619,3.5579,3.554,3.55,3.55,0.0,0.0,0.0,0.0,0.0,0.0,0.0,0.0,3.9627,4.0516,4.0516,4.1087,4.1391,4.1387,4.1664,4.1624,4.1301,4.0975,4.034,0.0,0.0,0.0,0.0,0.0,4.2639,4.3806,0.0,0.0,0.0,0.0,0.0,0.0,0.0,0.0,0.0,0.0,0.0,0.0,5.7949,6.0664,6.3233,6.5325,6.7504,6.9529,7.0814,6.9743,6.776,6.5288,6.3313,6.1227,5.8553,5.8002,5.8002,5.8002,5.9318,6.0413,6.0413,6.3166,6.7827,7.5065,7.7752,8.1269,8.7472,8.7232,8.7739,9.0759,9.0017,9.0017,9.1684,9.1803,9.1803,9.1803,9.1803,9.1803,9.1803,9.1803,9.1803,9.1803,9.1803,9.1803,9.1803,9.1803,9.2097,9.2684,9.2684,9.3299,9.4338,9.4614,9.5044,9.5597,9.5846,9.6095,9.6307,9.6307,9.6473,9.6685,9.6685,9.6685,9.6685,0.0,0.0,0.0,0.0,0.0,0.0,3.2851,3.3945,3.4883,3.5391,3.5708,3.5846,3.5665,3.5623,3.5579,3.55,3.55,0.0,0.0,0.0,0.0,0.0,0.0,0.0,3.8471,4.0125,4.0971,4.0971,4.1852,4.2273,4.231,4.2639,4.2621,4.2284,4.1923,4.1336,0.0,0.0,0.0,0.0,4.1132,4.218,4.3746,0.0,0.0,0.0,0.0,0.0,0.0,0.0,0.0,0.0,0.0,0.0,0.0,0.0,5.8074,6.1078,6.2445,6.4304,6.6225,6.7767,6.6623,6.4787,6.357,6.1704,5.9838,5.8296,5.8002,5.8002,5.8002,5.9318,6.089,6.2432,6.4157,6.7931,7.5498,7.693,7.9507,8.5673,8.6597,8.7688,9.0205,8.9907,9.0182,9.1684,9.1803,9.1803,9.1803,9.1803,9.1803,9.1803,9.1803,9.1803,9.1803,9.1803,9.1803,9.1803,9.1803,9.2262,9.3088,9.3097,9.3804,9.5055,9.5377,9.5771,0.0,9.6556,9.6685,9.6685,9.6685,9.6685,9.6685,9.6685,9.6685,9.6685,0.0,0.0,0.0,0.0,0.0,0.0,0.0,3.3516,3.4531,3.4609,3.5234,3.5687,3.5624,3.5548,3.5503,3.55,0.0,0.0,0.0,0.0,0.0,0.0,0.0,0.0,3.9359,4.0967,4.1812,4.1889,4.2775,4.3201,4.3201,4.3239,4.3086,4.2766,4.2436,4.2066,0.0,0.0,0.0,0.0,4.048,4.1668,0.0,0.0,0.0,0.0,0.0,0.0,0.0,0.0,0.0,0.0,0.0,0.0,0.0,0.0,0.0,0.0,0.0,6.2451,6.3406,6.7233,6.5323,6.2714,6.3535,6.0749,0.0,5.8002,5.8002,5.8033,5.807,5.9532,6.1955,6.5632,6.5882,6.8298,7.5894,7.6188,7.759,8.3014,8.6439,8.8438,8.8549,9.0536,9.1803,9.1803,9.1803,9.1803,9.1803,9.1803,9.1803,9.1803,9.1803,9.1803,9.1803,9.1803,9.1803,9.1803,9.1803,9.2262,9.3088,9.3175,9.36,9.4437,9.5229,9.5597,9.5643,9.639,9.6685,9.6685,9.6685,9.6685,9.6685,9.6685,9.6685,9.6685,0.0,0.0,0.0,0.0,0.0,0.0,0.0,0.0,0.0,0.0,3.382,3.4117,3.4738,3.4698,3.4855,0.0,0.0,0.0,0.0,0.0,0.0,0.0,0.0,0.0,4.0206,4.1277,4.2119,4.2775,4.3624,4.4011,4.4049,4.4705,4.4846,4.4508,4.444,4.3353,0.0,0.0,0.0,0.0,4.144,4.249,0.0,0.0,0.0,0.0,4.4445,4.4537,0.0,0.0,0.0,0.0,0.0,0.0,0.0,0.0,5.5358,5.6871,5.8261,0.0,5.9876,6.0873,6.0353,5.9733,0.0,5.8956,5.8002,5.8002,5.8002,5.818,5.8792,6.1765,6.404,6.3716,6.6653,7.0073,7.3186,7.8655,8.3279,8.5848,8.8435,9.0546,9.1831,9.1858,9.1803,9.1803,9.1803,9.1803,9.1803,9.1803,9.1803,9.1803,9.1803,9.1803,9.1803,9.1803,9.1803,9.1803,9.1803,9.2262,9.3125,9.3727,9.4474,9.5266,9.6058,9.6427,9.6436,9.6639,9.6685,9.6685,9.6685,9.6685,9.6685,9.6685,9.6685,9.6685,0.0,0.0,0.0,0.0,0.0,0.0,0.0,0.0,0.0,0.0,3.3159,3.3477,3.3859,3.382,0.0,0.0,0.0,0.0,0.0,0.0,0.0,0.0,0.0,3.9394,4.1048,4.2316,4.3162,4.3662,4.4474,4.4898,4.4898,4.5361,4.5485,4.5306,4.5175,4.3879,0.0,0.0,0.0,4.0396,4.1198,0.0,0.0,0.0,0.0,0.0,4.4834,4.4742,0.0,4.5457,4.6553,4.7724,0.0,0.0,0.0,0.0,5.4586,5.5821,5.6447,5.7501,5.8417,5.8386,5.8528,5.8647,5.8429,5.8161,5.8002,5.8002,5.829,5.8688,5.9117,6.1912,6.4958,6.7387,6.9412,7.1865,7.5359,8.1856,8.6444,8.6949,8.9812,9.195,9.2464,9.206,9.1803,9.1803,9.1803,9.1803,9.1803,9.1803,9.1803,9.1803,9.1803,9.1803,9.1803,9.1803,9.1803,9.1803,9.1803,9.2436,9.3667,9.4098,9.4959,9.6058,9.6519,9.6685,9.6685,9.6685,9.6685,9.6685,9.6685,9.6685,9.6685,9.6685,9.6685,9.6685,0.0,0.0,0.0,0.0,0.0,0.0,0.0,0.0,0.0,0.0,0.0,0.0,0.0,0.0,0.0,0.0,0.0,0.0,0.0,0.0,0.0,0.0,3.8819,4.0164,4.1966,4.3508,4.4357,4.4511,4.5246,4.5592,4.5592,4.5592,4.5592,4.5584,4.5288,4.4113,4.2286,4.1198,4.0484,4.0119,4.0846,0.0,0.0,0.0,0.0,0.0,0.0,0.0,0.0,4.5791,4.6745,4.7555,4.7996,0.0,0.0,0.0,0.0,0.0,5.5803,5.6973,5.8128,5.8519,5.8693,5.8798,5.878,5.8476,5.818,5.818,5.9239,6.0254,6.0621,6.3043,6.7056,7.323,7.3223,7.4103,7.8927,8.436,8.7627,8.7085,9.0491,9.2675,9.2042,9.1877,9.1803,9.1803,9.1803,9.1803,9.1803,9.1803,9.1803,9.1803,9.1803,9.1803,9.1803,9.1803,9.1803,9.1803,9.1803,9.2556,9.3924,9.4191,9.5036,9.6353,9.6602,9.6685,9.6685,9.6685,9.6685,9.6685,9.6685,9.6685,9.6685,9.6685,9.6685,9.6685,0.0,0.0,0.0,0.0,0.0,0.0,0.0,0.0,0.0,0.0,0.0,0.0,0.0,0.0,0.0,0.0,0.0,0.0,0.0,0.0,0.0,3.793,3.8819,4.0435,4.2854,4.3816,4.4665,4.54,4.5515,4.5592,4.5592,4.5592,4.5592,4.559,4.5555,4.4837,4.3563,4.2639,4.2223,4.2146,4.2306,0.0,0.0,0.0,0.0,0.0,0.0,0.0,0.0,4.5333,4.6038,4.7101,4.7561,0.0,0.0,0.0,0.0,0.0,5.6813,5.7472,5.8285,6.0752,6.0343,5.9844,6.193,6.0657,5.9013,5.9013,6.1875,6.4995,6.7013,7.16,7.5446,7.6555,7.715,7.7781,7.8662,8.3039,8.6377,8.6912,8.9957,9.2253,9.2839,9.2235,9.1803,9.1803,9.1803,9.1803,9.1803,9.1803,9.1803,9.1803,9.1803,9.1803,9.1803,9.1803,9.1803,9.1803,9.1803,9.1932,9.2216,9.3664,9.4421,9.4732,9.6104,9.6685,9.6685,9.6685,9.6685,9.6685,9.6685,9.6685,9.6685,9.6685,9.6685,9.6685,0.0,0.0,0.0,0.0,0.0,0.0,0.0,0.0,0.0,0.0,0.0,0.0,0.0,0.0,0.0,0.0,0.0,0.0,0.0,0.0,3.6233,3.793,3.8819,4.0473,4.3047,4.4357,4.5208,4.5592,4.5592,4.5592,4.5592,4.5592,4.5592,4.5592,4.5592,4.5037,4.4087,4.3535,4.3016,4.2629,0.0,0.0,0.0,0.0,0.0,0.0,0.0,0.0,0.0,0.0,4.6033,4.7025,4.7685,0.0,0.0,0.0,0.0,0.0,5.638,5.7458,5.9136,6.4047,6.3787,6.2659,6.404,6.5072,6.4621,6.0664,6.3783,6.746,6.8128,7.1424,7.5344,7.9315,8.2113,8.3948,8.438,8.7105,8.9187,8.9534,9.1317,9.2473,9.2409,9.2042,9.1803,9.1803,9.1803,9.1803,9.1803,9.1803,9.1803,9.1803,9.1803,9.1803,9.1803,9.1803,9.1803,9.1803,9.1803,9.2262,9.3171,9.397,9.4785,9.5643,9.639,9.6685,9.6685,9.6685,9.6685,9.6685,9.6685,9.6685,9.6685,9.6685,9.6685,9.6685,0.0,0.0,0.0,0.0,0.0,0.0,0.0,0.0,0.0,0.0,0.0,0.0,0.0,0.0,0.0,0.0,0.0,0.0,0.0,3.4888,3.6233,3.793,3.8819,4.0473,4.3047,4.4551,4.54,4.5592,4.5592,4.5592,4.5592,4.5592,4.5592,4.5592,4.5592,4.5246,4.4579,4.4181,4.372,4.3333,0.0,0.0,0.0,0.0,0.0,0.0,0.0,0.0,0.0,0.0,0.0,0.0,0.0,0.0,0.0,5.2392,5.3892,5.4998,5.6457,5.8202,6.0896,6.6201,6.608,6.5199,6.7306,6.9602,6.9876,6.4818,6.8047,7.1725,7.1659,7.3303,7.6416,8.1636,8.5086,8.7537,8.8923,9.0326,9.1299,9.15,9.2271,9.2519,9.184,9.1803,9.1803,9.1803,9.1803,9.1803,9.1803,9.1803,9.1803,9.1803,9.1803,9.1803,9.1803,9.1803,9.1803,9.1803,9.2014,9.2767,9.4043,9.4402,9.5256,9.6436,9.6639,9.6685,9.6685,9.6685,9.6685,9.6685,9.6685,9.6685,9.6685,9.6685,9.6685,9.6685,0.0,0.0,0.0,0.0,0.0,0.0,0.0,0.0,0.0,0.0,0.0,0.0,0.0,0.0,0.0,0.0,0.0,0.0,0.0,3.458,3.6233,3.793,3.8819,4.0473,4.3047,4.3934,4.4782,4.5592,4.5592,4.5592,4.5592,4.5592,4.5592,4.5592,4.5592,4.5554,4.5436,4.4611,4.4681,4.534,4.4566,0.0,0.0,0.0,0.0,0.0,0.0,0.0,0.0,0.0,0.0,0.0,0.0,0.0,4.8853,5.22,5.597,5.8929,5.8329,6.0769,6.3944,6.5766,6.525,6.6157,7.3379,7.3097,7.1784,7.3509,7.7186,8.0791,8.2994,8.414,8.4434,8.3463,8.3573,8.4821,8.7876,8.9042,8.9839,9.058,9.1408,9.1877,9.1812,9.1803,9.1803,9.1803,9.1803,9.1803,9.1803,9.1803,9.1803,9.1803,9.1803,9.1803,9.1803,9.1803,9.1803,9.1812,9.2638,9.306,9.3244,9.4712,9.547,9.5643,9.639,9.6685,9.6685,9.6685,9.6685,9.6685,9.6685,9.6685,9.6685,9.6685,9.6685,9.6685,0.0,0.0,0.0,0.0,0.0,0.0,0.0,0.0,0.0,0.0,0.0,0.0,0.0,0.0,0.0,0.0,0.0,0.0,0.0,3.4007,3.5661,3.7892,3.8317,3.9933,4.3047,4.3895,4.4744,4.5592,4.5592,4.5592,4.5592,4.5592,4.5592,4.5592,4.5592,4.5592,4.5592,4.5246,4.5284,4.5554,4.5246,4.5323,0.0,0.0,0.0,0.0,0.0,0.0,0.0,0.0,4.5592,4.59,4.7586,4.8084,4.8776,5.22,5.47,5.6665,5.7931,6.1353,6.5406,6.9162,6.9556,6.9948,7.3408,7.737,7.9286,7.5637,7.8948,8.2765,8.3683,8.4499,8.5343,8.6261,8.5114,8.5261,8.8491,8.9647,9.0435,9.1261,9.1601,9.1803,9.1803,9.1803,9.1803,9.1803,9.1803,9.1803,9.1803,9.1803,9.1803,9.1803,9.1803,9.1803,9.1803,9.1803,9.206,9.2601,9.2932,9.3621,9.4602,9.5223,9.5763,9.6261,9.6556,9.6685,9.6685,9.6685,9.6685,9.6685,9.6685,9.6685,9.6685,9.6685,9.6685,9.6685,0.0,0.0,0.0,0.0,0.0,0.0,0.0,0.0,0.0,0.0,0.0,0.0,0.0,0.0,0.0,0.0,0.0,0.0,3.2852,3.3702,3.5356,3.7892,3.8007,3.9469,4.2622,4.3508,4.4472,4.5592,4.5592,4.5592,4.5592,4.5592,4.5592,4.5592,4.5592,4.5592,4.5592,4.5592,4.5592,4.5592,4.5592,4.5592,0.0,0.0,0.0,0.0,0.0,0.0,0.0,0.0,4.5592,4.59,4.7586,4.8084,4.8776,5.22,5.478,5.6723,5.7808,6.254,6.7751,7.0093,7.246,7.4505,7.5621,7.9238,8.1379,7.7921,8.1738,8.5371,8.4344,8.4609,8.5343,8.6518,8.5527,8.5702,8.8959,9.0105,9.0894,9.1702,9.1803,9.1803,9.1803,9.1803,9.1803,9.1803,9.1803,9.1803,9.1803,9.1803,9.1803,9.1803,9.1803,9.1803,9.1803,9.1803,9.2354,9.3474,9.3492,9.4189,9.5514,9.5763,9.6178,9.6685,9.6685,9.6685,9.6685,9.6685,9.6685,9.6685,9.6685,9.6685,9.6685,9.6685,9.6685,9.6685,0.0,0.0,0.0,0.0,0.0,0.0,0.0,0.0,0.0,0.0,0.0,0.0,0.0,0.0,0.0,0.0,0.0,0.0,3.2852,3.3702,3.5318,3.7892,3.8007,3.9198,4.1735,4.266,4.3934,4.5592,4.5592,4.5592,4.5592,4.5592,4.5592,4.5592,4.5592,4.5592,4.5592,4.5592,4.5592,4.5592,4.5592,4.5592,4.5592,0.0,0.0,0.0,0.0,0.0,0.0,0.0,4.5592,4.59,4.7545,4.8084,4.8776,5.2238,5.6819,6.037,5.8286,6.4834,7.139,6.7708,7.2971,7.9479,8.129,7.8205,7.6342,8.1195,8.6664,8.9601,8.6379,8.5792,8.527,8.3711,8.4123,8.5747,8.8959,9.0105,9.0894,9.1702,9.1803,9.1803,9.1803,9.1803,9.1803,9.1803,9.1803,9.1803,9.1803,9.1803,9.1803,9.1803,9.1803,9.1803,9.1803,9.1812,9.2638,9.4292,9.4315,9.4722,9.5561,9.6344,9.6685,9.6685,9.6685,9.6685,9.6685,9.6685,9.6685,9.6685,9.6685,9.6685,9.6685,9.6685,9.6685,9.6685,0.0,0.0,0.0,0.0,0.0,0.0,0.0,0.0,0.0,0.0,0.0,0.0,0.0,0.0,0.0,0.0,0.0,0.0,3.2814,3.3123,3.443,3.6965,3.7659,3.8894,4.0858,4.2895,4.4474,4.5592,4.5592,4.5592,4.5592,4.5592,4.5592,4.5592,4.5592,4.5592,4.5592,4.5592,4.5592,4.5592,4.5592,4.5592,4.5592,0.0,0.0,0.0,0.0,0.0,0.0,0.0,0.0,0.0,4.6891,4.7658,4.912,5.4351,5.8201,6.1456,6.4391,7.0154,7.5276,7.5238,7.7404,7.9978,8.1543,8.1375,8.0959,8.1297,8.538,8.8096,8.5453,8.4976,8.5527,8.7344,8.6407,8.6563,8.9783,9.0949,9.1528,9.1767,9.1803,9.1803,9.1803,9.1803,9.1803,9.1803,9.1803,9.1803,9.1803,9.1803,9.1803,9.1803,9.1803,9.1803,9.1803,9.239,9.3262,9.4301,9.4858,9.5561,9.6353,9.6602,9.6685,9.6685,9.6685,9.6685,9.6685,9.6685,9.6685,9.6685,9.6685,9.6685,9.6685,9.6685,9.6685,9.6685,0.0,0.0,0.0,0.0,0.0,0.0,0.0,0.0,0.0,0.0,3.0834,3.0774,0.0,0.0,0.0,0.0,0.0,0.0,3.2312,3.2737,3.389,3.6117,3.7042,3.843,4.0477,4.2356,4.3893,4.509,4.5438,4.5592,4.5592,4.5592,4.5592,4.5592,4.5592,4.5592,4.5592,4.5592,4.5592,4.5592,4.5592,4.5592,4.5592,0.0,0.0,0.0,0.0,0.0,0.0,0.0,0.0,0.0,4.6622,4.8389,5.0774,5.4003,5.916,6.4251,6.6174,7.221,7.8186,7.8998,8.0646,8.2188,8.2496,8.299,8.3124,8.2141,8.5555,8.8124,8.6371,8.604,8.6664,8.8601,8.7967,8.8029,9.0279,9.128,9.1803,9.1803,9.1803,9.1803,9.1803,9.1803,9.1803,9.1803,9.1803,9.1803,9.1803,9.1803,9.1803,9.1803,9.2143,9.2308,9.2308,9.3143,9.397,9.4788,9.527,9.5929,9.6685,9.6685,9.6685,9.6685,9.6685,9.6685,9.6685,9.6685,9.6685,9.6685,9.6685,9.6685,9.6685,9.6685,9.6685,9.6685,0.0,0.0,3.0898,0.0,0.0,0.0,0.0,0.0,0.0,3.0895,3.0794,3.0685,0.0,0.0,0.0,3.0423,3.0383,3.0769,3.1658,3.2391,3.3582,3.5309,3.6233,3.7852,4.0323,4.1239,4.2468,4.4088,4.5013,4.5515,4.5592,4.5592,4.5592,4.5592,4.5592,4.5592,4.5592,4.5592,4.5592,4.5592,4.5592,4.5592,4.5592,4.5592,0.0,0.0,0.0,0.0,0.0,0.0,0.0,0.0,4.6545,4.9505,5.2659,5.2349,5.9541,6.7222,6.5548,7.2207,7.9762,8.0126,8.3041,8.5466,8.404,8.3931,8.3968,8.3234,8.639,8.8959,8.7949,8.7986,8.8206,8.8316,8.8984,8.9782,9.0609,9.1353,9.1803,9.1803,9.1803,9.1803,9.1803,9.1803,9.1849,9.1895,9.1849,9.1849,9.2014,9.1968,9.1932,9.2014,9.2803,9.3207,9.3208,9.3998,9.4788,9.5514,9.5561,9.5975,9.6685,9.6685,9.6685,9.6685,9.6685,9.6685,9.6685,9.6685,9.6685,9.6685,9.6685,9.6685,9.6685,9.6685,9.6685,9.6685,0.0,0.0,3.0898,3.0898,0.0,0.0,0.0,0.0,3.0843,3.0773,3.0703,3.0647,3.0514,3.0503,0.0,3.0423,3.0383,3.0769,3.1658,3.1851,3.2699,3.4395,3.5928,3.7582,3.9513,4.0358,4.1279,4.235,4.3855,4.4936,4.5592,4.5592,4.5592,4.5592,4.5592,4.5592,4.5592,4.5592,4.5592,4.5592,4.5592,4.5592,4.5592,4.5592,4.5592,0.0,0.0,0.0,0.0,0.0,0.0,0.0,4.5821,4.7394,4.9969,5.3741,5.7973,6.3044,7.0532,7.4439,7.7467,8.2143,8.5501,8.741,8.6442,8.8161,8.8206,8.1864,8.4792,8.761,8.4931,8.6509,8.8426,8.9033,8.9811,9.06,9.1418,9.1702,9.1803,9.1803,9.1803,9.1803,9.1803,9.1803,9.2097,9.2767,9.2179,9.239,9.3676,9.318,9.3097,9.3758,9.3924,9.4053,9.4038,9.4829,9.5325,9.5514,9.6141,9.6519,9.6685,9.6685,9.6685,9.6685,9.6685,9.6685,9.6685,9.6685,9.6685,9.6685,9.6685,9.6685,9.6685,9.6685,9.6685,9.6685,0.0,0.0,0.0,0.0,0.0,0.0,0.0,0.0,3.0832,3.0702,3.0661,3.0621,3.0503,3.0463,0.0,0.0,3.0383,3.0577,3.104,3.1465,3.2468,3.4127,3.5428,3.6734,3.8046,3.9281,4.0358,4.1162,4.247,4.3739,4.4975,4.54,4.5592,4.5592,4.5592,4.5592,4.5592,4.5592,4.5592,4.5592,4.5592,4.5592,4.5592,4.5592,4.5592,4.5592,4.5592,0.0,0.0,0.0,0.0,0.0,0.0,0.0,5.0815,5.2243,5.7668,6.4512,7.0896,7.4805,7.836,8.3699,8.6315,8.761,8.7582,8.9152,8.9445,8.527,8.6729,8.8014,8.5583,8.6509,8.815,8.9717,8.9985,9.071,9.2711,9.2308,9.2097,9.2886,9.2308,9.2106,9.2932,9.2638,9.2767,9.3593,9.3235,9.3372,9.4246,9.3896,9.3868,9.4281,9.4659,9.4877,9.4861,9.568,9.6058,9.6095,9.651,9.6685,9.6685,9.6685,9.6685,9.6685,9.6685,9.6685,9.6685,9.6685,9.6685,9.6685,9.6685,9.6685,9.6685,9.6685,9.6685,9.6685,0.0,0.0,0.0,0.0,0.0,0.0,0.0,0.0,0.0,3.0687,3.0616,3.0581,3.0501,3.0423,3.0383,0.0,0.0,0.0,3.0383,3.1234,3.2314,3.3702,3.4736,3.5656,3.6463,3.8046,3.9319,4.0283,4.1162,4.2352,4.3893,4.4898,4.5477,4.559,4.5548,4.5555,4.559,4.5548,4.5555,4.5592,4.5592,4.5592,4.5592,4.5592,4.5592,4.5592,4.5592,4.5592,4.5592,4.5592,0.0,0.0,0.0,0.0,5.1931,4.9971,5.6668,6.5322,6.8183,7.3894,8.0154,8.469,8.6407,8.717,8.7839,8.8711,8.9326,8.9033,8.9216,8.8996,8.7675,8.7537,8.8315,9.0448,9.037,9.1032,9.3905,9.3116,9.2758,9.4126,9.307,9.2767,9.4163,9.3695,9.3649,9.4439,9.4389,9.4434,9.4706,9.4591,9.4557,9.4722,9.5349,9.5726,9.5726,9.6353,9.6685,9.6685,9.6685,9.6685,9.6685,9.6685,9.6685,9.6685,9.6685,9.6685,9.6685,9.6685,9.6685,9.6685,9.6685,9.6685,9.6685,9.6685,9.6685,9.6685,0.0,0.0,0.0,0.0,0.0,0.0,0.0,0.0,0.0,0.0,3.0618,3.0541,3.0423,3.0423,3.0383,3.0383,3.0383,3.0383,3.0383,0.0,0.0,3.2005,3.3547,3.4776,3.5654,3.6579,3.7853,3.9475,4.0283,4.1164,4.2158,4.3739,4.4898,4.5584,4.5283,4.5346,4.5579,4.5278,4.5313,4.5592,4.5592,4.5592,4.5592,4.5592,4.5592,4.5592,4.5592,4.5592,4.5592,4.5592,4.5592,0.0,0.0,0.0,4.8853,4.9279,5.2087,5.6426,6.2679,7.1665,8.0308,8.469,8.6407,8.7023,8.7133,8.8299,8.8996,8.7601,8.8445,8.9326,8.9106,8.9665,9.0444,9.1469,9.2189,9.2996,9.4154,9.4097,9.404,9.4255,9.4097,9.4049,9.4264,9.4207,9.4477,9.5269,9.4678,9.4917,9.631,9.5719,9.5643,9.6353,9.6473,9.6556,9.6556,9.6639,9.6685,9.6685,9.6685,9.6685,9.6685,9.6685,9.6685,9.6685,9.6685,9.6685,9.6685,9.6685,9.6685,9.6685,9.6685,9.6685,9.6685,9.6685,9.6685,9.6685,0.0,0.0,0.0,0.0,0.0,0.0,0.0,0.0,0.0,0.0,0.0,3.0503,3.0423,3.0383,3.0383,3.0383,3.0383,3.0383,3.0383,3.0769,3.1195,3.1697,3.2391,3.3431,3.4737,3.5619,3.685,3.8586,3.9436,4.0412,4.155,4.2285,4.3314,4.4602,4.4465,4.4745,4.5306,4.5376,4.5455,4.5592,4.5592,4.5473,4.5356,4.5541,4.5778,4.6015,4.6231,4.6317,4.6317,4.6317,4.6011,4.5592,4.5592,0.0,0.0,0.0,5.0164,5.3442,6.1103,7.0707,7.9185,8.1788,8.4397,8.6444,8.6913,8.7565,8.7977,8.772,8.8234,8.8711,8.8711,8.9398,9.0342,9.1606,9.2112,9.2995,9.4732,9.4598,9.4633,9.5532,9.4847,9.4643,9.5578,9.5251,9.5312,9.6104,9.5846,9.5939,9.6639,9.6353,9.6344,9.6685,9.6685,9.6685,9.6685,9.6685,9.6685,9.6685,9.6685,9.6685,9.6685,9.6685,9.6685,9.6685,9.6685,9.6685,9.6685,9.6685,9.6685,9.6685,9.6685,9.6685,9.6685,9.6685,9.6685,9.6685,0.0,0.0,0.0,0.0,0.0,0.0,0.0,0.0,0.0,0.0,0.0,3.0463,3.0423,0.0,0.0,0.0,3.0383,3.0383,3.0383,3.0383,3.0692,3.1349,3.158,3.2391,3.3856,3.4736,3.6003,3.7659,3.8456,3.9457,4.0656,4.0784,4.1656,4.3044,4.3545,4.4162,4.4921,4.5222,4.5441,4.5581,4.564,4.5541,4.5437,4.5912,4.6242,4.6534,4.7045,4.7153,4.7065,4.7174,4.6624,4.5936,4.5936,4.6394,0.0,0.0,0.0,5.2859,6.0503,6.8326,7.5169,7.8626,8.1754,8.447,8.6297,8.6546,8.6619,8.7435,8.7766,8.794,8.8152,8.9012,9.0222,9.1873,9.2117,9.2837,9.492,9.4851,9.5054,9.6261,9.5514,9.5395,9.6593,9.6141,9.6058,9.6639,9.6685,9.6685,9.6685,9.6685,9.6685,9.6685,9.6685,9.6685,9.6685,9.6685,9.6685,9.6685,9.6685,9.6685,9.6685,9.6685,9.6685,9.6685,9.6685,9.6685,9.6685,9.6685,9.6685,9.6685,9.6685,9.6685,9.6685,9.6685,9.6685,9.6685,0.0,0.0,0.0,0.0,0.0,0.0,0.0,0.0,0.0,0.0,0.0,3.0463,3.0423,3.0383,3.0383,3.0383,3.0383,3.0383,3.0383,3.0383,3.0422,3.0462,3.1272,0.0,3.2968,3.3817,3.5085,3.6771,3.7332,3.8056,3.8952,3.9464,4.0123,4.104,4.263,4.3692,4.4348,4.4572,4.5017,4.5627,4.5755,4.5978,4.631,4.7084,4.7226,4.7054,4.7777,4.7798,4.7517,4.7919,4.7505,4.6812,4.6812,4.6851,4.7043,0.0,0.0,0.0,6.0006,6.2942,6.6577,7.6243,7.8809,8.0175,8.4801,8.527,8.4939,8.5755,8.6518,8.7308,8.8043,8.9491,9.1077,9.2757,9.3033,9.3345,9.4246,9.498,9.5478,9.5561,9.6141,9.6602,9.6685,9.6639,9.6639,9.6685,9.6685,9.6685,9.6685,9.6685,9.6685,9.6685,9.6685,9.6685,9.6685,9.6685,9.6685,9.6685,9.6685,9.6685,9.6685,9.6685,9.6685,9.6685,9.6685,9.6685,9.6685,9.6685,9.6685,9.6685,9.6685,9.6685,9.6685,9.6685,9.6685,9.6685,0.0,0.0,0.0,0.0,0.0,0.0,0.0,0.0,0.0,0.0,0.0,0.0,0.0,3.1234,3.1001,3.046,3.0383,3.0383,3.0383,3.0383,3.0383,3.0383,3.0692,3.1503,3.2852,3.32,3.4372,3.6431,3.6653,3.7239,3.8241,3.8433,3.8936,3.9794,4.1679,4.2957,4.372,4.4545,4.5044,4.5584,4.9289,5.0691,5.0687,5.1496,5.2246,5.2966,5.3456,0.0,5.3623,5.6313,5.48,5.1664,5.1123,4.9428,4.778,4.8369,5.026,5.2682,5.5115,5.9367,6.4123,6.8244,7.2018,7.4984,7.6232,7.9103,8.1313,8.0526,8.3903,8.7088,8.7373,8.9181,9.0795,9.14,9.239,9.3208,9.351,9.4236,9.4713,9.4714,9.5431,9.5929,9.5929,9.639,9.6685,9.6685,9.6685,9.6685,9.6685,9.6685,9.6685,9.6685,9.6685,9.6685,9.6685,9.6685,9.6685,9.6685,9.6685,9.6685,9.6685,9.6685,9.6685,9.6685,9.6685,9.6685,9.6685,9.6685,9.6685,9.6685,9.6685,9.6685,9.6685,9.6685,9.6685,9.6685,0.0,0.0,0.0,0.0,0.0,0.0,0.0,0.0,3.2891,3.2891,0.0,0.0,0.0,0.0,3.1774,3.0925,3.0848,3.0692,3.0422,3.0383,3.0383,3.0383,3.0383,3.1078,3.2468,3.2415,3.3393,3.5473,3.5543,3.6241,3.7512,3.7786,3.8348,3.9171,4.1082,4.236,4.3135,4.4271,4.5039,4.5831,4.9484,5.1308,5.2047,5.3982,5.552,5.6841,5.8774,0.0,5.9635,6.2649,6.0097,5.5511,5.4811,5.1699,4.8409,4.8706,4.9797,5.1058,5.1885,5.5589,5.9944,6.291,6.6476,6.9626,7.0977,7.5065,7.8392,7.7866,8.2239,8.6366,8.6885,8.8538,8.9887,9.0164,9.1354,9.2262,9.2262,9.3217,9.3897,9.3903,9.461,9.5096,9.511,9.5809,9.6307,9.6307,9.6556,9.6685,9.6685,9.6685,9.6685,9.6685,9.6685,9.6685,9.6685,9.6685,9.6685,9.6685,9.6685,9.6685,9.6685,9.6685,9.6685,9.6685,9.6685,9.6685,9.6685,9.6685,9.6685,9.6685,9.6685,9.6685,9.6685,9.6685,9.6685,9.6685,0.0,0.0,0.0,0.0,0.0,0.0,3.2968,3.3006,3.3006,3.3045,0.0,0.0,0.0,0.0,0.0,3.1851,3.1735,3.1388,3.0538,3.046,3.046,3.046,3.046,3.0845,3.1728,3.1487,3.2147,3.3806,3.4062,3.5035,3.6719,3.7499,3.8294,3.9144,4.084,4.196,4.2641,4.3639,4.4907,4.6276,4.631,4.7788,5.038,5.4611,5.6925,5.8535,6.3434,6.5087,6.5091,6.6399,6.2986,5.8057,5.7325,5.3294,4.8858,4.8811,4.8866,4.9263,0.0,0.0,0.0,6.0743,6.2572,6.4114,6.9765,7.3509,7.6293,7.8166,8.1658,8.4956,8.6617,8.7569,8.8388,8.9193,9.0035,9.0575,9.0557,9.1978,9.3014,9.3014,9.3758,9.4255,9.4246,9.499,9.5451,9.5478,9.6224,9.6639,9.6639,9.6685,9.6685,9.6685,9.6685,9.6685,9.6685,9.6685,9.6685,9.6685,9.6685,9.6685,9.6685,9.6685,9.6685,9.6685,9.6685,9.6685,9.6685,9.6685,9.6685,9.6685,9.6685,9.6685,9.6685,9.6685,9.6685,9.6685,0.0,0.0,0.0,0.0,0.0,3.4047,3.4696,3.5271,3.589,0.0,0.0,0.0,3.5734,3.4585,3.3741,3.3548,3.2931,3.2468,3.2235,3.2197,3.2197,3.2197,3.1657,3.1943,3.3186,3.2512,3.281,3.4103,3.4163,3.4962,3.6415,3.665,3.7461,3.8892,4.0502,4.1471,4.2011,4.4013,4.5122,4.6173,5.3784,5.7908,6.0055,6.4474,6.7423,6.9469,7.1436,7.1997,7.2428,7.624,7.1642,6.2881,5.4999,5.1449,4.9994,4.9123,4.9092,4.9427,4.9922,0.0,0.0,0.0,0.0,0.0,6.4114,6.6773,6.9931,7.5618,7.8653,8.1301,8.4636,8.5908,8.6733,8.7532,8.8846,8.9737,8.9733,9.064,9.1308,9.1308,9.2556,9.3428,9.3428,9.4163,9.4613,9.4632,9.5395,9.5846,9.5846,9.639,9.6685,9.6685,9.6685,9.6685,9.6685,9.6685,9.6685,9.6685,9.6685,9.6685,9.6685,9.6685,9.6685,9.6685,9.6685,9.6685,9.6685,9.6685,9.6685,9.6685,9.6685,9.6685,9.6685,9.6685,9.6685,9.6685,3.3965,3.3965,3.408,3.4428,3.4891,3.5545,3.6427,3.6927,3.7428,0.0,0.0,0.0,3.7313,3.6353,3.5624,3.5278,3.4776,3.4199,3.3508,3.3431,3.3243,3.2738,3.2272,3.2368,3.3066,3.2506,3.2713,3.3689,3.3573,3.448,3.6306,3.6306,3.7147,3.8755,4.0365,4.1212,4.1567,4.4325,4.6557,4.8682,5.3694,5.7979,6.1897,6.6272,6.9386,7.1963,7.5864,7.7073,7.7365,8.1184,7.6848,6.7768,5.5767,5.2673,5.296,5.02,4.9483,4.9536,4.9577,5.0403,5.1613,5.2889,0.0,0.0,5.9526,6.2343,6.6216,7.3162,7.5118,7.6989,8.1729,8.1324,8.1053,8.3605,8.4776,8.6226,8.8568,9.0159,9.0838,9.0164,9.1263,9.206,9.206,9.2803,9.3447,9.3775,9.4547,9.5171,9.5487,9.5939,9.6353,9.6685,9.6685,9.6685,9.6685,9.6685,9.6685,9.6685,9.6685,9.6685,9.6685,9.6685,9.6685,9.6685,9.6685,9.6685,9.6685,9.6685,9.6685,9.6685,9.6685,9.6685,9.6685,9.6685,9.6685,9.6685,0.0,3.5615,3.5885,3.6694,3.6848,3.7157,3.8007,3.8238,3.8315,0.0,3.8507,3.8584,3.8584,3.8469,3.8121,3.7348,3.7132,3.6389,3.4821,3.4704,3.4191,3.3048,3.2878,3.2693,3.2475,3.2136,3.2324,3.3089,3.2867,3.3947,3.6306,3.6306,3.7221,3.8905,4.0406,4.1209,4.158,4.4709,4.861,5.2558,5.0667,5.3957,6.0486,6.4867,6.791,7.0837,7.8241,8.0584,8.0396,8.1517,7.8689,7.2259,5.8683,5.6003,5.6921,5.221,5.0305,4.9716,4.9564,4.9564,5.0115,5.2375,5.3067,0.0,5.6596,5.9682,6.3909,7.0692,7.1177,7.2106,7.7795,7.5293,7.3819,7.8285,7.9446,8.1578,8.6671,8.9323,9.0235,8.8901,8.9432,9.0136,9.0676,9.1336,9.2097,9.2886,9.3722,9.4504,9.5325,9.546,9.5846,9.6556,9.6639,9.6685,9.6685,9.6685,9.6685,9.6685,9.6685,9.6685,9.6685,9.6685,9.6685,9.6685,9.6685,9.6685,9.6685,9.6685,9.6685,9.6685,9.6685,9.6685,9.6685,9.6685,9.6685,9.6685,3.6348,3.6463,3.6734,3.7582,3.7738,3.8046,3.8896,3.959,4.0242,4.0966,4.166,4.2085,4.2085,4.1468,4.1004,4.081,3.9935,3.8932,3.7955,3.7856,3.7352,3.6251,3.5184,3.4678,3.4841,3.3486,3.3067,3.3636,3.3576,3.4504,3.6306,3.6306,3.7518,3.9721,4.0663,4.1805,4.3208,4.5764,4.9635,5.4375,5.8356,6.3522,6.9422,7.483,7.7988,7.9781,8.2057,8.2778,8.1664,7.4955,7.45,7.4536,6.2058,5.9353,6.0095,5.6526,5.3151,5.0403,4.9752,4.9564,4.9816,5.0986,5.2223,0.0,5.8688,5.8297,5.9402,6.7877,6.6862,6.6184,7.1924,7.2162,7.2068,7.3665,7.724,8.0417,8.216,8.3379,8.4202,8.451,8.527,8.732,9.1176,9.1131,9.1189,9.1978,9.2849,9.3685,9.4504,9.5171,9.5561,9.5726,9.6353,9.6685,9.6685,9.6685,9.6685,9.6685,9.6685,9.6685,9.6685,9.6685,9.6685,9.6685,9.6685,9.6685,9.6685,9.6685,9.6685,9.6685,9.6685,9.6685,9.6685,9.6685,9.6685,9.6685,3.7275,3.7352,3.7621,3.8509,3.8973,3.9548,4.0392,4.1241,4.1933,4.2391,4.2816,4.3085,4.3085,4.2698,4.2381,4.2181,4.1583,4.0824,3.9868,3.9762,3.9066,3.7569,3.685,3.6097,3.5251,3.4439,3.3912,3.3807,3.3807,3.4651,3.6306,3.6306,3.7591,3.9945,4.0736,4.1988,4.38,4.826,5.3183,5.8186,6.0187,6.4187,6.9516,7.5212,7.8369,8.0086,8.25,8.3903,8.3434,7.5689,7.4984,7.5813,6.7313,6.3246,6.1269,0.0,5.5794,5.1825,5.1032,5.0477,5.0362,5.1174,0.0,0.0,0.0,5.6159,5.7085,6.4347,6.23,6.0963,6.6656,6.572,6.5142,6.8378,7.0983,7.286,7.3647,8.0346,8.5031,8.464,8.5662,8.75,9.0332,9.0226,9.0521,9.1721,9.2188,9.2803,9.3676,9.4089,9.4666,9.5478,9.5892,9.6307,9.6685,9.6685,9.6685,9.6685,9.6685,9.6685,9.6685,9.6685,9.6685,9.6685,9.6685,9.6685,9.6685,9.6685,9.6685,9.6685,9.6685,9.6685,9.6685,9.6685,9.6685,9.6685,3.8315,3.824,3.8586,3.9586,4.0319,4.1048,4.1927,4.2775,4.3431,4.3778,4.3886,4.4267,4.5047,4.4367,4.4024,4.4495,4.3602,4.2552,4.1496,4.1279,4.0393,3.8572,3.8404,3.7546,3.5742,3.5555,3.5081,3.4287,3.4287,3.5058,3.6527,3.6674,3.7958,4.0161,4.114,4.2906,4.5525,5.1384,5.7073,6.2077,6.2175,6.4591,6.8715,7.4397,7.6959,7.8096,8.217,8.4454,8.4691,7.8772,7.7774,7.7957,7.2349,6.74,6.3435,0.0,0.0,0.0,0.0,0.0,0.0,0.0,0.0,5.2391,0.0,0.0,0.0,6.0214,5.8076,5.683,6.159,5.9215,5.7917,6.2057,6.3785,6.4709,6.5033,7.6422,8.4124,8.2511,8.3586,8.5418,8.7769,8.9276,9.0438,9.1272,9.1932,9.2436,9.2849,9.3014,9.3685,9.4995,9.535,9.5809,9.6473,9.6639,9.6685,9.6685,9.6685,9.6685,9.6685,9.6685,9.6685,9.6685,9.6685,9.6685,9.6685,9.6685,9.6685,9.6685,9.6685,9.6685,9.6685,9.6685,9.6685,9.6685,3.9434,3.9165,3.9663,4.1237,4.1581,4.1968,4.2816,4.3624,4.4701,4.6274,4.6786,4.8369,5.1997,4.8922,4.7974,5.1502,4.7556,4.4539,4.3673,4.2973,4.2009,4.0776,4.0285,3.948,3.8326,3.7595,3.6828,3.6013,3.6013,3.6494,3.7382,3.8102,3.9342,4.1026,4.2547,4.6145,5.1284,5.4871,5.9275,6.4353,7.0617,7.3435,7.4581,8.0262,8.0783,7.8993,8.3022,8.4572,8.4205,8.0579,8.1827,8.3361,7.4882,7.1791,7.0139,6.4377,0.0,0.0,0.0,0.0,0.0,0.0,5.2527,5.2239,5.3146,0.0,5.3708,5.5091,0.0,5.4932,5.6298,0.0,0.0,5.374,5.8294,6.1566,6.0206,6.7024,7.1548,6.9955,7.055,7.4221,8.2241,8.8862,9.1849,8.9816,9.239,9.3428,9.2014,9.2684,9.3198,9.3355,9.4766,9.5561,9.5643,9.6344,9.6685,9.6685,9.6685,9.6685,9.6685,9.6685,9.6685,9.6685,9.6685,9.6685,9.6685,9.6685,9.6685,9.6685,9.6685,9.6685,9.6685,9.6685,9.6685,9.6685,4.1008,4.0739,4.1121,4.2352,4.2929,4.3355,4.3739,4.4724,4.6072,4.778,4.7953,4.9287,5.287,5.0334,5.0516,5.5725,5.2469,5.0503,5.1388,4.9371,4.7712,4.6764,4.3806,4.1948,4.1487,3.9761,3.8256,3.7011,3.7011,3.7412,3.8215,3.8542,3.9823,4.1988,4.6439,5.0293,5.3891,6.1337,6.5154,6.6673,7.2018,7.3626,7.3325,7.806,7.9939,8.0526,8.4564,8.6582,8.7023,8.4747,8.3838,8.3369,8.1517,7.5763,6.9566,6.8671,0.0,0.0,0.0,0.0,0.0,5.7997,5.7819,5.6938,5.4473,5.3881,5.3876,5.3713,0.0,0.0,0.0,0.0,0.0,0.0,5.6375,5.7882,5.721,5.9763,6.3701,6.9148,7.0512,7.3751,8.0829,8.2561,8.4183,8.6437,8.7885,8.8564,8.8344,9.0896,9.2592,9.3097,9.375,9.4574,9.5478,9.5846,9.6224,9.6685,9.6685,9.6685,9.6685,9.6685,9.6685,9.6685,9.6685,9.6685,9.6685,9.6685,9.6685,9.6685,9.6685,9.6685,9.6685,9.6685,9.6685,9.6685,4.2352,4.2183,4.2429,4.3278,4.3839,4.4307,4.4652,4.6087,4.7605,4.8811,4.9198,5.0869,5.4775,5.2347,5.3222,6.0078,5.6715,5.5338,5.794,5.4473,5.2674,5.3403,4.8127,4.5268,4.5484,4.2914,4.0528,3.8476,3.8476,3.8803,3.9342,3.9566,4.0634,4.2543,4.7944,5.2459,5.6638,6.5375,6.986,7.1335,7.5146,7.5469,7.3957,7.6856,7.9389,8.1819,8.5628,8.717,8.7427,8.7353,8.5783,8.4095,8.5555,7.925,7.1585,7.2782,0.0,0.0,6.4554,6.3753,6.2554,6.3656,6.193,5.9397,5.7183,5.5493,5.4212,5.3634,5.334,0.0,0.0,0.0,5.3629,5.3335,0.0,5.4112,5.3667,5.4193,0.0,6.6021,6.8872,7.2,7.6579,7.6671,7.7959,8.1672,8.2991,8.415,8.541,8.8436,9.0933,9.2684,9.2969,9.3649,9.483,9.5286,9.5809,9.6353,9.6602,9.6685,9.6685,9.6685,9.6685,9.6685,9.6685,9.6685,9.6685,9.6685,9.6685,9.6685,9.6685,9.6685,9.6685,9.6685,9.6685,9.6685,4.3312,4.3163,4.3316,4.4126,4.3999,4.4246,4.5557,4.7778,4.9305,4.9381,5.1129,5.4489,6.0141,5.6161,5.663,6.5467,5.9678,5.7212,6.1196,5.6266,5.5238,5.9899,5.323,4.9784,5.054,4.7352,4.4154,4.0985,4.0985,4.0989,4.1026,4.1805,4.2213,4.2396,4.4966,5.1353,6.0487,6.4787,7.1585,7.9706,8.292,8.2341,7.9559,7.9669,8.0726,8.259,8.5848,8.5049,8.3039,8.6885,8.8096,8.7472,8.449,8.2178,7.9829,7.5931,7.3516,7.1901,7.1197,6.7614,6.4941,6.8869,6.2744,5.698,6.1514,5.8311,5.4381,5.4375,0.0,0.0,5.2218,0.0,0.0,0.0,0.0,0.0,0.0,0.0,0.0,0.0,0.0,6.5033,6.6805,7.319,7.6672,7.5322,7.8879,8.2164,8.4491,8.5501,8.7806,9.1721,9.2638,9.3125,9.3198,9.4729,9.5514,9.5561,9.6344,9.6685,9.6685,9.6685,9.6685,9.6685,9.6685,9.6685,9.6685,9.6685,9.6685,9.6685,9.6685,9.6685,9.6685,9.6685,9.6685,9.6685,4.4168,4.4138,4.4171,4.444,4.4865,4.5829,4.7884,4.9127,5.121,5.4997,5.6337,5.9309,6.5557,6.3229,6.415,7.1424,6.7834,6.6446,6.9419,6.5344,6.3759,6.5919,5.8547,5.4509,5.4761,4.999,4.5915,4.2694,4.2135,4.1878,4.1911,4.2172,4.2584,4.3355,4.9003,5.5721,6.3178,6.8311,7.3443,7.8251,7.9344,7.8471,7.7084,8.1937,8.3443,8.3426,8.6619,8.8133,8.8683,8.9528,8.9776,8.9592,8.8491,8.5591,8.2105,7.9646,7.6276,7.3597,7.4903,7.4096,7.3039,7.3854,6.9993,6.5441,6.3306,5.9256,5.5702,5.4622,5.417,0.0,0.0,0.0,0.0,0.0,0.0,0.0,0.0,0.0,0.0,0.0,0.0,0.0,0.0,0.0,6.6309,7.0611,7.2204,7.5237,8.037,8.3425,8.7094,9.1647,9.2097,9.2519,9.3097,9.3658,9.4437,9.5514,9.5773,9.6178,9.6685,9.6685,9.6685,9.6685,9.6685,9.6685,9.6685,9.6685,9.6685,9.6685,9.6685,9.6685,9.6685,9.6685,9.6685,9.6685,4.4279,4.4437,4.4704,4.4967,4.6083,4.7758,5.0355,5.1969,5.4219,5.7894,6.0363,6.316,6.6763,6.6286,6.8084,7.3957,7.1798,7.1505,7.4771,7.0961,6.9823,7.2642,6.5007,6.108,6.1949,5.5238,5.0173,4.6952,4.4411,4.302,4.2731,4.2731,4.3171,4.4162,4.9439,5.5574,6.2334,6.8274,7.2488,7.5234,7.5784,7.6783,7.8398,8.2847,8.3508,8.2692,8.706,8.8904,8.9344,8.9959,9.0363,9.0583,9.0583,8.8454,8.5702,8.438,8.1562,7.8993,7.9719,7.883,7.7921,7.8544,7.4984,7.072,6.8481,6.4628,6.1225,6.021,5.8375,5.7603,0.0,0.0,0.0,0.0,0.0,0.0,0.0,4.9918,0.0,0.0,0.0,0.0,0.0,0.0,0.0,6.5065,6.6236,6.9959,7.731,8.0752,8.5337,9.1602,9.1803,9.206,9.2638,9.2932,9.375,9.508,9.5342,9.5929,9.6685,9.6685,9.6685,9.6685,9.6685,9.6685,9.6685,9.6685,9.6685,9.6685,9.6685,9.6685,9.6685,9.6685,9.6685,9.6685,4.3849,4.4305,4.5117,4.5896,4.7792,5.0124,5.2952,5.6088,5.818,5.8327,6.3135,6.5999,6.4567,6.5999,6.8862,7.3494,7.1769,7.2415,7.7061,7.3002,7.32,7.9486,7.2216,6.9015,7.1233,6.2652,5.6528,5.3324,4.7562,4.4374,4.362,4.3579,4.3979,4.4847,4.6457,5.1232,5.848,6.4727,6.9052,7.1821,7.3597,7.7965,8.3353,8.2774,8.157,8.102,8.7234,8.7537,8.5416,8.8482,8.9987,9.062,9.0656,9.062,9.0436,8.9693,8.8858,8.7692,8.5343,8.1893,7.9653,8.2655,7.7472,7.2665,7.6445,7.3553,7.0112,7.0098,6.5753,6.2028,6.2162,5.7506,0.0,0.0,0.0,0.0,0.0,0.0,0.0,0.0,0.0,0.0,0.0,0.0,0.0,0.0,0.0,0.0,0.0,7.7478,8.2477,9.118,9.1519,9.1556,9.1556,9.239,9.3217,9.4007,9.4978,9.5856,9.6639,9.6685,9.6685,9.6685,9.6685,9.6685,9.6685,9.6685,9.6685,9.6685,9.6685,9.6685,9.6685,9.6685,9.6685,9.6685,4.5465,4.6393,4.7821,4.927,5.1455,5.3655,5.5585,5.8101,6.067,6.3092,6.5742,6.8134,7.011,7.2855,7.5014,7.6261,7.5821,7.6261,7.8148,7.5946,7.5873,7.878,7.4559,7.1872,7.1307,6.3716,5.8217,5.4992,4.8678,4.548,4.5264,4.4672,4.4819,4.5663,4.7269,5.204,5.9086,6.1961,6.8421,7.7084,8.1093,8.2994,8.3711,8.65,8.6913,8.6416,8.9262,9.0143,9.0078,9.0922,9.0913,9.0693,9.1289,9.1069,9.0546,9.0363,8.9298,8.7949,8.6693,8.5196,8.3838,8.3499,8.0049,7.6819,7.7215,7.3553,7.0106,7.0092,6.8446,6.7774,7.016,6.4467,5.9987,0.0,0.0,0.0,0.0,0.0,0.0,0.0,0.0,0.0,0.0,0.0,0.0,0.0,0.0,0.0,7.0369,7.4543,7.9729,8.6256,8.7596,8.8226,8.8226,8.8436,8.8975,8.9807,9.3065,9.5017,9.5846,9.6436,9.6685,9.6685,9.6685,9.6685,9.6685,9.6685,9.6685,9.6685,9.6685,9.6685,9.6685,9.6685,9.6685,9.6685,4.7691,4.8825,5.0435,5.2087,5.5244,5.8107,5.9722,6.2946,6.6065,6.8641,7.0998,7.287,7.3964,7.6004,7.7428,7.7847,7.7884,7.8214,7.9074,7.823,7.845,8.0102,7.8075,7.6644,7.6085,6.9589,6.4127,5.9838,5.334,4.8857,4.6425,4.5948,4.6168,4.7021,4.904,5.2595,5.7398,6.1851,6.8862,7.726,8.071,8.2802,0.0,8.7234,8.9188,9.0519,9.1767,9.2501,9.2877,9.2877,9.2354,9.1758,9.2244,9.1546,9.0583,9.0583,8.9702,8.8454,8.7316,8.6656,8.593,8.4344,8.2847,8.1415,8.0225,7.8405,7.6879,7.6498,7.4385,7.3236,7.5438,6.8321,6.1791,0.0,0.0,0.0,0.0,0.0,0.0,0.0,0.0,0.0,0.0,0.0,0.0,0.0,0.0,0.0,7.0571,7.2583,7.6893,8.4364,8.6174,8.6178,8.4395,8.7879,8.9177,8.8262,9.2344,9.4711,9.5514,9.6344,9.6685,9.6685,9.6685,9.6685,9.6685,9.6685,9.6685,9.6685,9.6685,9.6685,9.6685,9.6685,9.6685,9.6685,5.0377,5.1363,5.2863,5.4583,5.8584,6.2334,6.4537,6.8348,7.1644,7.3457,7.6174,7.7451,7.6093,7.7032,7.8096,7.8846,7.8919,7.9258,8.0073,7.9926,8.0477,8.1974,8.1379,8.1342,8.2048,7.6688,7.1138,6.5625,5.9214,5.3261,4.7883,4.7778,4.8181,4.9035,5.1321,5.3634,5.6345,6.4127,7.0697,7.6012,7.7949,8.1399,8.5563,8.706,8.9959,9.3345,9.4162,9.4382,9.4309,9.4309,9.3822,9.3272,9.3272,9.2088,9.0767,9.0776,9.0069,8.8959,8.7675,8.7243,8.6803,8.5298,8.5453,8.5563,8.405,8.4719,8.5433,8.4741,8.1215,7.8475,7.9101,7.075,6.1965,0.0,0.0,0.0,0.0,0.0,0.0,0.0,0.0,0.0,0.0,0.0,0.0,0.0,0.0,0.0,0.0,0.0,7.3926,8.2587,8.503,8.4589,8.1184,8.8576,9.0915,8.8262,9.2225,9.4568,9.5349,9.6178,9.6602,9.6685,9.6685,9.6685,9.6685,9.6685,9.6685,9.6685,9.6685,9.6685,9.6685,9.6685,9.6685,9.6685,5.3592,5.3775,5.4698,5.6969,5.9728,6.3289,6.8281,6.9185,7.036,7.331,7.4192,7.4698,7.5058,7.8251,8.0416,8.0563,8.0571,8.0938,8.1717,8.0542,8.0212,8.1158,8.1077,8.1077,8.1232,7.693,7.2275,6.729,6.1441,5.637,5.2113,5.1463,5.1573,5.2407,5.3476,5.7477,6.379,6.9853,7.5733,8.1232,8.4829,8.761,8.9665,9.0592,9.2244,9.4199,9.5016,9.4859,9.4309,9.4309,9.4199,9.4088,9.4088,9.2941,9.1583,9.1666,9.0115,8.85,8.8886,8.8491,8.7766,8.6803,8.6693,8.6546,8.5608,8.5086,8.4784,8.4623,8.3932,8.3154,8.2643,7.5022,6.7419,6.3113,0.0,0.0,0.0,0.0,0.0,0.0,0.0,0.0,0.0,0.0,0.0,0.0,0.0,0.0,0.0,0.0,7.0513,7.355,7.9115,8.2041,8.1969,8.6037,8.8119,8.8226,9.1684,9.374,9.4557,9.5349,9.6058,9.6685,9.6685,9.6685,9.6685,9.6685,9.6685,9.6685,9.6685,9.6685,9.6685,9.6685,9.6685,9.6685,5.689,5.722,5.7997,5.9575,6.2224,6.5778,7.0624,7.2415,7.4434,7.7679,7.812,7.8552,7.9792,8.1334,8.2398,8.2847,8.2884,8.303,8.3434,8.2333,8.2039,8.2847,8.2472,8.2251,8.2251,8.0306,7.5718,6.8311,6.5154,6.023,5.3807,5.3445,5.3445,5.399,5.7745,6.1851,6.6396,7.3751,7.8927,8.2598,8.7023,8.9821,9.14,9.262,9.3859,9.5034,9.5851,9.5878,9.5547,9.5547,9.5254,9.4923,9.4923,9.3492,9.1886,9.2391,9.0776,8.8895,8.929,8.9106,8.8638,8.783,8.794,8.794,8.6693,8.6444,8.6215,8.5374,8.5236,8.4344,8.145,7.7738,7.3545,6.8639,0.0,0.0,0.0,0.0,0.0,0.0,0.0,0.0,0.0,0.0,0.0,0.0,0.0,0.0,0.0,0.0,6.7956,7.4216,7.8299,7.9947,7.9054,8.6428,8.8447,8.5164,9.0521,9.3529,9.4309,9.5122,9.5939,9.6685,9.6685,9.6685,9.6685,9.6685,9.6685,9.6685,9.6685,9.6685,9.6685,9.6685,9.6685,9.6685,6.1655,6.2279,6.2982,6.3766,6.6189,6.9339,7.3193,7.6085,7.8948,8.2039,8.2443,8.2994,8.4425,8.4344,8.4417,8.5041,8.527,8.5306,8.5114,8.4344,8.4197,8.4829,8.4087,8.3756,8.3903,8.3756,7.9389,7.069,6.9376,6.4243,5.5684,5.6381,5.7257,5.8474,6.3766,6.7437,7.0036,7.7275,8.1644,8.4095,8.8271,9.0803,9.2326,9.3932,9.496,9.5611,9.6428,9.6685,9.6685,9.6685,9.6272,9.5758,9.5758,9.4189,9.2427,9.2941,9.1464,8.9657,8.9657,8.9546,8.929,8.883,8.9078,8.9069,8.7785,8.8014,8.7986,8.6379,8.5919,8.4702,8.1043,8.0038,7.8062,7.2665,6.828,0.0,0.0,0.0,0.0,0.0,0.0,0.0,0.0,0.0,0.0,0.0,0.0,0.0,6.6213,6.3566,6.6213,7.5714,7.7455,7.7974,7.7415,8.6821,8.9285,8.4837,9.0228,9.3345,9.4328,9.4969,9.5773,9.6685,9.6685,9.6685,9.6685,9.6685,9.6685,9.6685,9.6685,9.6685,9.6685,9.6685,9.6685,9.6685,6.9582,7.0243,7.0536,7.1351,7.2349,7.4155,7.7524,7.889,8.0469,8.2949,8.3279,8.3609,8.449,8.5848,8.6693,8.6766,8.7427,8.7537,8.6803,8.6004,8.5608,8.5682,8.4903,8.4829,8.5572,8.4866,8.1884,7.6511,7.3516,6.7864,5.9899,6.2872,6.6616,7.0881,7.2202,7.5366,7.9756,8.1313,8.4609,8.8886,9.0849,9.2216,9.3161,9.4767,9.5428,9.5611,9.6428,9.6685,9.6685,9.6685,9.6649,9.6575,9.6575,9.5437,9.3942,9.3308,9.1868,9.0473,9.0473,8.995,8.9546,9.0216,8.9877,8.9363,8.9216,8.9216,8.8812,8.7206,8.6314,8.5865,8.6175,8.2717,7.8425,7.4177,6.9479,0.0,0.0,0.0,0.0,0.0,0.0,0.0,0.0,5.9634,0.0,0.0,5.8622,0.0,0.0,6.4063,6.5508,7.1659,7.2738,7.5899,8.1554,8.4851,8.8721,9.318,9.2308,9.2767,9.4283,9.4389,9.5266,9.6685,9.6685,9.6685,9.6685,9.6685,9.6685,9.6685,9.6685,9.6685,9.6685,9.6685,9.6685,9.6685,7.428,7.4896,7.5014,7.5307,7.6893,7.8699,8.0506,8.2663,8.4646,8.6069,8.5848,8.5885,8.6664,8.7757,8.8445,8.8445,8.8739,8.8785,8.8445,8.7692,8.7252,8.7252,8.6921,8.6701,8.6518,8.6215,8.3646,7.8809,7.5065,7.1321,6.7644,6.7026,6.8788,7.2672,7.6423,7.9176,8.1224,8.4967,8.8197,9.0913,9.1555,9.2905,9.462,9.5244,9.5795,9.6282,9.6575,9.6685,9.6685,9.6685,9.6685,9.6685,9.6685,9.5914,9.4951,9.462,9.3005,9.1326,9.1326,9.073,9.0326,9.1179,9.1106,9.0649,8.9932,8.9378,8.8715,8.7589,8.7293,8.7338,8.766,8.6541,8.3774,7.8266,7.6536,7.3046,0.0,0.0,0.0,0.0,0.0,0.0,0.0,0.0,0.0,0.0,0.0,0.0,0.0,0.0,6.8801,7.5477,7.5975,7.9506,8.6442,8.6044,8.7442,9.0649,9.1437,9.2684,9.4283,9.4306,9.5183,9.6685,9.6685,9.6685,9.6685,9.6685,9.6685,9.6685,9.6685,9.6685,9.6685,9.6685,9.6685,9.6639,7.9528,8.0151,8.0151,8.0151,8.1986,8.3573,8.3911,8.579,8.7468,8.8281,8.7576,8.7395,8.8429,8.9262,8.9767,8.9767,8.995,8.9996,8.9767,8.9225,8.8904,8.8904,8.8463,8.8169,8.8051,8.7573,8.5673,8.2268,7.845,7.5652,7.3883,7.1842,7.323,7.7664,8.1664,8.3609,8.4087,8.8307,9.0767,9.1849,9.2574,9.3923,9.5538,9.5758,9.6199,9.6685,9.6685,9.6685,9.6685,9.6685,9.6685,9.6685,9.6685,9.6309,9.5795,9.5575,9.4253,9.2831,9.2611,9.1656,9.0983,9.1833,9.1557,9.0836,9.0001,8.9371,8.8679,8.7639,8.7725,8.7942,8.7713,8.8424,8.7178,8.1437,8.1467,7.8772,6.8942,7.5036,0.0,0.0,7.1402,7.3935,7.447,6.6535,0.0,0.0,0.0,0.0,0.0,0.0,0.0,7.6591,7.589,7.9216,8.7216,8.5375,8.6257,9.0017,9.1473,9.2932,9.4328,9.4803,9.5643,9.6685,9.6685,9.6685,9.6685,9.6685,9.6685,9.6685,9.6685,9.6685,9.6685,9.6685,9.6685,9.6593,8.6252,8.6876,8.6876,8.6876,8.8225,8.9033,8.8243,8.78,8.7893,8.8687,8.7761,8.7598,8.9221,9.0106,9.0583,9.0583,9.1326,9.1436,9.062,9.0583,9.0583,9.0583,8.905,8.894,9.051,8.9014,8.8169,8.8096,8.4857,8.1216,7.7244,7.8075,8.2296,8.9216,8.9253,8.973,9.0546,9.14,9.1776,9.2024,9.4474,9.5465,9.5575,9.6392,9.6685,9.6685,9.6685,9.6685,9.6685,9.6685,9.6685,9.6685,9.6685,9.6685,9.6539,9.5721,9.5465,9.5281,9.4483,9.2737,9.1393,9.2176,9.0868,8.9347,8.9393,8.9404,8.8944,8.734,8.7343,8.7342,8.6565,8.7385,8.6885,8.2818,8.2194,7.9368,7.1218,7.7055,0.0,6.9956,7.1725,7.3714,7.3714,6.9272,0.0,0.0,0.0,0.0,0.0,0.0,0.0,7.2414,6.9477,7.2472,8.2199,8.145,8.5492,9.4218,9.3464,9.351,9.4365,9.5963,9.6685,9.6685,9.6685,9.6685,9.6685,9.6685,9.6685,9.6685,9.6685,9.6685,9.6685,9.6685,9.6685,9.6593,9.062,9.117,9.0803,8.9665,8.9886,9.0143,8.9886,8.9026,8.8713,8.9563,8.8617,8.8324,8.965,8.9292,8.9292,9.011,9.0433,9.0817,9.1391,9.1436,9.1179,9.062,9.0629,9.0886,9.14,9.0922,9.0665,9.0665,8.6885,8.4095,8.2325,8.4821,8.7198,8.9436,9.0546,9.1179,9.151,9.2914,9.3822,9.4307,9.4246,9.4534,9.4959,9.4337,9.4112,9.4112,9.4112,9.4112,9.4112,9.4112,9.4112,9.4112,9.4112,9.5296,9.6649,9.6382,9.53,9.4135,9.3881,9.2323,9.0929,9.1723,9.1026,9.0046,8.9797,8.8926,8.803,8.7495,8.7295,8.713,8.687,8.7796,8.6948,8.1807,8.4419,8.4087,7.5395,7.8817,8.0314,7.5278,7.5572,7.7443,8.0791,7.624,0.0,0.0,0.0,0.0,0.0,0.0,0.0,8.2178,8.0872,8.3633,9.1172,8.6601,8.7388,9.3474,9.3217,9.3814,9.5144,9.6208,9.6685,9.6685,9.6685,9.6685,9.6685,9.6685,9.6685,9.6685,9.6685,9.6685,9.6685,9.6685,9.6685,9.6593,9.1001,9.1013,9.048,8.9445,8.9518,8.9699,8.9699,8.8658,8.81,8.8631,8.7631,8.7139,8.7895,8.7316,8.7689,8.9832,8.9996,9.0117,9.0424,9.0434,9.0216,8.9735,8.989,9.034,9.1089,9.1135,9.1507,9.2281,9.0078,8.8729,8.828,9.0289,9.1244,9.128,9.2281,9.2471,9.2101,9.346,9.4061,9.4022,9.3539,9.3638,9.399,9.3201,9.2908,9.2908,9.2908,9.2908,9.2908,9.2908,9.2908,9.2908,9.2908,9.4001,9.5265,9.5265,9.4359,9.3351,9.3351,9.2055,9.0815,9.1319,9.0694,8.983,8.9311,8.823,8.7242,8.698,8.7087,8.7059,8.6451,8.7308,8.6982,8.3455,8.6439,8.6821,8.0005,8.2989,8.3846,7.8479,7.9168,8.1114,8.3866,8.093,7.9058,0.0,0.0,0.0,0.0,0.0,8.0539,8.4635,8.4556,8.7105,9.2707,8.8414,8.8689,9.3547,9.3842,9.4703,9.5975,9.6473,9.6685,9.6685,9.6685,9.6685,9.6685,9.6685,9.6685,9.6685,9.6685,9.6685,9.6685,9.6685,9.6685,9.6593,8.8393,8.7696,8.7152,8.7081,8.7694,8.8201,8.8201,8.7198,8.6402,8.6402,8.5356,8.462,8.4726,8.4726,8.6078,8.9464,8.9734,8.9316,8.8268,8.8279,8.8279,8.8201,8.756,8.8085,8.9899,8.9955,9.0931,9.291,9.3689,9.4055,9.4055,9.4055,9.4055,9.4055,9.4092,9.3465,9.2411,9.3224,9.2882,9.1847,9.2507,9.2778,9.2766,9.2671,9.2647,9.2647,9.2647,9.2647,9.2647,9.2647,9.2647,9.2647,9.2647,9.2647,9.2671,9.2849,9.2837,9.2778,9.2778,9.184,9.0867,9.0867,8.9989,8.8917,8.8226,8.7516,8.6758,8.6108,8.679,8.7094,8.5536,8.6242,8.7018,8.6877,8.7966,8.7673,8.4451,8.8279,8.8362,8.0241,8.2517,8.46,8.4197,8.416,8.4042,8.3748,0.0,0.0,8.5368,8.3361,8.2051,8.2006,8.2693,8.4855,8.8682,8.797,8.988,9.4457,9.5171,9.5929,9.6685,9.6685,9.6685,9.6685,9.6685,9.6685,9.6685,9.6685,9.6685,9.6685,9.6685,9.6685,9.6685,9.6685,9.6685,9.6602,8.9329,8.9025,8.8695,8.8024,8.8083,8.8201,8.8201,8.7198,8.6402,8.6402,8.5356,8.4956,8.5887,8.5965,8.6316,8.7163,8.7246,8.7527,8.8156,8.9046,8.9189,8.8315,8.8935,8.9377,8.9614,8.9638,9.0127,9.1201,9.1347,9.1396,9.1396,9.1396,9.1396,9.1432,9.205,9.2132,9.1932,9.2713,9.2882,9.2554,9.177,9.1461,9.1347,9.0376,8.9995,8.9995,8.9995,8.9995,8.9995,8.9995,8.9995,8.9995,8.9995,8.9995,9.0389,9.2321,9.22,9.1461,9.1461,9.0521,8.9546,8.9546,8.9317,8.9052,8.8883,8.826,8.7685,8.7516,8.7267,8.6783,8.583,8.6632,8.7059,8.5817,8.7395,8.7673,8.4451,8.5336,8.6224,8.5967,8.6215,8.783,9.1363,9.173,9.0445,8.7288,9.0004,8.9229,8.3363,8.9376,9.2702,9.21,9.1655,9.2193,9.3758,9.3593,9.4384,9.6128,9.5691,9.5929,9.6685,9.6685,9.6685,9.6685,9.6685,9.6685,9.6685,9.6685,9.6685,9.6685,9.6685,9.6685,9.6685,9.6685,9.6685,9.6676,8.7913,8.7512,8.7118,8.663,8.6549,8.6549,8.6549,8.599,8.5592,8.5592,8.4988,8.4838,8.5502,8.5592,8.5592,8.5592,8.609,8.6451,8.6549,8.7175,8.7269,8.6644,8.7548,8.8252,8.8626,8.9304,9.0328,9.1633,9.1599,9.1587,9.1587,9.1587,9.1587,9.1622,9.2059,9.1939,9.1406,9.1863,9.1703,9.1104,9.0402,9.013,9.0049,8.9359,8.9086,8.9086,8.9086,8.9086,8.9086,8.9086,8.9086,8.9086,8.9086,8.9086,8.9373,9.0763,9.0671,9.013,9.013,8.9628,8.9086,8.9086,8.9086,8.9086,8.9086,8.8781,8.8409,8.8057,8.7685,8.7177,8.6433,8.6848,8.6992,8.611,8.6114,8.5578,8.3823,8.5066,8.6493,8.7441,8.9523,9.1794,9.4088,9.4309,9.3391,9.1143,9.205,9.1409,8.8425,9.2195,9.3906,9.2756,9.4474,9.5592,9.604,9.6396,9.6816,9.7267,9.7184,9.7386,9.7765,9.7433,9.7267,9.722,9.6851,9.6685,9.6685,9.6685,9.6685,9.6685,9.6685,9.6685,9.6685,9.6685,9.6685,9.6685,8.5693,8.508,8.4614,8.4614,8.4614,8.4614,8.4614,8.4614,8.4614,8.4614,8.4614,8.4614,8.4614,8.4614,8.4614,8.4614,8.554,8.5684,8.466,8.4881,8.4907,8.4627,8.5552,8.6474,8.731,8.8824,9.0449,9.2158,9.2263,9.2321,9.2321,9.2321,9.2321,9.2321,9.2321,9.1728,9.0697,9.0697,9.0076,8.9086,8.9086,8.9086,8.9086,8.9086,8.9086,8.9086,8.9086,8.9086,8.9086,8.9086,8.9086,8.9086,8.9086,8.9086,8.9086,8.9086,8.9086,8.9086,8.9086,8.9086,8.9086,8.9086,8.9086,8.9086,8.9086,8.9086,8.8917,8.8308,8.8158,8.7955,8.7347,8.7231,8.7097,8.6698,8.483,8.3332,8.2975,8.5788,8.7755,8.7495,9.2232,9.543,9.5061,9.4997,9.4997,9.4997,9.2439,9.2117,9.4967,9.3719,9.2014,9.001,9.4564,9.7108,9.7253,9.7815,9.8147,9.8251,9.8833,9.9083,9.9083,9.838,9.8077,9.8051,9.735,9.7054,9.7054,9.6934,9.6934,9.7054,9.6934,9.6971,9.7054,9.7054,9.7054,9.7054,8.4802,8.4695,8.4614,8.4614,8.4614,8.4614,8.4614,8.4614,8.4614,8.4614,8.4614,8.4614,8.4614,8.4614,8.4614,8.4614,8.4779,8.4785,8.4593,8.6204,8.6388,8.4667,8.6333,8.6925,8.6085,8.7519,8.8457,8.8742,8.939,8.9676,8.9676,8.9676,8.9676,8.9676,8.9676,8.9573,8.94,8.94,8.9261,8.9086,8.9086,8.9086,8.9086,8.9086,8.9086,8.9086,8.9086,8.9086,8.9086,8.9086,8.9086,8.9086,8.9086,8.9086,8.9086,8.9086,8.9086,8.9086,8.9086,8.9086,8.9086,8.9086,8.9086,8.9086,8.9086,8.9086,8.9052,8.8951,8.8917,8.8883,8.8781,8.8748,8.8028,8.5748,8.5131,8.4296,8.244,8.5078,8.8025,9.0167,9.3637,9.6494,9.8202,9.8364,9.8364,9.8364,9.7902,9.638,9.3611,9.6331,9.6282,9.2648,9.6538,9.9051,9.9733,9.9173,9.9256,9.9936,9.9363,9.9103,9.9103,9.8983,9.8922,9.892,9.88,9.8716,9.867,9.7968,9.8098,9.867,9.7968,9.8134,9.8716,9.8716,9.8716,9.8716,8.5317,8.5249,8.5114,8.4681,8.4614,8.4614,8.4614,8.4614,8.4614,8.4614,8.4614,8.4614,8.4614,8.4614,8.4614,8.4614,8.4614,8.4614,8.4614,8.5881,8.6232,8.5276,8.6882,8.774,8.7577,8.824,8.8578,8.8578,8.8917,8.9086,8.9086,8.9086,8.9086,8.9086,8.9086,8.9086,8.9086,8.9086,8.9086,8.9086,8.9086,8.9086,8.9086,8.9086,8.9086,8.9086,8.9086,8.9086,8.9086,8.9086,8.9086,8.9086,8.9086,8.9086,8.9086,8.9086,8.9086,8.9086,8.9086,8.9086,8.9086,8.9086,8.9086,8.9086,8.9086,8.9086,8.9086,8.9086,8.9086,8.9221,8.9613,8.9681,8.8779,8.5944,8.5545,8.4516,8.1452,8.4715,8.789,8.9116,9.3587,9.6928,9.7943,9.8686,9.9098,9.9098,9.9098,9.8286,9.6441,9.8489,9.8882,9.7047,9.8799,10.0082,10.0893,10.0596,10.0596,10.0883,10.0596,10.0383,10.0383,9.9929,9.9743,9.9718,9.9301,9.9088,9.9052,9.8719,9.8773,9.9067,9.8677,9.8755,9.9088,9.9088,9.9088,9.9088,8.6176,8.6075,8.5858,8.5222,8.4999,8.4898,8.4898,8.4715,8.4614,8.4614,8.4614,8.4614,8.4614,8.4614,8.4614,8.4614,8.4614,8.4614,8.4614,8.5351,8.5736,8.5533,8.6771,8.7766,8.8308,8.868,8.8849,8.8849,8.9018,8.9086,8.9086,8.9086,8.9086,8.9086,8.9086,8.9086,8.9086,8.9086,8.9086,8.9086,8.9086,8.9086,8.9086,8.9086,8.9086,8.9086,8.9086,8.9086,8.9086,8.9086,8.9086,8.9086,8.9086,8.9086,8.9086,8.9086,8.9086,8.9086,8.9086,8.9086,8.9086,8.9086,8.9086,8.9086,8.9086,8.9086,8.9086,8.9086,8.9086,8.9323,9.0053,9.0208,8.9325,8.6608,8.6115,8.5119,8.2475,8.5377,8.8211,8.9359,9.3779,9.6854,9.7151,9.8393,9.9194,9.9194,9.9473,9.9649,9.9649,10.0182,10.0589,10.0602,10.0593,10.0883,10.1504,10.1504,10.1504,10.1504,10.1504,10.1504,10.1504,10.0883,10.0596,10.0513,9.9929,9.9679,9.9632,9.9466,9.9499,9.9625,9.9466,9.9476,9.9679,9.9679,9.9679,9.9679,8.6825,8.6825,8.6792,8.6724,8.6163,8.5702,8.5702,8.5067,8.4614,8.4614,8.4614,8.4614,8.4614,8.4614,8.4614,8.4614,8.4614,8.4614,8.4614,8.5351,8.5466,8.4715,8.552,8.5973,8.6041,8.7394,8.8091,8.8091,8.8781,8.9086,8.9086,8.9086,8.9086,8.9086,8.9086,8.9086,8.9086,8.9086,8.9086,8.9086,8.9086,8.9086,8.9086,8.9086,8.9086,8.9086,8.9086,8.9086,8.9086,8.9086,8.9086,8.9086,8.9086,8.9086,8.9086,8.9086,8.9086,8.9086,8.9086,8.9086,8.9086,8.9086,8.9086,8.9086,8.9086,8.9086,8.9086,8.9086,8.9086,8.9323,9.0053,9.0208,8.9522,8.7521,8.6975,8.705,8.7685,8.7894,8.9697,9.4381,9.5355,9.6109,9.7369,9.8688,9.9487,9.9487,10.0589,10.1284,10.1284,10.1394,10.1394,10.1404,10.1394,10.1384,10.1504,10.1504,10.1504,10.1504,10.1504,10.1504,10.1504,10.1384,10.1384,10.1384,10.13,10.13,10.13,10.0513,10.07,10.122,10.0486,10.0716,10.13,10.13,10.13,10.13,8.7685,8.7583,8.7448,8.6961,8.667,8.6467,8.6467,8.5824,8.5351,8.5351,8.4898,8.4614,8.4614,8.4614,8.4614,8.4614,8.4614,8.4614,8.4614,8.4898,8.5337,8.6014,8.6332,8.6467,8.6467,8.7042,8.7313,8.7313,8.8057,8.8409,8.8443,8.8883,8.9086,8.9086,8.9086,8.9086,8.9086,8.9086,8.9086,8.9086,8.9086,8.9086,8.9086,8.9086,8.9086,8.9086,8.9086,8.9086,8.9086,8.9086,8.9086,8.9086,8.9086,8.9086,8.9086,8.9086,8.9086,8.9086,8.9086,8.9086,8.9086,8.9086,8.9086,8.9086,8.9086,8.9086,8.9086,8.9086,8.9086,8.9323,9.0053,9.0208,8.9347,8.6801,8.8584,8.9652,8.7741,8.9772,9.2178,9.4078,9.4634,9.52,9.6183,9.7074,9.7766,9.8241,9.9497,10.0289,10.0289,10.099,10.1504,10.1504,10.1504,10.1504,10.1504,10.1504,10.1504,10.1504,10.1504,10.1504,10.1504,10.1504,10.1504,10.1504,10.1504,10.1504,10.1504,10.1217,10.1217,10.1504,10.1217,10.1217,10.1504,10.1504,10.1504,10.1504,8.8443,8.8342,8.8206,8.7685,8.7414,8.7231,8.7231,8.6399,8.5804,8.5804,8.51,8.4614,8.4614,8.4614,8.4614,8.4614,8.4614,8.4614,8.4614,8.4614,8.5053,8.6149,8.6183,8.6183,8.6183,8.642,8.6569,8.6569,8.7279,8.7786,8.8023,8.8511,8.8883,8.9086,8.9086,8.9086,8.9086,8.9086,8.9086,8.9086,8.9086,8.9086,8.9086,8.9086,8.9086,8.9086,8.9086,8.9086,8.9086,8.9086,8.9086,8.9086,8.9086,8.9086,8.9086,8.9086,8.9086,8.9086,8.9086,8.9086,8.9086,8.9086,8.9086,8.9086,8.9086,8.9086,8.9086,8.9086,8.9086,8.9255,8.9748,8.985,8.9173,8.7157,8.9579,9.0817,8.828,9.0797,9.2875,9.2875,9.3195,9.3718,9.4461,9.5066,9.5817,9.6787,9.83,9.9423,10.0112,10.0986,10.1504,10.1504,10.1504,10.1504,10.1504,10.1504,10.1504,10.1504,10.1504,10.1504,10.1504,10.1504,10.1504,10.1504,10.1504,10.1504,10.1504,10.1504,10.1504,10.1504,10.1504,10.1504,10.1504,10.1504,10.1504,10.1504,8.9086,8.9086,8.9086,8.9086,8.8511,8.7989,8.7989,8.6751,8.5804,8.5804,8.51,8.4614,8.4614,8.4614,8.4614,8.4614,8.4614,8.4614,8.4614,8.4614,8.4614,8.4614,8.4614,8.4614,8.4614,8.5384,8.5804,8.5804,8.6535,8.7279,8.7989,8.7989,8.8409,8.9086,8.9086,8.9086,8.9086,8.9086,8.9086,8.9086,8.9086,8.9086,8.9086,8.9086,8.9086,8.9086,8.9086,8.9086,8.9086,8.9086,8.9086,8.9086,8.9086,8.9086,8.9086,8.9086,8.9086,8.9086,8.9086,8.9086,8.9086,8.9086,8.9086,8.9086,8.9086,8.9086,8.9086,8.9086,8.9086,8.9086,8.9086,8.9086,8.9086,8.9086,8.9715,9.0208,9.0208,9.0831,9.1305,9.1305,9.1271,9.1575,9.2339,9.2942,9.3864,9.534,9.7277,9.9288,10.1417,10.1504,10.1504,10.1504,10.1504,10.1504,10.1504,10.1504,10.1504,10.1504,10.1504,10.1504,10.1504,10.1504,10.1504,10.1504,10.1504,10.1504,10.1504,10.1504,10.1504,10.1504,10.1504,10.1504,10.1504,10.1504,10.1504,10.1504,8.9086,8.9086,8.9086,8.9086,8.8917,8.8781,8.8781,8.7516,8.6569,8.6569,8.5405,8.4614,8.4614,8.4614,8.4614,8.4614,8.4614,8.4614,8.4614,8.4614,8.4614,8.4614,8.4614,8.4614,8.4614,8.483,8.4965,8.4965,8.5723,8.6244,8.6481,8.7529,8.8139,8.8342,8.8883,8.9086,8.9086,8.9086,8.9086,8.9086,8.9086,8.9086,8.9086,8.9086,8.9086,8.9086,8.9086,8.9086,8.9086,8.9086,8.9086,8.9086,8.9086,8.9086,8.9086,8.9086,8.9086,8.9086,8.9086,8.9086,8.9086,8.9086,8.9086,8.9086,8.9086,8.9086,8.9086,8.9086,8.9086,8.9086,8.9086,8.9086,8.9086,8.9086,8.9715,9.0208,9.0208,9.0831,9.1305,9.1305,9.0831,9.0831,9.1575,9.1311,9.151,9.2478,9.4799,9.7729,10.1303,10.099,10.0907,10.1514,10.1504,10.1504,10.1504,10.1504,10.1504,10.1504,10.1504,10.1504,10.1504,10.1504,10.1504,10.1504,10.1504,10.1504,10.1504,10.1504,10.1504,10.1504,10.1504,10.1504,10.1504,10.1504,10.1504,10.1504,8.9086,8.9086,8.9086,8.9086,8.9086,8.8984,8.8714,8.7651,8.6792,8.6501,8.5371,8.4614,8.4614,8.4614,8.4614,8.4614,8.4614,8.4614,8.4614,8.4614,8.4614,8.4614,8.4614,8.4614,8.4614,8.4614,8.4614,8.4614,8.508,8.5499,8.5804,8.6717,8.7448,8.8023,8.8477,8.8815,8.9086,8.9086,8.9086,8.9086,8.9086,8.9086,8.9086,8.9086,8.9086,8.9086,8.9086,8.9086,8.9086,8.9086,8.9086,8.9086,8.9086,8.9086,8.9086,8.9086,8.9086,8.9086,8.9086,8.9086,8.9086,8.9086,8.9086,8.9086,8.9086,8.9086,8.9086,8.9086,8.9086,8.9086,8.9086,8.9086,8.9086,8.9086,8.9478,8.9748,8.9748,9.0169,9.0439,9.0439,9.0019,9.0053,9.0797,9.0188,9.0273,9.1568,9.3395,9.5898,9.9302,9.954,9.99,10.0706,10.1217,10.1504,10.1504,10.1504,10.1504,10.1504,10.1504,10.1504,10.1504,10.1504,10.1504,10.1504,10.1504,10.1504,10.1504,10.1504,10.1504,10.1504,10.1504,10.1504,10.1504,10.1504,10.1504,10.1504,8.9086,8.9086,8.9086,8.9086,8.9086,8.8849,8.8091,8.7367,8.6636,8.5905,8.51,8.4614,8.4614,8.4614,8.4614,8.4614,8.4614,8.4614,8.4614,8.4614,8.4614,8.4614,8.4614,8.4614,8.4614,8.4614,8.4614,8.4614,8.4614,8.4965,8.5702,8.577,8.6514,8.782,8.7854,8.826,8.8917,8.8984,8.8984,8.9018,8.9052,8.9086,8.9086,8.9086,8.9086,8.9086,8.9086,8.9086,8.9086,8.9086,8.9086,8.9086,8.9086,8.9086,8.9086,8.9086,8.9086,8.9086,8.9086,8.9086,8.9086,8.9086,8.9086,8.9086,8.9086,8.9086,8.9086,8.9086,8.9086,8.9086,8.9086,8.9086,8.9086,8.9086,8.9086,8.9086,8.9086,8.9086,8.9086,8.9086,8.9086,8.9357,9.0053,8.9492,8.9962,9.2036,9.2773,9.4033,9.6177,9.7564,9.8621,9.9361,10.0796,10.1504,10.1504,10.1504,10.1504,10.1504,10.1504,10.1504,10.1504,10.1504,10.1504,10.1504,10.1504,10.1504,10.1504,10.1504,10.1504,10.1504,10.1504,10.1504,10.1504,10.1504,10.1504,10.1504,8.9086,8.9086,8.9086,8.9086,8.9086,8.8849,8.8091,8.7367,8.6636,8.5905,8.51,8.4614,8.4614,8.4614,8.4614,8.4614,8.4614,8.4614,8.4614,8.4614,8.4614,8.4614,8.4614,8.4614,8.4614,8.4614,8.4614,8.4614,8.4614,8.4695,8.4864,8.5499,8.5973,8.6311,8.6873,8.7231,8.7414,8.7989,8.8226,8.8294,8.8883,8.9086,8.9086,8.9086,8.9086,8.9086,8.9086,8.9086,8.9086,8.9086,8.9086,8.9086,8.9086,8.9086,8.9086,8.9086,8.9086,8.9086,8.9086,8.9086,8.9086,8.9086,8.9086,8.9086,8.9086,8.9086,8.9086,8.9086,8.9086,8.9086,8.9086,8.9086,8.9086,8.9086,8.9086,8.9086,8.9086,8.9086,8.9086,8.9086,8.9086,8.9154,8.9323,8.9187,8.9962,9.2036,9.1741,9.2659,9.5387,9.675,9.781,9.8596,10.0506,10.1504,10.1504,10.1504,10.1504,10.1504,10.1504,10.1504,10.1504,10.1504,10.1504,10.1504,10.1504,10.1504,10.1504,10.1504,10.1504,10.1504,10.1504,10.1504,10.1504,10.1504,10.1504,10.1504,8.9086,8.9086,8.9086,8.9086,8.9086,8.8748,8.7651,8.713,8.6487,8.5384,8.4864,8.4614,8.4614,8.4614,8.4614,8.4614,8.4614,8.4614,8.4614,8.4614,8.4614,8.4614,8.4614,8.4614,8.4614,8.4614,8.4614,8.4614,8.4614,8.4614,8.4614,8.5033,8.5418,8.5804,8.6196,8.6771,8.7448,8.7854,8.8192,8.8545,8.8951,8.9086,8.9086,8.9086,8.9086,8.9086,8.9086,8.9086,8.9086,8.9086,8.9086,8.9086,8.9086,8.9086,8.9086,8.9086,8.9086,8.9086,8.9086,8.9086,8.9086,8.9086,8.9086,8.9086,8.9086,8.9086,8.9086,8.9086,8.9086,8.9086,8.9086,8.9086,8.9086,8.9086,8.9086,8.9086,8.9086,8.9086,8.9086,8.9086,8.9086,8.9086,8.9086,8.9086,8.9556,9.0638,9.0343,9.1056,9.3276,9.5234,9.6808,9.7918,10.03,10.1504,10.1504,10.1504,10.1504,10.1504,10.1504,10.1504,10.1504,10.1504,10.1504,10.1504,10.1504,10.1504,10.1504,10.1504,10.1504,10.1504,10.1504,10.1504,10.1504,10.1504,10.1504,10.1504,8.9086,8.9086,8.9086,8.9086,8.8984,8.8477,8.7096,8.6792,8.6217,8.4783,8.4614,8.4614,8.4614,8.4614,8.4614,8.4614,8.4614,8.4614,8.4614,8.4614,8.4614,8.4614,8.4614,8.4614,8.4614,8.4614,8.4614,8.4614,8.4614,8.4614,8.4614,8.4614,8.4965,8.5587,8.5587,8.6264,8.7448,8.7685,8.8158,8.8748,8.8984,8.9086,8.9086,8.9086,8.9086,8.9086,8.9086,8.9086,8.9086,8.9086,8.9086,8.9086,8.9086,8.9086,8.9086,8.9086,8.9086,8.9086,8.9086,8.9086,8.9086,8.9086,8.9086,8.9086,8.9086,8.9086,8.9086,8.9086,8.9086,8.9086,8.9086,8.9086,8.9086,8.9086,8.9086,8.9086,8.9086,8.9086,8.9086,8.9086,8.9086,8.9086,8.9086,8.9086,8.9086,8.9086,8.9086,8.9627,9.0879,9.3588,9.5718,9.7086,9.9832,10.1404,10.1504,10.1504,10.1504,10.1504,10.1504,10.1504,10.1504,10.1504,10.1504,10.1504,10.1504,10.1504,10.1504,10.1504,10.1504,10.1504,10.1504,10.1504,10.1504,10.1504,10.1504,10.1504,8.9086,8.9086,8.9086,8.9086,8.8578,8.7854,8.7028,8.6366,8.5621,8.4715,8.4614,8.4614,8.4614,8.4614,8.4614,8.4614,8.4614,8.4614,8.4614,8.4614,8.4614,8.4614,8.4614,8.4614,8.4614,8.4614,8.4614,8.4614,8.4614,8.4614,8.4614,8.4614,8.4647,8.4762,8.4762,8.485,8.5155,8.6487,8.7096,8.7313,8.8578,8.9086,8.9086,8.9086,8.9086,8.9086,8.9086,8.9086,8.9086,8.9086,8.9086,8.9086,8.9086,8.9086,8.9086,8.9086,8.9086,8.9086,8.9086,8.9086,8.9086,8.9086,8.9086,8.9086,8.9086,8.9086,8.9086,8.9086,8.9086,8.9086,8.9086,8.9086,8.9086,8.9086,8.9086,8.9086,8.9086,8.9086,8.9086,8.9086,8.9086,8.9086,8.9086,8.9086,8.9086,8.9086,8.9086,8.9187,8.939,9.2481,9.4679,9.5553,9.8739,10.079,10.1504,10.1504,10.1504,10.1504,10.1504,10.1504,10.1504,10.1504,10.1504,10.1504,10.1504,10.1504,10.1504,10.1504,10.1504,10.1504,10.1504,10.1504,10.1504,10.1504,10.1504,10.1504,8.9086,8.9086,8.9086,8.9086,8.8511,8.7753,8.6995,8.6264,8.552,8.4728,8.4614,8.4614,8.4614,8.4614,8.4614,8.4614,8.4614,8.4614,8.4614,8.4614,8.4614,8.4614,8.4614,8.4614,8.4614,8.4614,8.4614,8.4614,8.4614,8.4614,8.4614,8.4614,8.4614,8.4614,8.4614,8.4864,8.5317,8.5993,8.6771,8.7583,8.8226,8.8748,8.9086,8.9086,8.9086,8.9086,8.9086,8.9086,8.9086,8.9086,8.9086,8.9086,8.9086,8.9086,8.9086,8.9086,8.9086,8.9086,8.9086,8.9086,8.9086,8.9086,8.9086,8.9086,8.9086,8.9086,8.9086,8.9086,8.9086,8.9086,8.9086,8.9086,8.9086,8.9086,8.9086,8.9086,8.9086,8.9086,8.9086,8.9086,8.9086,8.9086,8.9086,8.9086,8.9086,8.9086,8.9086,8.9289,8.9681,9.2216,9.4343,9.5883,9.8492,10.0412,10.1504,10.1504,10.1504,10.1504,10.1504,10.1504,10.1504,10.1504,10.1504,10.1504,10.1504,10.1504,10.1504,10.1504,10.1504,10.1504,10.1504,10.1504,10.1504,10.1504,10.1504,10.1504]},{"header":{"parameterUnit":"m.s-1","parameterCategory":1,"la1":30.6,"la2":28.766,"lo1":-90.7593,"lo2":-88.6598,"dx":0.0162,"dy":0.0183,"nx":116,"ny":114,"refTime":"2022-11-11T06:00:00:Z","depth":0,"parameterNumber":3,"parameterNumberName":"V-component_of_WINDS"},"data":[0.0,0.0,0.0,0.0,0.0,0.0,0.0,0.0,0.0,0.0,0.0,0.0,0.0,0.0,0.0,0.0,0.0,0.0,0.0,0.0,0.0,0.0,0.0,0.0,0.0,0.0,0.0,0.0,0.0,0.0,0.0,0.0,0.0,0.0,0.0,0.0,0.0,0.0,0.0,0.0,0.0,0.0,0.0,0.0,0.0,0.0,0.0,0.0,0.0,0.0,0.0,0.0,0.0,0.0,0.0,0.0,0.0,0.0,0.0,0.0,0.0,0.0,0.0,0.0,0.0,0.0,0.0,0.0,0.0,0.0,0.0,0.0,0.0,0.0,0.0,0.0,0.0,0.0,0.0,0.0,0.0,0.0,0.0,0.0,0.0,0.0,0.0,0.0,0.0,0.0,0.0,0.0,0.0,0.0,0.0,0.0,0.0,0.0,0.0,0.0,0.0,0.0,0.0,0.0,0.0,0.0,0.0,0.0,0.0,0.0,0.0,0.0,0.0,0.0,0.0,0.0,0.0,0.0,0.0,0.0,0.0,0.0,0.0,0.0,0.0,0.0,0.0,0.0,0.0,0.0,0.0,0.0,0.0,0.0,0.0,0.0,0.0,0.0,0.0,0.0,0.0,0.0,0.0,0.0,0.0,0.0,0.0,0.0,0.0,0.0,0.0,0.0,0.0,0.0,0.0,0.0,0.0,0.0,0.0,0.0,0.0,0.0,0.0,0.0,0.0,0.0,0.0,0.0,0.0,0.0,0.0,0.0,0.0,0.0,0.0,0.0,0.0,0.0,0.0,0.0,0.0,0.0,0.0,0.0,0.0,0.0,0.0,0.0,0.0,0.0,0.0,0.0,0.0,0.0,0.0,0.0,0.0,0.0,0.0,0.0,0.0,0.0,0.0,0.0,0.0,0.0,0.0,0.0,0.0,0.0,0.0,0.0,0.0,0.0,0.0,0.0,0.0,0.0,0.0,0.0,0.0,0.0,0.0,0.0,0.0,0.0,0.0,0.0,0.0,0.0,0.0,0.0,0.0,0.0,0.0,0.0,0.0,0.0,0.0,0.0,0.0,0.0,0.0,0.0,0.0,0.0,0.0,0.0,0.0,0.0,0.0,0.0,0.0,0.0,0.0,0.0,0.0,0.0,0.0,0.0,0.0,0.0,0.0,0.0,0.0,0.0,0.0,0.0,0.0,0.0,0.0,0.0,0.0,0.0,0.0,0.0,0.0,0.0,0.0,0.0,0.0,0.0,0.0,0.0,0.0,0.0,0.0,0.0,0.0,0.0,0.0,0.0,0.0,0.0,0.0,0.0,0.0,0.0,0.0,0.0,0.0,0.0,0.0,0.0,0.0,0.0,0.0,0.0,0.0,0.0,0.0,0.0,0.0,0.0,0.0,0.0,0.0,0.0,0.0,0.0,0.0,0.0,0.0,0.0,0.0,0.0,0.0,0.0,0.0,0.0,0.0,0.0,0.0,0.0,0.0,0.0,0.0,0.0,0.0,0.0,0.0,0.0,0.0,0.0,0.0,0.0,0.0,0.0,0.0,0.0,0.0,0.0,0.0,0.0,0.0,0.0,0.0,0.0,0.0,0.0,0.0,0.0,0.0,0.0,0.0,0.0,0.0,0.0,0.0,0.0,0.0,0.0,0.0,0.0,0.0,0.0,0.0,0.0,0.0,0.0,0.0,0.0,0.0,0.0,0.0,0.0,0.0,0.0,0.0,0.0,0.0,0.0,0.0,0.0,0.0,0.0,0.0,0.0,0.0,0.0,0.0,0.0,0.0,0.0,0.0,0.0,0.0,0.0,0.0,0.0,0.0,0.0,0.0,0.0,0.0,0.0,0.0,0.0,0.0,0.0,0.0,0.0,0.0,0.0,0.0,0.0,0.0,0.0,0.0,0.0,0.0,0.0,0.0,0.0,0.0,0.0,0.0,0.0,0.0,0.0,0.0,0.0,0.0,0.0,0.0,0.0,0.0,0.0,0.0,0.0,0.0,0.0,0.0,0.0,0.0,0.0,0.0,0.0,0.0,0.0,0.0,0.0,0.0,0.0,0.0,0.0,0.0,0.0,0.0,0.0,0.0,0.0,0.0,0.0,0.0,0.0,0.0,0.0,0.0,0.0,0.0,0.0,0.0,0.0,0.0,0.0,0.0,0.0,0.0,0.0,0.0,0.0,0.0,0.0,0.0,0.0,0.0,0.0,0.0,0.0,0.0,0.0,0.0,0.0,0.0,0.0,0.0,0.0,0.0,0.0,0.0,0.0,0.0,0.0,0.0,0.0,0.0,0.0,0.0,0.0,0.0,0.0,0.0,0.0,0.0,0.0,0.0,0.0,0.0,0.0,0.0,0.0,0.0,0.0,0.0,0.0,0.0,0.0,0.0,0.0,0.0,0.0,0.0,0.0,0.0,0.0,0.0,0.0,0.0,0.0,0.0,0.0,0.0,0.0,0.0,0.0,0.0,0.0,0.0,0.0,0.0,0.0,0.0,0.0,0.0,0.0,0.0,0.0,0.0,0.0,0.0,0.0,0.0,0.0,0.0,0.0,0.0,0.0,0.0,0.0,0.0,0.0,0.0,0.0,0.0,0.0,0.0,0.0,0.0,0.0,0.0,0.0,0.0,0.0,0.0,0.0,0.0,0.0,0.0,0.0,0.0,0.0,0.0,0.0,0.0,0.0,0.0,0.0,0.0,0.0,0.0,0.0,0.0,0.0,0.0,0.0,0.0,0.0,0.0,0.0,0.0,0.0,0.0,0.0,0.0,0.0,0.0,0.0,0.0,0.0,0.0,0.0,0.0,0.0,0.0,0.0,0.0,0.0,0.0,0.0,0.0,0.0,0.0,0.0,0.0,0.0,0.0,0.0,0.0,0.0,0.0,0.0,0.0,0.0,0.0,0.0,0.0,0.0,0.0,0.0,0.0,0.0,0.0,0.0,0.0,0.0,0.0,0.0,0.0,0.0,0.0,0.0,0.0,0.0,0.0,0.0,0.0,0.0,0.0,0.0,0.0,0.0,0.0,0.0,0.0,0.0,0.0,0.0,0.0,0.0,0.0,0.0,0.0,0.0,0.0,0.0,0.0,0.0,0.0,0.0,0.0,0.0,0.0,0.0,0.0,0.0,0.0,0.0,0.0,0.0,0.0,0.0,0.0,0.0,0.0,0.0,0.0,0.0,0.0,0.0,0.0,0.0,0.0,0.0,0.0,0.0,0.0,0.0,0.0,0.0,0.0,0.0,0.0,0.0,0.0,0.0,0.0,0.0,0.0,0.0,0.0,0.0,0.0,0.0,0.0,0.0,0.0,0.0,0.0,0.0,0.0,0.0,0.0,0.0,0.0,0.0,0.0,0.0,0.0,0.0,0.0,0.0,0.0,0.0,0.0,0.0,0.0,0.0,0.0,0.0,0.0,0.0,0.0,0.0,0.0,0.0,0.0,0.0,0.0,0.0,0.0,0.0,0.0,0.0,0.0,0.0,0.0,0.0,0.0,0.0,0.0,0.0,0.0,0.0,0.0,0.0,0.0,0.0,0.0,0.0,0.0,0.0,0.0,0.0,0.0,0.0,0.0,0.0,0.0,0.0,0.0,0.0,0.0,0.0,0.0,0.0,0.0,0.0,0.0,0.0,0.0,0.0,0.0,0.0,0.0,0.0,0.0,0.0,0.0,0.0,0.0,0.0,0.0,0.0,0.0,0.0,0.0,0.0,0.0,0.0,0.0,0.0,0.0,0.0,0.0,0.0,0.0,0.0,0.0,0.0,0.0,0.0,0.0,0.0,0.0,0.0,0.0,0.0,0.0,0.0,0.0,0.0,0.0,0.0,0.0,0.0,0.0,0.0,0.0,0.0,0.0,0.0,0.0,0.0,0.0,0.0,0.0,0.0,0.0,0.0,0.0,0.0,0.0,0.0,0.0,0.0,0.0,0.0,0.0,0.0,0.0,0.0,0.0,0.0,0.0,0.0,0.0,0.0,0.0,0.0,0.0,0.0,0.0,0.0,0.0,0.0,0.0,0.0,0.0,0.0,0.0,0.0,0.0,0.0,0.0,0.0,0.0,0.0,0.0,0.0,0.0,0.0,0.0,0.0,0.0,0.0,0.0,0.0,0.0,0.0,0.0,0.0,0.0,0.0,0.0,0.0,0.0,0.0,0.0,0.0,0.0,0.0,0.0,0.0,0.0,0.0,0.0,0.0,0.0,0.0,0.0,0.0,0.0,0.0,0.0,0.0,0.0,0.0,0.0,0.0,0.0,0.0,0.0,0.0,0.0,0.0,0.0,0.0,0.0,0.0,0.0,0.0,0.0,0.0,0.0,0.0,0.0,0.0,0.0,0.0,0.0,0.0,0.0,0.0,0.0,0.0,0.0,0.0,0.0,0.0,0.0,0.0,0.0,0.0,0.0,0.0,0.0,0.0,0.0,0.0,0.0,0.0,0.0,0.0,0.0,0.0,0.0,0.0,0.0,0.0,0.0,0.0,0.0,0.0,0.0,0.0,0.0,0.0,0.0,0.0,0.0,0.0,0.0,0.0,0.0,0.0,0.0,0.0,0.0,0.0,0.0,0.0,0.0,0.0,0.0,0.0,0.0,0.0,0.0,0.0,0.0,0.0,0.0,0.0,0.0,0.0,0.0,0.0,0.0,0.0,0.0,0.0,0.0,0.0,0.0,0.0,0.0,0.0,0.0,0.0,0.0,0.0,0.0,0.0,0.0,0.0,0.0,0.0,0.0,0.0,0.0,0.0,0.0,0.0,0.0,0.0,0.0,0.0,0.0,0.0,0.0,0.0,0.0,0.0,0.0,0.0,0.0,0.0,0.0,0.0,0.0,0.0,0.0,0.0,0.0,0.0,0.0,0.0,0.0,0.0,0.0,0.0,0.0,0.0,0.0,0.0,0.0,0.0,0.0,0.0,0.0,0.0,0.0,0.0,0.0,0.0,0.0,0.0,0.0,0.0,0.0,0.0,0.0,0.0,0.0,0.0,0.0,0.0,0.0,0.0,0.0,0.0,0.0,0.0,0.0,0.0,0.0,0.0,0.0,0.0,0.0,0.0,0.0,0.0,0.0,0.0,0.0,0.0,0.0,0.0,0.0,0.0,0.0,0.0,0.0,0.0,0.0,0.0,0.0,0.0,0.0,0.0,0.0,0.0,0.0,0.0,0.0,0.0,0.0,0.0,0.0,0.0,0.0,0.0,0.0,0.0,0.0,0.0,0.0,0.0,0.0,0.0,0.0,0.0,0.0,0.0,0.0,0.0,0.0,0.0,0.0,0.0,0.0,0.0,0.0,0.0,0.0,0.0,0.0,0.0,0.0,0.0,0.0,0.0,0.0,0.0,0.0,0.0,0.0,0.0,0.0,0.0,0.0,0.0,0.0,0.0,0.0,0.0,0.0,0.0,0.0,0.0,0.0,0.0,0.0,0.0,0.0,0.0,0.0,0.0,0.0,0.0,0.0,0.0,0.0,0.0,0.0,0.0,0.0,0.0,0.0,0.0,0.0,0.0,0.0,0.0,0.0,0.0,0.0,0.0,0.0,0.0,0.0,0.0,0.0,0.0,0.0,0.0,0.0,0.0,0.0,0.0,0.0,0.0,0.0,0.0,0.0,0.0,0.0,0.0,0.0,0.0,0.0,0.0,0.0,0.0,0.0,0.0,0.0,0.0,0.0,0.0,0.0,0.0,0.0,0.0,0.0,0.0,0.0,0.0,0.0,0.0,0.0,0.0,0.0,0.0,0.0,0.0,0.0,0.0,0.0,0.0,0.0,0.0,0.0,0.0,0.0,0.0,0.0,0.0,0.0,0.0,0.0,0.0,0.0,0.0,0.0,0.0,0.0,0.0,0.0,0.0,0.0,0.0,0.0,0.0,0.0,0.0,0.0,0.0,0.0,0.0,0.0,0.0,0.0,0.0,0.0,0.0,0.0,0.0,0.0,0.0,0.0,0.0,0.0,0.0,0.0,0.0,0.0,0.0,0.0,0.0,0.0,0.0,0.0,0.0,0.0,0.0,0.0,0.0,0.0,0.0,0.0,0.0,0.0,0.0,0.0,0.0,0.0,0.0,0.0,0.0,0.0,0.0,0.0,0.0,0.0,0.0,0.0,0.0,0.9148,0.8679,0.0,0.0,0.0,0.0,0.0,0.0,0.0,0.0,0.0,0.0,0.0,0.0,0.0,0.0,0.0,0.0,0.0,0.0,0.0,0.0,0.0,0.0,0.0,0.4494,0.4499,0.4501,0.45,0.0,0.0,0.0,0.0,0.0,0.0,0.0,0.45,0.4787,0.4933,0.4938,0.5244,0.6125,0.75,0.7199,0.5455,0.266,0.0,0.0,0.0,0.0,0.0,0.0,0.0,0.0,0.0,0.0,0.0,0.0,0.0,0.0,0.0,0.0,0.0,0.0,0.0,0.0,0.0,0.0,0.0,0.0,0.0,0.0,0.0,0.0,0.0,0.0,0.0,0.0,0.0,0.0,0.0,0.0,0.0,0.0,0.0,0.0,0.0,0.0,0.0,0.0,0.0,0.0,0.0,0.0,0.0,0.0,0.0,0.0,0.0,0.0,0.0,0.0,0.0,0.0,0.0,0.0,0.0,0.0,0.0,0.0,0.0,0.0,0.0,0.0,0.0,0.0,0.9375,0.9188,0.0,0.0,0.0,0.0,0.0,0.0,0.0,0.0,0.0,0.0,0.0,0.0,0.0,0.0,0.0,0.0,0.0,0.0,0.0,0.0,0.0,0.4502,0.4503,0.4596,0.4657,0.4661,0.4657,0.4654,0.4654,0.4656,0.0,0.0,0.0,0.0,0.4661,0.5142,0.5447,0.5561,0.5964,0.7419,0.9795,0.9804,0.8505,0.6149,0.5736,0.0,0.0,0.0,0.0,0.0,0.0,0.0,0.0,0.0,0.0,0.0,0.0,0.0,0.0,0.0,0.0,0.0,0.0,0.0,0.0,0.0,0.0,0.0,0.0,0.0,0.0,0.0,0.0,0.0,0.0,0.0,0.0,0.0,0.0,0.0,0.0,0.0,0.0,0.0,0.0,0.0,0.0,0.0,0.0,0.0,0.0,0.0,0.0,0.0,0.0,0.0,0.0,0.0,0.0,0.0,0.0,0.0,0.0,0.0,0.0,0.0,0.0,0.0,0.9911,1.0159,1.0367,1.0712,1.0862,1.0769,0.9111,0.934,1.083,1.05,0.0,0.0,0.0,0.0,0.0,0.0,0.0,0.0,0.0,0.0,0.0,0.0,0.0,0.0,0.0,0.0,0.0,0.0,0.0,0.4503,0.4502,0.4966,0.5283,0.5282,0.5281,0.5281,0.5281,0.5278,0.0,0.0,0.0,0.5276,0.5282,0.5358,0.5655,0.6179,0.8218,0.9413,0.9792,0.9792,0.9588,0.9134,0.7088,0.6175,0.6181,0.0,0.0,0.0,0.0,0.0,0.0,0.0,0.0,0.0,0.0,0.0,0.0,0.0,0.0,0.0,0.0,0.0,0.0,0.0,0.0,0.0,0.0,0.0,0.0,0.0,0.0,0.0,0.0,0.0,0.0,0.0,0.0,0.0,0.0,0.0,0.0,0.0,0.0,0.0,0.0,0.0,0.9451,0.7951,0.0,0.0,0.0,0.0,0.0,0.0,0.0,0.0,0.0,0.0,0.0,0.0,0.0,1.0539,0.9866,1.0175,1.0395,1.0522,1.0867,1.1145,1.1407,1.1458,1.1472,1.1432,1.0436,0.0,1.1443,1.087,0.0,0.0,0.0,0.0,0.0,0.0,0.0,0.0,0.0,0.0,0.0,0.0,0.0,0.0,0.0,0.0,0.0,0.0,0.0,0.0,0.0,0.5241,0.5407,0.5397,0.54,0.5549,0.5883,0.5912,0.0,0.0,0.5905,0.5912,0.5907,0.5906,0.6681,0.8271,0.9291,0.9975,1.0301,1.0312,1.031,1.0251,0.9231,0.8591,0.8196,0.7188,0.0,0.0,0.0,0.0,0.0,0.0,0.0,0.0,0.0,0.0,0.0,0.0,0.0,0.0,0.0,0.0,0.0,0.0,0.0,0.0,0.0,0.0,0.0,0.0,0.0,0.0,0.0,0.0,0.0,0.0,0.0,0.0,0.0,0.0,0.0,0.0,0.0,0.0,0.0,0.8738,1.0033,0.9568,0.9512,0.9283,0.0,0.0,0.0,0.0,0.0,0.0,0.0,0.0,0.0,1.0022,1.0608,1.0932,1.0939,1.1057,1.1158,1.1216,1.1354,1.1533,1.1712,1.1748,1.1837,1.1912,1.1642,1.1683,1.1859,1.0922,1.0713,1.0899,0.0,0.0,0.0,0.0,0.9728,0.9921,0.0,0.0,0.0,0.0,0.0,0.0,0.0,0.0,0.0,0.0,0.0,0.0,0.5613,0.5631,0.5813,0.6257,0.6292,0.6488,0.694,0.6551,0.6295,0.6303,0.6432,0.6502,0.6505,0.7117,0.828,1.0025,1.0031,1.0255,1.0704,1.0698,1.0691,1.0704,1.0705,1.0443,0.9935,0.8437,0.7564,0.7158,0.0,0.0,0.0,0.0,0.0,0.0,0.0,0.0,0.0,0.0,0.0,0.0,0.0,0.0,0.0,0.0,0.0,0.0,0.0,0.0,0.0,0.0,0.0,0.0,0.0,0.0,0.0,0.0,0.0,0.0,0.0,0.0,0.0,0.0,0.0,0.0,0.0,0.8489,0.9673,1.0591,1.056,1.0234,0.0,0.0,0.0,0.0,0.0,0.0,0.8918,1.0618,1.1604,1.16,1.1243,1.131,1.1831,1.1768,1.1735,1.1753,1.1735,1.1828,1.1989,1.2007,1.2108,1.2289,1.2446,1.2425,1.2198,1.1232,1.1046,1.1382,1.1418,1.0719,0.9832,1.0807,1.1495,1.1814,0.0,0.0,0.0,0.0,0.0,0.0,0.0,0.0,0.0,0.0,0.0,0.5622,0.6199,0.6256,0.6921,0.8582,0.8729,0.8728,0.8766,0.7222,0.6303,0.6303,0.6782,0.706,0.7062,0.9308,1.0533,1.0658,1.0653,1.0675,1.0695,1.07,1.0709,1.0695,1.0693,1.0674,1.0605,0.9945,0.9644,0.9476,0.775,0.0,0.0,0.0,0.0,0.0,0.0,0.0,0.0,0.0,0.0,0.0,0.0,0.0,0.0,0.0,0.0,0.0,0.0,0.0,0.0,0.0,0.0,0.0,0.0,0.0,0.0,0.0,0.0,0.0,0.0,0.0,0.0,0.0,0.0,0.0,0.0,0.0,0.0,1.0492,1.0186,0.0,0.0,0.0,0.0,1.0475,1.0566,1.0806,1.1387,1.1531,1.1603,1.1596,1.1885,1.2161,1.2451,1.2194,1.2115,1.217,1.2115,1.2215,1.246,1.2347,1.2345,1.25,1.25,1.2483,1.246,1.2149,1.1967,1.1883,1.2005,1.2004,1.1972,1.2284,1.2624,1.2877,0.0,0.0,0.0,0.4498,0.4498,0.4504,0.45,0.45,0.4716,0.5324,0.574,0.6637,0.836,0.8203,0.8219,0.8847,0.9249,0.9476,0.9479,0.781,0.6809,0.6815,0.7366,0.7679,0.7682,0.9664,1.0516,1.0126,1.0513,1.0491,1.013,1.0126,1.0323,1.0682,1.0296,1.0113,1.0137,1.0308,1.0384,1.0315,0.9672,0.8375,0.0,0.0,0.0,0.0,0.0,0.0,0.0,0.0,0.0,0.0,0.0,0.0,0.0,0.0,0.0,0.0,0.0,0.0,0.0,0.0,0.0,0.0,0.0,0.0,0.0,0.0,0.0,0.0,0.0,0.0,0.0,0.0,0.0,0.0,0.0,0.0,0.0,1.0483,1.0506,0.0,1.0084,1.0415,1.0819,1.1255,1.128,1.1535,1.215,1.2191,1.2176,1.2183,1.2305,1.2402,1.2498,1.2535,1.26,1.2722,1.2702,1.273,1.2824,1.2764,1.2792,1.282,1.282,1.2832,1.2817,1.2723,1.2451,1.2084,1.2093,1.213,1.2201,1.243,1.2585,1.2695,0.0,0.4498,0.0,0.4498,0.4498,0.4497,0.4494,0.4676,0.4946,0.5348,0.5925,0.72,0.9551,0.9264,0.8981,0.9182,0.9565,0.9794,0.98,0.887,0.8046,0.7433,0.7783,0.8285,0.889,1.0082,1.0503,1.0107,1.0498,1.0498,1.0107,1.0102,1.0325,1.0684,1.0277,1.0095,1.0138,1.0527,1.0574,1.0417,1.0619,0.9737,0.8251,0.0,0.0,0.0,0.0,0.0,0.0,0.0,0.0,0.0,0.0,0.0,0.0,0.0,0.0,0.0,0.0,0.0,0.0,0.0,0.0,0.0,0.0,0.0,0.0,0.0,0.0,0.0,0.0,0.0,0.0,0.0,0.0,0.0,0.0,0.853,0.9359,1.0552,1.089,1.0998,1.1002,1.1545,1.1894,1.1892,1.443,1.498,1.2621,1.2494,1.2596,1.2801,1.2727,1.2683,1.2696,1.2894,1.305,1.3132,1.3234,1.3656,1.4386,1.4386,1.4774,1.5377,1.3723,1.3495,1.4271,1.3551,1.3014,1.2585,1.2464,1.2427,1.2476,1.2573,1.2649,1.2732,0.0,0.4498,0.4498,0.4498,0.4498,0.4497,0.4501,0.5014,0.5403,0.5432,0.5998,0.7279,0.956,0.9281,0.9159,0.9748,0.9807,0.9829,0.9823,1.0321,0.9838,0.8072,0.806,0.8902,1.0666,1.0696,1.0709,1.0698,1.071,1.0717,1.0728,1.0729,1.0739,1.0738,1.0729,1.0732,1.0734,1.0738,1.0387,0.988,1.0435,1.0678,1.05,0.0,0.0,0.0,0.0,0.0,0.0,0.0,0.0,0.0,0.0,0.0,0.0,0.0,0.0,0.0,0.0,0.0,0.0,0.0,0.0,0.0,0.0,0.0,0.0,0.0,0.0,0.0,0.0,0.0,0.0,0.0,0.0,0.0,0.8418,0.9603,1.0725,1.0734,1.1265,1.1631,1.1627,1.2169,1.2496,1.2503,1.9771,2.0906,1.3285,1.2914,1.3198,1.3798,1.3434,1.3252,1.3264,1.3514,1.3604,1.3555,1.38,1.5017,1.7014,1.7014,1.8144,1.9856,1.5093,1.448,1.6669,1.4722,1.3756,1.3487,1.3152,1.3016,1.2996,1.2869,1.2936,1.3118,0.4498,0.4498,0.4498,0.4498,0.4498,0.4502,0.4504,0.5013,0.5554,0.5999,0.7681,0.9082,0.9726,0.9645,0.9621,0.9793,1.0191,1.0455,1.0458,0.9381,0.8519,0.803,0.9257,1.0187,1.0687,1.0704,1.0703,1.0705,1.0702,1.0917,1.1351,1.1351,1.1347,1.1358,1.1349,1.1351,1.1347,1.1354,1.1003,1.0428,1.016,1.0304,1.0495,0.0,0.0,0.0,0.0,0.0,0.0,0.0,0.0,0.0,0.0,0.0,0.0,0.0,0.0,0.0,0.0,0.0,0.0,0.0,0.0,0.0,0.0,0.0,0.0,0.0,0.0,0.0,0.0,0.0,0.0,0.0,1.0313,1.1216,1.0117,1.0758,1.1354,1.1362,1.1893,1.2255,1.2257,1.24,1.2488,1.2502,1.4565,1.7426,2.1073,2.2108,2.2658,2.2821,2.011,1.8159,1.7089,1.8293,1.8181,1.6744,1.682,1.6214,1.5075,1.5075,1.5393,1.5868,1.4534,1.4305,1.4943,1.6046,1.6392,1.6021,1.4073,1.3302,1.3302,1.3261,1.2986,1.2744,0.4498,0.4498,0.4498,0.4498,0.4573,0.4597,0.4508,0.5109,0.5743,0.6236,0.834,0.9703,0.9453,0.9646,0.9796,0.9806,1.0352,1.0693,1.0703,0.9238,0.8607,0.9108,1.0379,1.1075,1.1084,1.083,1.0946,1.1443,1.1444,1.15,1.159,1.1605,1.1607,1.1743,1.492,1.6332,1.6322,1.633,1.6135,1.5779,1.5433,1.3452,1.0556,0.9256,0.8757,0.8778,0.9043,0.9127,0.9083,0.8727,0.0,0.0,0.0,0.0,0.0,0.0,0.0,0.0,0.0,0.0,0.0,0.0,0.0,0.0,0.0,0.0,0.0,0.0,0.0,0.0,0.0,0.0,0.0,0.0,1.3579,1.5188,1.192,1.4682,1.5781,1.2387,1.2294,1.2499,1.2495,1.5569,1.7778,1.8289,1.8309,1.8789,1.984,2.4044,2.6387,2.6403,2.4769,2.2981,2.105,2.2118,2.1806,2.0097,2.0207,1.9996,1.9496,1.9496,1.998,2.0711,1.8398,1.8101,1.9093,1.7005,1.7551,1.9485,0.0,0.0,0.0,0.0,1.3429,1.3308,0.4498,0.4498,0.4498,0.4498,0.4663,0.4741,0.4595,0.524,0.593,0.6423,0.8362,0.9524,0.9047,0.9486,0.9801,0.9792,1.0356,1.0643,1.0517,0.9626,0.9606,1.0741,1.1301,1.1596,1.1603,1.1136,1.1424,1.2507,1.2491,1.2224,1.1707,1.1704,1.1706,1.1996,1.8729,2.1737,2.1782,2.2563,2.2902,2.2897,2.2896,1.848,1.1727,1.04,0.9902,0.9968,1.0427,1.0633,1.0708,1.0703,0.0,0.0,0.0,0.0,0.0,0.0,0.0,0.0,0.0,0.0,0.0,0.0,0.0,0.0,0.0,0.0,0.0,0.0,0.0,0.0,0.0,0.0,0.0,0.0,1.7335,1.9879,1.4602,1.9281,2.09,1.4602,1.3058,1.2913,1.3973,2.0574,2.5263,2.6317,2.6398,2.3083,1.5469,2.2406,0.0,0.0,0.0,2.7112,2.4858,2.5348,2.506,2.3922,2.3733,2.4486,2.6029,2.6237,2.7372,2.8887,2.4018,2.3483,2.5491,1.8301,1.8663,2.3563,2.1512,1.9279,1.6904,1.4675,1.4084,1.4402,0.4498,0.4498,0.4498,0.4498,0.4628,0.4778,0.4958,0.5265,0.6001,0.7478,0.8483,0.9218,0.9594,0.9737,0.9807,0.9802,1.0356,1.0287,0.9316,0.9942,1.0677,1.1383,1.1534,1.1597,1.1608,1.1962,1.2273,1.2493,1.2497,1.2434,1.2333,1.2329,1.2331,1.2383,1.3851,1.4506,1.4891,2.0515,2.2885,2.2902,2.2906,2.1375,1.8457,1.2709,1.052,1.0477,1.0118,1.0285,1.0693,1.0702,1.0471,1.0183,1.0174,1.0103,0.0,0.0,0.0,0.0,0.0,0.0,0.0,0.0,0.0,0.0,0.0,0.0,0.0,0.0,0.0,0.0,0.0,0.0,0.0,1.2028,1.3559,1.6322,2.1528,1.7986,1.6684,2.1678,1.6478,1.544,2.2968,2.5121,2.6148,2.638,2.6393,2.6095,2.5379,2.6925,2.7848,2.7856,2.8073,2.796,2.7474,2.879,2.9469,2.9494,2.6561,0.0,2.1908,2.337,2.426,2.4592,2.3533,2.3417,2.3851,2.2294,2.4376,2.8025,2.2422,1.818,1.5171,1.4457,1.4563,1.5027,0.4498,0.4498,0.4498,0.4498,0.4668,0.4867,0.507,0.5329,0.5899,0.7008,0.7726,0.84,0.907,0.9544,0.9802,0.9807,0.9516,0.9467,0.9775,1.0369,1.0972,1.1574,1.1594,1.1595,1.161,1.2197,1.2496,1.25,1.251,1.2649,1.3053,1.7403,1.9458,1.9433,1.8809,1.8552,1.8784,2.2278,2.343,2.2894,2.2907,2.2532,2.1621,1.8127,1.643,1.5861,1.5554,1.3403,1.0693,1.0702,1.07,1.0707,1.0705,1.0697,1.0524,0.0,0.0,0.0,0.0,0.0,0.0,0.0,0.0,0.0,0.0,0.0,0.0,0.0,0.0,1.0783,1.1096,0.0,1.2782,1.7755,1.5156,1.3915,1.7971,1.9079,2.096,2.5011,2.1916,2.1291,2.5951,2.6948,2.7304,2.7296,2.7312,2.755,2.8172,2.8191,2.8454,2.9025,2.9055,2.9335,2.996,3.073,3.1205,3.1384,2.9537,2.7782,2.6251,2.7146,2.7565,2.7565,2.7565,2.7567,2.7557,2.7546,2.8835,3.0454,2.7181,2.4084,2.0902,1.6413,1.514,1.5652,0.4498,0.4498,0.4498,0.4498,0.4701,0.4907,0.5039,0.5343,0.5761,0.6331,0.6857,0.7477,0.8259,0.8907,0.9321,0.9437,0.8727,0.8961,1.0586,1.0751,1.1032,1.1579,1.1605,1.1628,1.1705,1.2216,1.2508,1.2499,1.4087,1.5222,1.608,2.311,2.6402,2.6353,2.513,2.4597,2.4603,2.4605,2.4067,2.3205,2.2985,2.2887,2.2901,2.291,2.229,2.1427,2.117,1.7484,1.275,1.2988,1.307,1.3069,1.3068,1.3062,1.2782,1.1309,0.9602,0.0,0.0,0.0,0.0,0.0,0.0,0.0,0.0,1.0644,1.1902,1.2401,1.2582,1.3128,1.4578,1.356,1.4635,2.119,1.6856,1.3273,1.4964,2.1664,2.6486,2.6709,2.6546,2.648,2.6726,2.7642,2.8214,2.8193,2.8414,2.8521,2.8544,2.8535,2.8952,2.9873,3.0119,3.0713,3.1698,3.1712,3.1802,3.2027,3.1824,3.1708,3.1708,3.1929,3.204,3.204,3.204,3.204,3.204,3.204,3.204,3.2016,3.1794,3.0675,2.8338,2.1077,1.8717,1.9123,0.4498,0.4498,0.4498,0.4498,0.4627,0.4769,0.4897,0.5213,0.5742,0.6627,0.6553,0.6768,0.7692,0.7565,0.7622,0.8156,0.8841,0.9655,1.0645,1.0982,1.1286,1.1586,1.1605,1.1737,1.2035,1.2347,1.2508,1.2499,1.9727,2.3823,2.4972,2.5936,2.6403,2.6353,2.5134,2.4602,2.4596,2.4598,2.4531,2.4323,2.3309,2.2903,2.2893,2.2905,2.2822,2.2569,2.1469,2.0591,2.009,2.1166,2.1547,2.1542,2.1536,2.154,2.0209,1.3475,1.0215,0.8795,0.8805,0.9969,1.0806,0.9202,0.9657,1.0643,0.0,1.1864,1.2417,1.2482,1.2932,1.5342,2.202,1.736,1.2793,1.3712,1.3541,1.5991,2.3759,2.5749,2.6794,2.7879,2.7053,2.6816,2.7902,2.8135,2.8206,2.8195,2.9147,2.9719,2.9714,2.9704,2.9763,2.99,3.0942,3.156,3.1702,3.1702,3.2204,3.3206,3.2186,3.1708,3.1746,3.2754,3.3198,3.3198,3.3198,3.3198,3.3198,3.3198,3.3198,3.3125,3.2102,3.2158,3.2592,3.0584,2.9886,2.9947,0.4498,0.4498,0.4498,0.4498,0.4607,0.4741,0.4882,0.5086,0.5435,0.6029,0.6046,0.6237,0.6827,0.7116,0.7469,0.7959,0.8861,0.9762,1.0644,1.0836,1.1128,1.1586,1.1604,1.1662,1.1807,1.2261,1.3678,1.6045,2.1781,2.47,2.491,2.5573,2.6052,2.6354,2.5144,2.4602,2.4603,2.46,2.4207,2.3571,2.3098,2.2903,2.2893,2.2893,2.2895,2.2835,2.2335,2.2156,0.0,2.0346,2.0718,2.1981,2.2673,2.2886,2.1864,1.6618,1.2146,0.898,0.9334,1.2721,1.5304,1.1866,1.1369,1.3228,1.8919,2.0416,2.0594,2.0601,1.6481,1.3845,1.6982,1.8661,1.9778,2.0473,2.0798,2.225,2.5885,2.699,2.7634,2.8129,2.7742,2.7638,2.8158,2.8796,2.9176,2.9185,2.9632,2.99,2.9893,3.0562,3.0942,3.0944,3.2086,3.2684,3.2689,3.2701,3.2935,3.3383,3.291,3.2691,3.2716,3.319,3.3415,3.3415,3.3415,3.3415,3.3415,3.3415,3.3415,3.3352,3.2878,3.299,3.3325,3.2873,3.2681,3.2694,0.4498,0.4498,0.4498,0.4498,0.458,0.4701,0.4875,0.4983,0.5164,0.5499,0.566,0.5883,0.6265,0.6906,0.746,0.7802,0.864,0.9525,1.0388,1.0541,1.0833,1.1413,1.1503,1.1789,1.2366,1.2286,1.4154,1.801,2.2445,2.4393,2.4041,2.471,2.5262,2.5641,2.4611,2.4125,2.4129,2.4118,2.3646,2.2907,2.2898,2.2908,2.2924,2.3069,2.3047,2.29,2.2906,2.2487,2.1539,1.8959,1.9857,2.2212,2.3086,2.3366,2.2665,1.9127,1.5332,1.1939,1.0445,1.5575,2.052,1.7175,1.4526,1.4516,2.1288,2.2804,2.2811,2.2811,1.9364,1.6324,1.633,2.1126,2.5499,2.6697,2.6908,2.6906,2.6911,2.7653,2.8202,2.8196,2.8479,2.8673,2.8672,2.9414,2.9894,2.99,3.0206,3.0402,3.0386,3.1524,3.2164,3.216,3.297,3.3403,3.3393,3.3411,3.3406,3.3406,3.3395,3.3414,3.3414,3.3414,3.3414,3.3414,3.3414,3.3414,3.3414,3.3414,3.3414,3.3414,3.3414,3.3414,3.3385,3.3406,3.3393,3.3393,0.4498,0.4498,0.4498,0.4498,0.4498,0.4593,0.4855,0.4902,0.5026,0.5366,0.552,0.5783,0.6252,0.6779,0.7188,0.7407,0.8097,0.8899,0.9773,1.0134,1.0517,1.1009,1.1274,1.2317,1.4272,1.254,1.3249,1.6554,2.1956,2.4589,2.4579,2.4089,2.3847,2.3861,2.3225,2.2939,2.295,2.295,2.292,2.2894,2.2893,2.2907,2.2968,2.356,2.341,2.2904,2.2893,2.1446,1.9495,1.9386,2.1642,2.4497,2.4548,2.4564,2.3856,2.038,1.9999,1.9261,1.2491,1.8277,2.6138,2.5998,1.9618,1.3458,1.3735,1.3786,1.3793,1.3795,2.0289,2.5981,2.598,2.618,2.6745,2.7942,2.815,2.814,2.8142,2.8195,2.8207,2.82,2.9179,2.9848,2.9857,2.9886,2.989,2.9889,3.0982,3.1665,3.1638,3.2735,3.3363,3.3357,3.337,3.3393,3.3412,3.34,3.34,3.34,3.3414,3.3414,3.3414,3.3414,3.3414,3.3414,3.3414,3.3414,3.3414,3.3414,3.3414,3.3414,3.3414,3.3414,3.3414,3.34,3.3387,3.3387,0.4498,0.4498,0.4498,0.4498,0.4498,0.4586,0.4855,0.4903,0.5023,0.5359,0.5592,0.0,0.0,0.0,0.0,0.0,0.7921,0.8538,0.8906,0.9581,1.0134,1.0526,1.0887,1.2064,1.422,1.2523,1.4086,1.9147,1.9832,2.1389,2.374,2.3966,2.4009,2.3919,2.3484,2.3161,2.2902,2.2888,2.2667,2.2345,2.2737,2.218,2.112,2.1325,2.1525,2.1614,0.0,2.0075,1.9394,1.9391,2.0172,2.1139,2.1145,2.1144,2.107,2.0645,2.0801,2.058,1.8242,2.1897,2.6392,2.6385,2.4184,2.2037,2.203,2.2025,2.2024,2.2029,2.4993,2.5691,1.9514,2.3426,2.7965,2.9143,2.9339,2.9331,2.9318,2.9337,2.9326,2.933,3.0373,3.1091,3.1078,3.1092,3.1099,3.1083,3.2161,3.2832,3.2826,3.3187,3.3401,3.3391,3.3405,3.3395,3.3414,3.3414,3.3414,3.3414,3.3414,3.3414,3.3414,3.3414,3.3414,3.3414,3.3414,3.3414,3.3414,3.3414,3.3414,3.3414,3.3414,3.3414,3.3402,3.3387,3.3403,3.3415,0.4498,0.4498,0.4498,0.4505,0.4539,0.0,0.0,0.0,0.0,0.0,0.0,0.0,0.0,0.0,0.0,0.0,0.0,0.8057,0.8472,0.9022,0.953,0.9959,1.0267,1.1427,1.3514,1.1897,1.3883,1.9711,1.8273,1.9438,2.2985,2.3714,2.395,2.373,2.3527,2.3227,2.2888,2.2905,2.2617,2.2157,2.2358,2.1677,2.0518,2.0412,2.0422,0.0,1.9797,1.9355,1.9112,1.9326,1.9397,1.9397,1.9406,1.9681,2.0141,2.0884,2.1695,2.2442,2.2891,2.4652,2.6393,2.6393,2.64,2.6406,2.6404,2.6403,2.6522,2.6955,2.7655,2.6487,2.0904,2.4765,2.9062,2.977,2.9896,2.9908,2.9891,3.0263,3.0542,3.0539,3.1247,3.1866,3.2269,3.2303,3.2301,3.2299,3.2989,3.3404,3.3395,3.3408,3.3389,3.34,3.3414,3.3414,3.3414,3.3414,3.3417,3.341,3.341,3.3413,3.3391,3.3391,3.3391,3.3391,3.3391,3.3389,3.341,3.341,3.3407,3.3414,3.3414,3.3414,3.3402,3.3413,3.3657,3.3975,0.4498,0.4498,0.4505,0.0,0.0,0.0,0.0,0.0,0.0,0.0,0.0,0.0,0.0,0.0,0.0,0.0,0.0,0.0,0.8383,0.8458,0.8737,0.9321,0.9496,1.0465,1.2355,1.0814,1.2679,1.816,1.7299,1.8686,2.2168,2.3136,2.342,2.3132,2.3132,2.302,2.2786,2.2773,2.2569,2.2215,2.1716,2.1272,2.0906,2.0657,2.0043,1.9335,1.9659,1.9229,1.8571,1.9188,1.9485,1.9597,1.9678,2.0446,2.131,2.1259,2.2876,2.4942,2.6084,2.6405,2.6406,2.6403,2.6394,2.6412,2.6485,2.6494,2.6822,2.7949,2.8251,2.8625,2.9696,2.9895,2.9913,2.9893,2.9899,2.9918,2.999,3.0973,3.1695,3.1688,3.1698,3.2149,3.3282,3.341,3.3386,3.3386,3.3386,3.3395,3.34,3.3414,3.3414,3.3414,3.3414,3.3414,3.3414,3.3414,3.341,3.3398,3.3473,3.3503,3.3483,3.3496,3.3496,3.3496,3.3496,3.348,3.3485,3.3434,3.3402,3.3414,3.3414,3.3414,3.3389,3.3402,3.4123,3.4953,0.0,0.0,0.0,0.0,0.0,0.0,0.0,0.0,0.0,0.0,0.0,0.0,0.0,0.0,0.0,0.0,0.0,0.0,0.7648,0.7963,0.8303,0.8709,0.9097,1.0271,1.2346,1.0636,1.1845,1.6213,1.5542,1.6394,1.8715,2.0155,2.0882,2.0997,2.0997,2.108,2.1232,2.1002,2.0719,2.0454,2.0307,1.9679,1.8782,1.8716,1.8303,1.7809,1.8077,1.8156,1.825,1.9105,2.0555,2.2223,2.353,2.4133,2.4201,2.3359,2.446,2.6009,2.6312,2.6405,2.6407,2.6407,2.6406,2.6635,2.7544,2.7744,2.783,2.8137,2.8887,2.9572,2.9853,2.9902,2.9912,2.9896,2.9904,3.0205,3.1112,3.1512,3.1708,3.1715,3.1706,3.2158,3.3273,3.3408,3.3407,3.3407,3.3407,3.3397,3.3414,3.3414,3.3414,3.3414,3.3414,3.3414,3.3414,3.3414,3.3402,3.3417,3.4295,3.4725,3.4745,3.4729,3.4734,3.4734,3.4734,3.4743,3.4675,3.3762,3.3405,3.3414,3.3414,3.3414,3.3415,3.3389,3.3596,3.3814,0.0,0.0,0.0,0.0,0.0,0.0,0.0,0.0,0.0,0.0,0.0,0.0,0.0,0.0,0.0,0.0,0.0,0.0,0.0,0.7558,0.7848,0.8098,0.841,0.9142,1.035,0.9493,1.0423,1.3264,1.3958,1.5156,1.6864,1.8752,1.9693,1.9853,1.9853,1.9947,2.0124,1.992,1.9679,0.0,0.0,1.8529,1.7796,1.7529,1.7235,1.702,1.7327,1.7769,1.841,1.9708,2.1491,2.3374,2.4484,2.5335,2.5759,2.5136,2.5626,2.6395,2.6407,2.6592,2.6928,2.7425,2.7551,2.7533,2.7422,2.7412,2.7116,2.6089,2.6376,2.683,2.6826,2.7242,2.8268,3.0337,3.0694,3.0923,3.1598,3.1685,3.1698,3.1713,3.2144,3.2714,3.3332,3.3403,3.3414,3.3414,3.3414,3.3414,3.3414,3.3414,3.3414,3.3414,3.3414,3.3414,3.3414,3.3918,3.3908,3.3403,3.4616,3.4936,3.4415,3.4406,3.4414,3.4414,3.4414,3.4397,3.4363,3.3678,3.3395,3.3414,3.3414,3.3414,3.339,3.3392,3.3397,3.3398,0.0,0.0,0.0,0.0,0.0,0.0,0.0,0.0,0.0,0.5652,0.5659,0.5745,0.0,0.0,0.0,0.0,0.0,0.0,0.0,0.0,0.7391,0.7529,0.7678,0.7748,0.7768,0.8078,0.8834,1.0046,1.2462,1.4283,1.5589,1.7864,1.8946,1.8986,1.8986,1.9,1.904,1.904,1.8865,1.8556,1.8009,1.7636,1.7381,0.0,1.662,1.6699,1.7072,1.7715,1.8678,2.0535,2.2179,2.3501,2.4034,2.5217,2.6388,2.6393,2.6386,2.639,2.6409,2.6833,2.7574,2.8719,2.9056,2.8643,2.6823,2.6158,2.5362,2.3324,2.2899,2.297,2.32,2.4123,2.6227,3.0539,3.1231,3.1376,3.1769,3.1884,3.1916,3.1931,3.2801,3.3393,3.3404,3.3408,3.3404,3.3389,3.3414,3.3414,3.3414,3.3414,3.3414,3.3414,3.3414,3.3402,3.3392,3.4425,3.445,3.3399,3.4468,3.441,3.3393,3.3405,3.3392,3.3392,3.3392,3.3389,3.3395,3.3395,3.3401,3.3414,3.3414,3.3402,3.3393,3.3406,3.3512,3.3628,0.0,0.0,0.0,0.0,0.0,0.0,0.0,0.0,0.0,0.0,0.5937,0.5948,0.0,0.0,0.0,0.0,0.0,0.0,0.0,0.0,0.0,0.7184,0.7366,0.7521,0.7631,0.7807,0.8011,0.8247,1.0937,1.2383,1.2681,1.522,1.658,1.6832,1.6832,1.6953,1.7168,1.7168,1.7128,1.7048,1.6726,1.6578,1.6484,1.61,0.0,0.0,1.6992,1.7447,1.813,2.0659,2.2187,2.3259,2.4758,2.5759,2.64,2.6397,2.639,2.6389,2.6399,2.6847,2.756,2.8717,2.9367,2.9162,2.6908,2.4892,2.3386,2.2991,2.2898,2.3336,2.4791,2.5619,2.6683,2.851,2.8809,2.9652,3.2111,3.2828,3.3098,3.3104,3.3293,3.34,3.339,3.3406,3.3415,3.3402,3.3414,3.3414,3.3414,3.3414,3.3414,3.3414,3.3414,3.3395,3.3407,3.3598,3.3605,3.3405,3.362,3.3604,3.3399,3.3402,3.3396,3.3396,3.3396,3.3395,3.3405,3.3405,3.3404,3.3414,3.3414,3.3396,3.3407,3.3409,3.4042,3.4887,0.0,0.0,0.0,0.0,0.0,0.0,0.0,0.5696,0.589,0.6132,0.6152,0.6162,0.6162,0.6242,0.6327,0.0,0.0,0.0,0.0,0.0,0.0,0.6884,0.7118,0.7274,0.7337,0.7572,0.7699,0.7699,0.0,1.1039,1.184,1.3791,1.5184,1.6046,1.6046,1.6114,1.6222,1.6222,1.6222,1.622,1.6087,1.6046,1.6019,1.5861,0.0,0.0,1.6792,1.7221,1.7903,1.9962,2.1154,2.2224,2.4909,2.6146,2.6493,2.5911,2.6132,2.652,2.6052,2.6694,2.7719,2.8586,2.91,2.8864,2.6695,2.5324,2.4118,2.2723,2.2676,2.3157,2.3987,2.512,2.5924,2.5904,2.7202,2.8784,3.0499,3.2269,3.3525,3.3822,3.4154,3.4346,3.434,3.3766,3.3404,3.3402,3.3414,3.3414,3.3414,3.3414,3.3414,3.3414,3.3414,3.3405,3.3413,3.3405,3.3383,3.3382,3.3408,3.3405,3.3399,3.3392,3.3414,3.3414,3.3414,3.3414,3.3414,3.3414,3.3414,3.3402,3.3398,3.3404,3.3487,3.4113,3.4688,3.52,0.0,0.0,0.0,0.0,0.0,0.0,0.3808,0.4993,0.5733,0.6235,0.6297,0.63,0.63,0.63,0.63,0.0,0.0,0.0,0.0,0.0,0.0,0.0,0.0,0.7062,0.7062,0.0,0.0,0.7561,0.8862,0.0,0.0,0.0,0.0,0.0,1.5516,1.5633,1.5633,1.5633,1.5661,0.0,0.0,1.5755,1.5808,0.0,0.0,0.0,0.0,1.7007,1.7662,1.9332,2.0256,2.1245,2.4414,2.5705,2.5939,2.5358,2.5825,2.6433,2.6012,2.6774,2.7829,2.8377,2.8724,2.8382,2.6353,2.5904,2.5149,2.2542,2.2374,2.277,2.2949,2.3994,2.4631,2.3982,2.5773,2.765,2.8751,3.0946,3.2917,3.4144,3.4674,3.5014,3.5191,3.4126,3.3404,3.3402,3.3414,3.3414,3.3414,3.3414,3.3414,3.3414,3.3414,3.3414,3.3414,3.3414,3.3414,3.3414,3.3414,3.3414,3.3414,3.3414,3.3414,3.3414,3.3414,3.3414,3.3414,3.3414,3.339,3.3395,3.3393,3.3565,3.3904,3.4849,3.5208,3.521,0.0,0.0,0.0,0.0,0.0,0.0,0.0443,0.2546,0.4624,0.6109,0.6297,0.63,0.63,0.63,0.63,0.0,0.0,0.0,0.0,0.0,0.0,0.0,0.0,0.0,0.0,0.0,0.0,0.7416,0.8809,0.0,0.0,0.0,0.0,0.0,0.0,1.5066,1.5066,1.5066,0.0,0.0,0.0,0.0,0.0,0.0,0.0,0.0,0.0,1.674,1.7141,1.9397,2.0401,2.1031,2.2953,2.359,2.3852,2.5098,2.5545,2.5852,2.6861,2.7409,2.7797,2.8152,2.8438,2.8089,2.6026,2.5558,2.4877,2.2502,2.2037,2.2328,2.3115,2.2941,2.3008,2.3994,2.4191,2.5249,2.8215,2.9077,3.0614,3.392,3.4195,3.4397,3.5133,3.4106,3.3404,3.3402,3.3414,3.3414,3.3414,3.3414,3.3414,3.3414,3.3414,3.3414,3.3414,3.3414,3.3414,3.3414,3.3414,3.3414,3.3414,3.3414,3.3414,3.3414,3.3414,3.3414,3.3414,3.3414,3.341,3.3382,3.3383,3.406,3.5035,3.5154,3.5199,3.519,0.0,0.0,0.0,0.0,0.0,0.0,0.0,0.0883,0.2696,0.5879,0.6301,0.6297,0.63,0.63,0.63,0.63,0.0,0.0,0.0,0.0,0.0,0.0,0.0,0.0,0.0,0.0,0.722,0.722,0.7773,0.0,0.0,0.0,0.0,0.0,0.0,1.4997,1.4997,1.4997,0.0,0.0,0.0,0.0,0.0,0.0,0.0,0.0,0.0,0.0,1.6901,1.8196,1.8972,1.9587,2.0815,2.1307,2.1718,2.3203,2.4663,2.5778,2.5705,2.68,2.8064,2.8371,2.8398,2.781,2.5718,2.5098,2.4297,2.1951,2.162,2.1863,2.2208,2.2352,2.2615,2.3304,2.4213,2.5705,2.8243,2.9472,3.1009,3.348,3.3867,3.4137,3.4617,3.4218,3.3786,3.344,3.3414,3.3414,3.3414,3.3414,3.3414,3.3414,3.3414,3.3414,3.3414,3.3414,3.3414,3.3414,3.3414,3.3414,3.3414,3.3414,3.3407,3.3415,3.3415,3.3393,3.3412,3.3412,3.3401,3.3468,3.4194,3.4783,3.5195,3.52,3.5189,3.5191,0.0,0.0,0.0,0.0,0.0,0.0,0.0,0.0,0.1067,0.4048,0.552,0.6303,0.6306,0.63,0.63,0.63,0.63,0.0,0.0,0.0,0.0,0.0,0.0,0.0,0.0,0.0,0.7098,0.7098,0.7098,0.7634,0.0,0.0,1.1151,1.2484,0.0,0.0,0.0,0.0,0.0,0.0,0.0,0.0,0.0,0.0,0.0,0.0,0.0,0.0,0.0,0.0,0.0,1.8554,1.8917,1.9561,2.0504,2.2098,2.3745,2.5088,2.5112,2.636,2.7831,2.8444,2.8131,2.7215,2.5483,2.4583,2.3523,2.1507,2.1285,2.1462,2.1462,2.1914,2.2365,2.2599,2.3973,2.5785,2.8016,2.9459,3.0955,3.2799,3.3227,3.3604,3.4232,3.4138,3.3857,3.3427,3.3414,3.3414,3.3414,3.3414,3.3414,3.3414,3.3414,3.3414,3.3414,3.3414,3.3414,3.3414,3.3414,3.3414,3.3414,3.3414,3.3395,3.3404,3.379,3.3937,3.3931,3.3934,3.3936,3.4029,3.4852,3.5196,3.5212,3.5203,3.5191,3.5191,0.0,0.0,0.0,0.0,0.0,0.0,0.0,0.0,0.002,0.0059,0.3704,0.6301,0.6301,0.6297,0.63,0.63,0.63,0.0,0.0,0.0,0.0,0.0,0.0,0.0,0.0,0.0,0.7098,0.7098,0.7098,0.7109,0.7154,0.8357,0.953,1.068,0.0,0.0,0.0,0.0,0.0,0.0,0.0,0.0,1.5808,0.0,0.0,0.0,0.0,0.0,0.0,0.0,0.0,0.0,0.0,1.859,2.0544,2.2355,2.2907,2.3442,2.5751,2.6406,2.676,2.8243,2.7495,2.6192,2.5296,2.3977,2.2572,2.1349,2.1093,2.1109,2.1109,2.159,2.2007,2.2007,2.3023,2.4721,2.7335,2.8462,2.9797,3.1877,3.2118,3.2689,3.4171,3.3767,3.3414,3.3414,3.3414,3.3414,3.3414,3.3414,3.3414,3.3414,3.3414,3.3414,3.3414,3.3414,3.3414,3.3414,3.3414,3.3414,3.3414,3.3414,3.3414,3.3465,3.4665,3.5187,3.5189,3.5195,3.5171,3.5168,3.5208,3.5199,3.5191,3.5191,3.5191,3.5191,0.0,0.0,0.0,0.0,0.0,0.0,0.0,0.0,0.0,0.0,0.3677,0.6302,0.6301,0.6303,0.6297,0.63,0.63,0.0,0.0,0.0,0.0,0.0,0.0,0.0,0.0,0.6965,0.7098,0.7098,0.7233,0.731,0.7332,0.8583,0.9849,1.1127,1.2271,1.3375,0.0,0.0,0.0,0.0,0.0,1.4138,1.4591,0.0,0.0,0.0,0.0,0.0,0.0,0.0,0.0,0.0,0.0,0.0,0.0,2.0432,2.2117,2.3054,2.3817,2.4569,2.5285,2.5752,2.5384,2.4663,2.3803,2.3063,2.2285,2.1293,2.1093,2.1093,2.1093,2.159,2.2007,2.2007,2.301,2.4708,2.7321,2.8276,2.9579,3.1837,3.1696,3.2016,3.3539,3.3516,3.3404,3.3399,3.3414,3.3414,3.3414,3.3414,3.3414,3.3414,3.3414,3.3414,3.3414,3.3414,3.3414,3.3414,3.3414,3.3407,3.3391,3.3391,3.3412,3.3407,3.3795,3.4446,3.5208,3.5211,3.5213,3.5202,3.5202,3.5203,3.5191,3.5191,3.5191,3.5191,0.0,0.0,0.0,0.0,0.0,0.0,0.0,0.0,0.0,0.0,0.2292,0.4223,0.5012,0.5812,0.6303,0.63,0.63,0.0,0.0,0.0,0.0,0.0,0.0,0.0,0.6773,0.7064,0.7213,0.7213,0.7391,0.7478,0.7496,0.8288,0.9339,1.0604,1.1811,1.2959,0.0,0.0,0.0,0.0,1.2957,1.3009,1.3231,0.0,0.0,0.0,0.0,0.0,0.0,0.0,0.0,0.0,0.0,0.0,0.0,0.0,2.0192,2.1423,2.2593,2.3424,2.4084,2.4644,2.4249,2.3581,2.3157,2.2458,2.1761,2.12,2.1093,2.1093,2.1093,2.159,2.2181,2.2743,2.3371,2.4767,2.7502,2.8024,2.8938,3.1183,3.1385,3.1699,3.2665,3.314,3.341,3.3399,3.3414,3.3414,3.3414,3.3414,3.3414,3.3414,3.3414,3.3414,3.3414,3.3414,3.3414,3.3414,3.3414,3.341,3.3422,3.3856,3.4084,3.407,3.4097,3.4503,0.0,3.5203,3.5191,3.5191,3.5191,3.5191,3.5191,3.5191,3.5191,3.5191,0.0,0.0,0.0,0.0,0.0,0.0,0.0,0.0,0.0,0.0,0.0221,0.1081,0.2901,0.5006,0.628,0.63,0.0,0.0,0.0,0.0,0.0,0.0,0.0,0.0,0.6907,0.7235,0.7396,0.741,0.7554,0.7617,0.7617,0.7624,0.8241,0.9408,1.0642,1.1876,0.0,0.0,0.0,0.0,1.2557,1.2133,0.0,0.0,0.0,0.0,0.0,0.0,0.0,0.0,0.0,0.0,0.0,0.0,0.0,0.0,0.0,0.0,0.0,2.2576,2.2921,2.4284,2.3594,2.2652,2.2909,2.1998,0.0,2.1093,2.1093,2.1122,2.1136,2.1686,2.2569,2.3888,2.3999,2.49,2.767,2.7777,2.8264,3.0266,3.1248,3.1807,3.1847,3.2785,3.3414,3.3414,3.3414,3.3414,3.3414,3.3414,3.3414,3.3414,3.3414,3.3414,3.3414,3.3414,3.3414,3.3414,3.3414,3.341,3.3422,3.4663,3.5199,3.5191,3.5191,3.5208,3.5196,3.5202,3.5191,3.5191,3.5191,3.5191,3.5191,3.5191,3.5191,3.5191,0.0,0.0,0.0,0.0,0.0,0.0,0.0,0.0,0.0,0.0,0.2411,0.3868,0.3173,0.4876,0.6136,0.0,0.0,0.0,0.0,0.0,0.0,0.0,0.0,0.0,0.7055,0.7278,0.745,0.7554,0.7692,0.7748,0.7755,0.7858,0.8603,0.9854,1.0158,1.1313,0.0,0.0,0.0,0.0,1.1505,1.1063,0.0,0.0,0.0,0.0,1.2365,1.2613,0.0,0.0,0.0,0.0,0.0,0.0,0.0,0.0,1.4655,1.4741,1.8387,0.0,1.9617,1.9962,1.9792,1.9553,0.0,2.039,2.1093,2.1093,2.1093,2.1176,2.1435,2.2519,2.3348,2.3211,2.428,2.5504,2.666,2.8652,3.0337,3.1273,3.216,3.2872,3.3339,3.3377,3.3414,3.3414,3.3414,3.3414,3.3414,3.3414,3.3414,3.3414,3.3414,3.3414,3.3414,3.3414,3.3414,3.3414,3.3414,3.341,3.3435,3.4636,3.5205,3.5204,3.52,3.5216,3.5189,3.5204,3.5191,3.5191,3.5191,3.5191,3.5191,3.5191,3.5191,3.5191,0.0,0.0,0.0,0.0,0.0,0.0,0.0,0.0,0.0,0.0,0.1711,0.3233,0.4064,0.5205,0.0,0.0,0.0,0.0,0.0,0.0,0.0,0.0,0.0,0.6935,0.7226,0.7461,0.7611,0.7699,0.7817,0.7891,0.7891,0.796,0.8379,0.9102,0.9731,1.0826,0.0,0.0,0.0,1.073,1.0907,0.0,0.0,0.0,0.0,0.0,1.1036,1.1402,0.0,1.2366,1.1567,1.0867,0.0,0.0,0.0,0.0,1.2916,1.3128,1.6003,1.6998,1.7616,1.9271,1.9088,1.872,1.9515,2.0417,2.1093,2.1093,2.1216,2.1379,2.1572,2.2572,2.3683,2.4548,2.5264,2.6179,2.7428,2.9793,3.1463,3.1674,3.2717,3.3467,3.3654,3.3507,3.3414,3.3414,3.3414,3.3414,3.3414,3.3414,3.3414,3.3414,3.3414,3.3414,3.3414,3.3414,3.3414,3.3414,3.3414,3.3387,3.3428,3.4075,3.468,3.52,3.519,3.5191,3.5191,3.5191,3.5191,3.5191,3.5191,3.5191,3.5191,3.5191,3.5191,3.5191,0.0,0.0,0.0,0.0,0.0,0.0,0.0,0.0,0.0,0.0,0.0,0.0,0.0,0.0,0.0,0.0,0.0,0.0,0.0,0.0,0.0,0.0,0.6823,0.7071,0.7423,0.7672,0.7809,0.7836,0.794,0.8001,0.8001,0.8001,0.8001,0.805,0.9188,1.0184,1.1071,1.1789,1.1442,1.0399,1.0397,0.0,0.0,0.0,0.0,0.0,0.0,0.0,0.0,1.0558,1.023,1.0366,1.2078,0.0,0.0,0.0,0.0,0.0,1.4188,1.4967,1.6086,1.9491,1.9212,1.8504,2.0061,2.0815,2.1176,2.1176,2.1579,2.1987,2.2121,2.3004,2.4427,2.6653,2.6673,2.6994,2.8703,3.0679,3.1867,3.1643,3.2908,3.376,3.3557,3.344,3.3414,3.3414,3.3414,3.3414,3.3414,3.3414,3.3414,3.3414,3.3414,3.3414,3.3414,3.3414,3.3414,3.3414,3.3414,3.3402,3.3404,3.3586,3.4238,3.5189,3.519,3.5191,3.5191,3.5191,3.5191,3.5191,3.5191,3.5191,3.5191,3.5191,3.5191,3.5191,0.0,0.0,0.0,0.0,0.0,0.0,0.0,0.0,0.0,0.0,0.0,0.0,0.0,0.0,0.0,0.0,0.0,0.0,0.0,0.0,0.0,0.6688,0.6823,0.7107,0.7556,0.7726,0.7863,0.7967,0.7987,0.8001,0.8001,0.8001,0.8001,0.8013,0.8212,0.8855,0.9783,0.9795,0.9687,0.95,0.95,0.0,0.0,0.0,0.0,0.0,0.0,0.0,0.0,0.9739,0.9419,0.8876,1.034,0.0,0.0,0.0,0.0,0.0,1.2644,1.3269,1.3909,1.6261,1.6575,1.6473,1.7138,1.9489,2.1515,2.1515,2.2559,2.3696,2.4432,2.6105,2.753,2.7911,2.8104,2.831,2.8631,3.0198,3.1305,3.1204,3.2547,3.3663,3.4107,3.3713,3.3414,3.3414,3.3414,3.3414,3.3414,3.3414,3.3414,3.3414,3.3414,3.3414,3.3414,3.3414,3.3414,3.3414,3.3414,3.3404,3.3422,3.4467,3.501,3.5183,3.5187,3.5191,3.5191,3.5191,3.5191,3.5191,3.5191,3.5191,3.5191,3.5191,3.5191,3.5191,0.0,0.0,0.0,0.0,0.0,0.0,0.0,0.0,0.0,0.0,0.0,0.0,0.0,0.0,0.0,0.0,0.0,0.0,0.0,0.0,0.6419,0.6688,0.6823,0.7114,0.759,0.7809,0.7933,0.8001,0.8001,0.8001,0.8001,0.8001,0.8001,0.8001,0.8001,0.822,0.862,0.9179,0.9364,0.9304,0.0,0.0,0.0,0.0,0.0,0.0,0.0,0.0,0.0,0.0,0.8636,0.8424,0.9148,0.0,0.0,0.0,0.0,0.0,1.2064,1.2066,1.2435,1.6322,1.7896,1.8839,2.0192,2.2307,2.358,2.2117,2.3255,2.4574,2.4796,2.6018,2.7469,2.8893,2.9887,3.0555,3.0738,3.1704,3.2379,3.2339,3.3152,3.3743,3.3805,3.3557,3.3414,3.3414,3.3414,3.3414,3.3414,3.3414,3.3414,3.3414,3.3414,3.3414,3.3414,3.3414,3.3414,3.3414,3.3414,3.341,3.3423,3.397,3.4587,3.5196,3.5202,3.5191,3.5191,3.5191,3.5191,3.5191,3.5191,3.5191,3.5191,3.5191,3.5191,3.5191,0.0,0.0,0.0,0.0,0.0,0.0,0.0,0.0,0.0,0.0,0.0,0.0,0.0,0.0,0.0,0.0,0.0,0.0,0.0,0.6171,0.6419,0.6688,0.6823,0.7114,0.759,0.7831,0.7967,0.8001,0.8001,0.8001,0.8001,0.8001,0.8001,0.8001,0.8001,0.794,0.7898,0.8751,0.9056,0.9001,0.0,0.0,0.0,0.0,0.0,0.0,0.0,0.0,0.0,0.0,0.0,0.0,0.0,0.0,0.0,0.9253,0.9518,0.9992,1.1502,1.1544,1.2217,1.6563,1.8831,2.0674,2.3257,2.4968,2.5476,2.3612,2.4788,2.6106,2.6059,2.668,2.7837,2.9713,3.0969,3.1888,3.242,3.2904,3.3202,3.3219,3.3613,3.3731,3.3427,3.3414,3.3414,3.3414,3.3414,3.3414,3.3414,3.3414,3.3414,3.3414,3.3414,3.3414,3.3414,3.3414,3.3414,3.3414,3.3405,3.3392,3.3418,3.3691,3.4318,3.5189,3.5204,3.5191,3.5191,3.5191,3.5191,3.5191,3.5191,3.5191,3.5191,3.5191,3.5191,3.5191,0.0,0.0,0.0,0.0,0.0,0.0,0.0,0.0,0.0,0.0,0.0,0.0,0.0,0.0,0.0,0.0,0.0,0.0,0.0,0.6117,0.6419,0.6688,0.6823,0.7114,0.759,0.7734,0.7871,0.8001,0.8001,0.8001,0.8001,0.8001,0.8001,0.8001,0.8001,0.7994,0.7986,0.7941,0.7992,0.8084,0.7971,0.0,0.0,0.0,0.0,0.0,0.0,0.0,0.0,0.0,0.0,0.0,0.0,0.0,0.8628,0.9219,0.9885,1.0424,1.0449,1.2053,1.4048,1.5372,1.6818,1.899,2.3048,2.5036,2.6172,2.68,2.8117,2.9406,3.0207,3.0598,3.0705,3.0404,3.0444,3.0898,3.1984,3.2436,3.2643,3.2661,3.3129,3.344,3.3389,3.3414,3.3414,3.3414,3.3414,3.3414,3.3414,3.3414,3.3414,3.3414,3.3414,3.3414,3.3414,3.3414,3.3414,3.3389,3.3403,3.3383,3.3449,3.456,3.5102,3.5196,3.5202,3.5191,3.5191,3.5191,3.5191,3.5191,3.5191,3.5191,3.5191,3.5191,3.5191,3.5191,0.0,0.0,0.0,0.0,0.0,0.0,0.0,0.0,0.0,0.0,0.0,0.0,0.0,0.0,0.0,0.0,0.0,0.0,0.0,0.5996,0.6288,0.6681,0.6746,0.703,0.759,0.7728,0.7864,0.8001,0.8001,0.8001,0.8001,0.8001,0.8001,0.8001,0.8001,0.8001,0.8001,0.794,0.7947,0.7994,0.794,0.7953,0.0,0.0,0.0,0.0,0.0,0.0,0.0,0.0,0.8001,0.8055,0.8391,0.8492,0.8614,0.9219,0.9661,0.9992,1.0231,1.2517,1.5025,1.5947,1.8719,2.1719,2.3476,2.6664,2.8858,2.7576,2.8759,3.015,3.0484,3.0755,3.1062,3.1396,3.1005,3.1059,3.2235,3.2601,3.2832,3.3076,3.3284,3.3414,3.3414,3.3414,3.3414,3.3414,3.3414,3.3414,3.3414,3.3414,3.3414,3.3414,3.3414,3.3414,3.3414,3.3414,3.3393,3.339,3.3395,3.3786,3.452,3.4982,3.521,3.5215,3.5203,3.5191,3.5191,3.5191,3.5191,3.5191,3.5191,3.5191,3.5191,3.5191,3.5191,3.5191,0.0,0.0,0.0,0.0,0.0,0.0,0.0,0.0,0.0,0.0,0.0,0.0,0.0,0.0,0.0,0.0,0.0,0.0,0.5793,0.5924,0.6214,0.6681,0.6702,0.6959,0.7527,0.7672,0.7829,0.8001,0.8001,0.8001,0.8001,0.8001,0.8001,0.8001,0.8001,0.8001,0.8001,0.8001,0.8001,0.8001,0.8001,0.8001,0.0,0.0,0.0,0.0,0.0,0.0,0.0,0.0,0.8001,0.8055,0.8391,0.8492,0.8614,0.9219,0.9659,1.0113,1.091,1.2759,1.4923,1.6767,2.0095,2.3246,2.4503,2.7477,2.9619,2.8385,2.9775,3.1099,3.0725,3.0795,3.1062,3.149,3.1129,3.1219,3.2433,3.2712,3.2942,3.3349,3.3414,3.3414,3.3414,3.3414,3.3414,3.3414,3.3414,3.3414,3.3414,3.3414,3.3414,3.3414,3.3414,3.3414,3.3414,3.3414,3.3386,3.3388,3.3798,3.4398,3.5208,3.521,3.5214,3.5191,3.5191,3.5191,3.5191,3.5191,3.5191,3.5191,3.5191,3.5191,3.5191,3.5191,3.5191,3.5191,0.0,0.0,0.0,0.0,0.0,0.0,0.0,0.0,0.0,0.0,0.0,0.0,0.0,0.0,0.0,0.0,0.0,0.0,0.5793,0.5924,0.6208,0.6681,0.6702,0.6923,0.7382,0.7534,0.7734,0.8001,0.8001,0.8001,0.8001,0.8001,0.8001,0.8001,0.8001,0.8001,0.8001,0.8001,0.8001,0.8001,0.8001,0.8001,0.8001,0.0,0.0,0.0,0.0,0.0,0.0,0.0,0.8001,0.8055,0.8397,0.8492,0.8614,0.9226,1.0019,1.1019,1.2489,1.2841,1.3715,1.7609,2.0301,2.2837,2.6143,2.7119,2.781,2.9553,3.1543,3.2612,3.1413,3.1199,3.1036,3.052,3.0644,3.1209,3.2433,3.2712,3.2942,3.3349,3.3414,3.3414,3.3414,3.3414,3.3414,3.3414,3.3414,3.3414,3.3414,3.3414,3.3414,3.3414,3.3414,3.3414,3.3414,3.3389,3.3403,3.3419,3.462,3.5209,3.5195,3.5215,3.5191,3.5191,3.5191,3.5191,3.5191,3.5191,3.5191,3.5191,3.5191,3.5191,3.5191,3.5191,3.5191,3.5191,0.0,0.0,0.0,0.0,0.0,0.0,0.0,0.0,0.0,0.0,0.0,0.0,0.0,0.0,0.0,0.0,0.0,0.0,0.5786,0.5831,0.6071,0.6539,0.6651,0.6847,0.7181,0.7551,0.7817,0.8001,0.8001,0.8001,0.8001,0.8001,0.8001,0.8001,0.8001,0.8001,0.8001,0.8001,0.8001,0.8001,0.8001,0.8001,0.8001,0.0,0.0,0.0,0.0,0.0,0.0,0.0,0.0,0.0,0.8281,0.843,0.8689,0.9614,1.0279,1.094,1.2043,1.5452,1.8594,1.8258,2.2561,2.676,2.6249,2.7871,2.9517,2.9615,3.1076,3.2064,3.1102,3.0929,3.1129,3.1845,3.145,3.148,3.2568,3.3019,3.3257,3.34,3.3414,3.3414,3.3414,3.3414,3.3414,3.3414,3.3414,3.3414,3.3414,3.3414,3.3414,3.3414,3.3414,3.3414,3.3414,3.3399,3.3399,3.3394,3.4614,3.5195,3.5189,3.519,3.5191,3.5191,3.5191,3.5191,3.5191,3.5191,3.5191,3.5191,3.5191,3.5191,3.5191,3.5191,3.5191,3.5191,0.0,0.0,0.0,0.0,0.0,0.0,0.0,0.0,0.0,0.0,0.1254,0.2287,0.0,0.0,0.0,0.0,0.0,0.0,0.5707,0.5772,0.5985,0.6399,0.6552,0.6776,0.7092,0.7457,0.774,0.7925,0.7974,0.8001,0.8001,0.8001,0.8001,0.8001,0.8001,0.8001,0.8001,0.8001,0.8001,0.8001,0.8001,0.8001,0.8001,0.0,0.0,0.0,0.0,0.0,0.0,0.0,0.0,0.0,0.8234,0.856,0.8981,0.9568,1.0465,1.1727,1.3896,1.7149,2.0311,2.1954,2.5331,2.8149,2.7728,2.9057,3.0306,2.9922,3.1166,3.2102,3.1436,3.1316,3.1543,3.2276,3.1963,3.1904,3.2692,3.3139,3.3414,3.3414,3.3414,3.3414,3.3414,3.3414,3.3414,3.3414,3.3414,3.3414,3.3414,3.3414,3.3414,3.3414,3.3395,3.3398,3.3398,3.3384,3.3623,3.412,3.4852,3.5212,3.5191,3.5191,3.5191,3.5191,3.5191,3.5191,3.5191,3.5191,3.5191,3.5191,3.5191,3.5191,3.5191,3.5191,3.5191,3.5191,0.0,0.0,0.0,0.0,0.0,0.0,0.0,0.0,0.0,0.0447,0.3356,0.4774,0.0,0.0,0.0,0.5399,0.54,0.546,0.5591,0.5711,0.5931,0.6256,0.6419,0.6685,0.7065,0.7272,0.75,0.7761,0.7912,0.7987,0.8001,0.8001,0.8001,0.8001,0.8001,0.8001,0.8001,0.8001,0.8001,0.8001,0.8001,0.8001,0.8001,0.8001,0.0,0.0,0.0,0.0,0.0,0.0,0.0,0.0,0.822,0.8757,0.9315,0.9275,1.0549,1.2839,1.6914,1.815,1.9979,2.7053,2.8189,2.8079,3.007,3.06,3.0614,3.0346,3.1497,3.2433,3.2011,3.2024,3.2104,3.2144,3.225,3.2456,3.2811,3.3165,3.3414,3.3414,3.3414,3.3414,3.3414,3.3414,3.3402,3.339,3.3402,3.3402,3.3405,3.3417,3.3404,3.3405,3.3406,3.3436,3.3551,3.3546,3.412,3.5208,3.5195,3.5199,3.5191,3.5191,3.5191,3.5191,3.5191,3.5191,3.5191,3.5191,3.5191,3.5191,3.5191,3.5191,3.5191,3.5191,3.5191,3.5191,0.0,0.0,0.0,0.0,0.0,0.0,0.0,0.0,0.1018,0.3872,0.4914,0.5249,0.4859,0.5164,0.0,0.5399,0.54,0.546,0.5591,0.5625,0.5766,0.6045,0.6345,0.6637,0.6934,0.7093,0.7267,0.7491,0.7733,0.7898,0.8001,0.8001,0.8001,0.8001,0.8001,0.8001,0.8001,0.8001,0.8001,0.8001,0.8001,0.8001,0.8001,0.8001,0.8001,0.0,0.0,0.0,0.0,0.0,0.0,0.0,0.8054,0.8357,0.8825,0.9476,1.0222,1.1809,1.6263,1.8883,2.1483,2.6171,2.9206,3.1088,3.1355,3.2115,3.2104,2.9771,3.0862,3.1915,3.0939,3.1513,3.2185,3.246,3.2605,3.2836,3.3217,3.3349,3.3414,3.3414,3.3414,3.3414,3.3414,3.3414,3.3407,3.3392,3.3408,3.3399,3.3403,3.3398,3.3397,3.3403,3.3404,3.3855,3.4809,3.4808,3.4931,3.5208,3.52,3.519,3.5191,3.5191,3.5191,3.5191,3.5191,3.5191,3.5191,3.5191,3.5191,3.5191,3.5191,3.5191,3.5191,3.5191,3.5191,3.5191,0.0,0.0,0.0,0.0,0.0,0.0,0.0,0.0,0.1296,0.4923,0.5398,0.5399,0.5396,0.5397,0.0,0.0,0.54,0.5426,0.5499,0.5566,0.5725,0.5989,0.6257,0.6498,0.6709,0.6904,0.7093,0.7258,0.7489,0.7712,0.7905,0.7967,0.8001,0.8001,0.8001,0.8001,0.8001,0.8001,0.8001,0.8001,0.8001,0.8001,0.8001,0.8001,0.8001,0.8001,0.8001,0.0,0.0,0.0,0.0,0.0,0.0,0.0,0.8974,0.9197,1.0152,1.2248,1.743,2.011,2.2631,2.7701,3.0433,3.1915,3.1877,3.2476,3.2583,3.1036,3.1594,3.2062,3.1203,3.1513,3.203,3.2405,3.2585,3.2876,3.3315,3.3398,3.3407,3.3407,3.3398,3.3382,3.3395,3.3403,3.3392,3.3402,3.3935,3.4014,3.3432,3.3944,3.4252,3.4257,3.4248,3.4562,3.5172,3.5209,3.52,3.5213,3.5216,3.5191,3.5191,3.5191,3.5191,3.5191,3.5191,3.5191,3.5191,3.5191,3.5191,3.5191,3.5191,3.5191,3.5191,3.5191,3.5191,3.5191,0.0,0.0,0.0,0.0,0.0,0.0,0.0,0.0,0.0,0.4501,0.5201,0.5401,0.5404,0.5399,0.54,0.0,0.0,0.0,0.54,0.5525,0.5698,0.5924,0.6135,0.6317,0.646,0.6709,0.6911,0.7069,0.7258,0.748,0.774,0.7891,0.798,0.8013,0.8249,0.8212,0.8013,0.8249,0.8212,0.8001,0.8001,0.8001,0.8001,0.8001,0.8001,0.8001,0.8001,0.8001,0.8001,0.8001,0.0,0.0,0.0,0.0,0.9171,0.8811,0.9976,1.2586,1.811,2.1058,2.4005,2.9757,3.145,3.1754,3.1971,3.2316,3.2567,3.246,3.2527,3.2447,3.1965,3.1888,3.2035,3.2335,3.2669,3.302,3.334,3.3575,3.3647,3.3419,3.3588,3.3621,3.3432,3.3582,3.371,3.3704,3.4647,3.4751,3.377,3.4662,3.5206,3.5209,3.5205,3.5197,3.5197,3.5189,3.5191,3.5191,3.5191,3.5191,3.5191,3.5191,3.5191,3.5191,3.5191,3.5191,3.5191,3.5191,3.5191,3.5191,3.5191,3.5191,3.5191,3.5191,3.5191,3.5191,0.0,0.0,0.0,0.0,0.0,0.0,0.0,0.0,0.0,0.0,0.4431,0.5402,0.5399,0.5399,0.54,0.54,0.54,0.54,0.54,0.0,0.0,0.5652,0.5906,0.6132,0.6327,0.6481,0.6675,0.6927,0.7069,0.7247,0.7457,0.7712,0.7891,0.805,0.9213,0.9097,0.8075,0.9238,0.9065,0.8001,0.8001,0.8001,0.8001,0.8001,0.8001,0.8001,0.8001,0.8001,0.8001,0.8001,0.8001,0.0,0.0,0.0,0.8628,0.8689,0.9184,1.0649,1.4849,2.0613,2.6384,3.0224,3.145,3.1701,3.1741,3.2193,3.2447,3.1938,3.2246,3.2567,3.2487,3.2663,3.2807,3.2728,3.3497,3.3905,3.3457,3.4307,3.4577,3.3522,3.4307,3.4551,3.3496,3.4347,3.4972,3.497,3.5105,3.5134,3.4965,3.5105,3.5196,3.5189,3.5203,3.5203,3.5203,3.5204,3.5191,3.5191,3.5191,3.5191,3.5191,3.5191,3.5191,3.5191,3.5191,3.5191,3.5191,3.5191,3.5191,3.5191,3.5191,3.5191,3.5191,3.5191,3.5191,3.5191,0.0,0.0,0.0,0.0,0.0,0.0,0.0,0.0,0.0,0.0,0.0,0.5396,0.5399,0.54,0.54,0.54,0.54,0.54,0.54,0.546,0.5518,0.5598,0.5711,0.5885,0.6125,0.6301,0.6518,0.6793,0.692,0.7456,0.8359,0.8471,0.8702,0.9036,0.9502,0.9498,0.9102,0.8949,0.854,0.8001,0.8001,0.8441,0.9048,0.8287,0.851,0.914,0.8425,0.8167,0.8167,0.8167,0.81,0.8001,0.8001,0.0,0.0,0.0,0.8845,1.0237,1.5376,2.1238,2.6543,2.929,3.0692,3.1463,3.166,3.1925,3.2048,3.1955,3.2142,3.2316,3.2316,3.2483,3.2631,3.2693,3.2788,3.3217,3.4275,3.487,3.5,3.4476,3.4873,3.4974,3.4463,3.4904,3.5192,3.5187,3.5211,3.5186,3.5204,3.5189,3.5215,3.5191,3.5191,3.5191,3.5191,3.5191,3.5191,3.5191,3.5191,3.5191,3.5191,3.5191,3.5191,3.5191,3.5191,3.5191,3.5191,3.5191,3.5191,3.5191,3.5191,3.5191,3.5191,3.5191,3.5191,3.5191,0.0,0.0,0.0,0.0,0.0,0.0,0.0,0.0,0.0,0.0,0.0,0.5397,0.5399,0.0,0.0,0.0,0.54,0.54,0.54,0.54,0.5446,0.5545,0.5586,0.5711,0.5951,0.6135,0.6369,0.6651,0.7073,0.7871,0.9002,0.9322,0.9713,1.0123,1.0041,0.979,0.942,0.9123,0.8614,0.8063,0.882,0.9511,0.9995,0.9054,0.9592,1.0636,0.8958,0.8593,0.8856,0.8477,0.8221,0.8074,0.8074,0.818,0.0,0.0,0.0,1.0769,1.6283,2.1012,2.5128,2.8157,2.9731,3.0719,3.141,3.1527,3.1554,3.1824,3.1944,3.2035,3.2139,3.2288,3.2504,3.276,3.2422,3.2847,3.49,3.5198,3.5214,3.5215,3.5208,3.5193,3.5217,3.52,3.52,3.5204,3.5191,3.5191,3.5191,3.5191,3.5191,3.5191,3.5191,3.5191,3.5191,3.5191,3.5191,3.5191,3.5191,3.5191,3.5191,3.5191,3.5191,3.5191,3.5191,3.5191,3.5191,3.5191,3.5191,3.5191,3.5191,3.5191,3.5191,3.5191,3.5191,3.5191,0.0,0.0,0.0,0.0,0.0,0.0,0.0,0.0,0.0,0.0,0.0,0.5397,0.5399,0.54,0.54,0.54,0.54,0.54,0.54,0.54,0.5407,0.5405,0.5532,0.0,0.5813,0.5944,0.6177,0.6515,0.7733,0.8459,0.8747,0.9965,1.0692,1.1045,1.1298,1.01,0.8082,1.0624,1.0264,0.8251,1.1051,1.145,1.0386,1.0506,1.1447,1.2292,0.949,0.9386,1.0358,0.8962,0.8403,0.8281,0.8281,0.8287,0.8321,0.0,0.0,0.0,1.6324,1.8981,2.1873,2.728,2.8684,2.9157,3.0839,3.1036,3.0915,3.1186,3.149,3.1831,3.2208,3.2572,3.2896,3.3303,3.3345,3.3745,3.5032,3.5187,3.5194,3.5195,3.52,3.519,3.5191,3.5204,3.5204,3.5191,3.5191,3.5191,3.5191,3.5191,3.5191,3.5191,3.5191,3.5191,3.5191,3.5191,3.5191,3.5191,3.5191,3.5191,3.5191,3.5191,3.5191,3.5191,3.5191,3.5191,3.5191,3.5191,3.5191,3.5191,3.5191,3.5191,3.5191,3.5191,3.5191,3.5191,0.0,0.0,0.0,0.0,0.0,0.0,0.0,0.0,0.0,0.0,0.0,0.0,0.0,0.5525,0.5493,0.5414,0.54,0.54,0.54,0.54,0.54,0.54,0.5446,0.5573,0.5793,0.5845,0.639,0.7464,0.7927,0.9037,1.0763,1.1225,1.1591,1.1858,1.1522,1.0972,1.032,1.0566,1.0141,0.9494,1.189,1.3051,1.3374,1.3678,1.4781,1.5941,1.4058,0.0,1.1873,1.2372,1.1025,0.911,0.9029,0.8743,0.864,0.9717,1.0026,1.1048,1.569,1.785,1.9796,2.4125,2.6213,2.7315,2.777,2.8791,2.9571,2.9334,3.0564,3.1751,3.1882,3.2624,3.3215,3.338,3.3399,3.3551,3.3977,3.4038,3.4327,3.5118,3.5207,3.5212,3.5212,3.5202,3.5191,3.5191,3.5191,3.5191,3.5191,3.5191,3.5191,3.5191,3.5191,3.5191,3.5191,3.5191,3.5191,3.5191,3.5191,3.5191,3.5191,3.5191,3.5191,3.5191,3.5191,3.5191,3.5191,3.5191,3.5191,3.5191,3.5191,3.5191,3.5191,3.5191,3.5191,3.5191,0.0,0.0,0.0,0.0,0.0,0.0,0.0,0.0,0.58,0.58,0.0,0.0,0.0,0.0,0.5612,0.5479,0.5465,0.5446,0.5407,0.54,0.54,0.54,0.54,0.5506,0.5725,0.6017,0.6718,0.7834,0.8574,0.9934,1.1839,1.188,1.2045,1.2292,1.2047,1.1549,1.0905,1.1192,1.0852,1.0384,1.3187,1.4365,1.448,1.4955,1.6396,1.7956,1.6386,0.0,1.544,1.6111,1.4393,1.1831,1.1167,1.0196,0.9519,1.0589,1.1083,1.2052,1.56,1.7377,1.9026,2.2336,2.4195,2.5363,2.5877,2.7321,2.846,2.8077,2.9653,3.1221,3.1623,3.2335,3.2966,3.3347,3.3391,3.341,3.341,3.3411,3.3712,3.4497,3.4611,3.4759,3.5176,3.5198,3.5202,3.5202,3.5203,3.5191,3.5191,3.5191,3.5191,3.5191,3.5191,3.5191,3.5191,3.5191,3.5191,3.5191,3.5191,3.5191,3.5191,3.5191,3.5191,3.5191,3.5191,3.5191,3.5191,3.5191,3.5191,3.5191,3.5191,3.5191,3.5191,3.5191,3.5191,3.5191,0.0,0.0,0.0,0.0,0.0,0.0,0.5813,0.582,0.582,0.5827,0.0,0.0,0.0,0.0,0.0,0.5625,0.5605,0.5552,0.5419,0.5414,0.5414,0.5414,0.5414,0.5482,0.5648,0.6487,0.7136,0.7591,0.9747,1.112,1.1754,1.188,1.2086,1.2377,1.2975,1.1822,0.9612,1.2629,1.2599,1.0883,1.5103,1.5484,1.3617,1.4426,1.6323,1.8298,1.635,1.8031,2.1012,1.9964,1.8284,1.634,1.4542,1.261,1.0985,1.1017,1.3079,1.5488,0.0,0.0,0.0,2.2128,2.2813,2.3375,2.5436,2.68,2.7603,2.7584,2.8841,3.0293,3.1446,3.1683,3.2061,3.3154,3.3355,3.3359,3.3408,3.3392,3.3396,3.3396,3.3403,3.387,3.5032,3.5161,3.5154,3.5194,3.5201,3.5204,3.5204,3.5191,3.5191,3.5191,3.5191,3.5191,3.5191,3.5191,3.5191,3.5191,3.5191,3.5191,3.5191,3.5191,3.5191,3.5191,3.5191,3.5191,3.5191,3.5191,3.5191,3.5191,3.5191,3.5191,3.5191,3.5191,3.5191,3.5191,0.0,0.0,0.0,0.0,0.0,0.5994,0.6137,0.6249,0.6338,0.0,0.0,0.0,0.6321,0.6089,0.593,0.5897,0.5797,0.5725,0.5693,0.5686,0.5686,0.5686,0.56,0.5992,0.695,0.7115,0.8076,0.989,1.0506,1.1476,1.2784,1.2821,1.3105,1.3629,1.4231,1.3562,1.2071,1.3561,1.3809,1.3568,1.7508,1.8973,1.9061,2.1514,2.3277,2.4409,2.4097,2.3523,2.3076,2.4107,2.1519,1.7365,1.464,1.3395,1.309,1.3912,1.4019,1.4407,1.687,0.0,0.0,0.0,0.0,0.0,2.3375,2.4634,2.5777,2.694,2.9334,3.1056,3.0492,3.1109,3.181,3.2129,3.2173,3.2468,3.3271,3.3411,3.3403,3.3403,3.3402,3.3515,3.3861,3.3895,3.4261,3.5117,3.5193,3.5211,3.5211,3.5202,3.5191,3.5191,3.5191,3.5191,3.5191,3.5191,3.5191,3.5191,3.5191,3.5191,3.5191,3.5191,3.5191,3.5191,3.5191,3.5191,3.5191,3.5191,3.5191,3.5191,3.5191,3.5191,3.5191,3.5191,3.5191,3.5191,0.6008,0.6008,0.6028,0.608,0.6152,0.6268,0.6443,0.6532,0.661,0.0,0.0,0.0,0.659,0.641,0.6271,0.621,0.6132,0.603,0.5899,0.5885,0.6049,0.641,0.6346,0.6852,0.8015,0.8322,0.9207,1.0713,1.1071,1.1925,1.3203,1.3203,1.352,1.4129,1.4729,1.4569,1.3895,1.4885,1.5352,1.5642,1.8031,1.9382,2.0224,2.2416,2.3934,2.5087,2.6238,2.6327,2.6074,2.7583,2.49,2.0295,1.6387,1.5415,1.5687,1.5633,1.5439,1.5663,1.751,1.7632,1.7599,1.9038,0.0,0.0,2.1703,2.3096,2.4223,2.448,2.7969,3.0716,3.0025,3.0887,3.1698,3.1701,3.1696,3.1944,3.2592,3.2676,3.2866,3.3347,3.3414,3.3393,3.3393,3.3406,3.3695,3.4392,3.4441,3.4669,3.5168,3.5186,3.5189,3.5191,3.5191,3.5191,3.5191,3.5191,3.5191,3.5191,3.5191,3.5191,3.5191,3.5191,3.5191,3.5191,3.5191,3.5191,3.5191,3.5191,3.5191,3.5191,3.5191,3.5191,3.5191,3.5191,3.5191,3.5191,0.0,0.632,0.6368,0.6501,0.6528,0.6573,0.6702,0.6742,0.6756,0.0,0.679,0.6803,0.6803,0.6783,0.6732,0.6617,0.6715,0.6652,0.6326,0.6315,0.6714,0.7582,0.7449,0.7896,0.9044,0.9787,1.0366,1.0791,1.1568,1.2377,1.3203,1.3203,1.3547,1.4172,1.4732,1.5037,1.516,1.6273,1.6961,1.7363,1.7942,1.8711,1.9635,2.0686,2.1943,2.3423,2.554,2.7526,2.9237,2.9695,2.7745,2.4221,1.9244,1.8264,1.8598,1.6917,1.7199,1.8049,1.8009,1.8009,1.8209,1.9079,1.9348,0.0,2.0617,2.2073,2.2906,2.1824,2.6126,2.9867,2.9062,2.9801,3.053,3.0517,3.1195,3.175,3.1867,3.1768,3.212,3.3267,3.3298,3.3197,3.3199,3.3328,3.3407,3.3407,3.339,3.3872,3.4931,3.5128,3.5211,3.5203,3.5204,3.5191,3.5191,3.5191,3.5191,3.5191,3.5191,3.5191,3.5191,3.5191,3.5191,3.5191,3.5191,3.5191,3.5191,3.5191,3.5191,3.5191,3.5191,3.5191,3.5191,3.5191,3.5191,3.5191,0.644,0.646,0.6498,0.6637,0.6654,0.6709,0.6837,0.6947,0.7073,0.7246,0.7357,0.7421,0.7421,0.7324,0.7253,0.723,0.8068,0.8475,0.8187,0.8273,0.8731,0.9597,0.8396,0.8656,1.0694,1.0578,1.0984,1.1973,1.2138,1.2559,1.3203,1.3203,1.3644,1.4445,1.4825,1.5229,1.5713,1.6685,1.7928,1.9406,2.115,2.2944,2.4776,2.6591,2.7737,2.8522,2.9234,2.9771,2.9749,2.7281,2.6932,2.6715,2.2167,2.1146,2.1392,2.0121,1.9116,1.833,1.8062,1.8009,1.8116,1.8557,1.904,0.0,2.1379,2.1651,2.2154,2.4224,2.8231,2.9597,2.3869,2.3012,2.3177,2.3182,2.797,3.2032,3.2935,3.2293,3.2111,3.3263,3.2599,3.2025,3.2036,3.286,3.3387,3.3392,3.3393,3.3492,3.3756,3.4669,3.5195,3.5197,3.5189,3.5191,3.5191,3.5191,3.5191,3.5191,3.5191,3.5191,3.5191,3.5191,3.5191,3.5191,3.5191,3.5191,3.5191,3.5191,3.5191,3.5191,3.5191,3.5191,3.5191,3.5191,3.5191,3.5191,0.6583,0.6597,0.6644,0.6779,0.685,0.6962,0.7122,0.726,0.7382,0.7487,0.755,0.7597,0.7597,0.7541,0.7759,0.839,0.8969,0.9495,0.9963,1.0064,1.0411,1.1117,1.0371,1.0585,1.1966,1.1806,1.1894,1.2305,1.2305,1.2612,1.3203,1.3203,1.3671,1.4514,1.4852,1.5295,1.5915,1.7595,1.9373,2.116,2.1943,2.3402,2.5323,2.7375,2.8524,2.9174,3.0079,3.0564,3.0368,2.7549,2.7315,2.7664,2.4521,2.302,2.2281,0.0,2.0307,1.8879,1.8543,1.8356,1.833,1.861,0.0,0.0,0.0,2.0562,2.0759,2.2491,2.4737,2.533,2.1758,2.1097,2.1107,2.1109,2.4095,2.7649,3.1143,2.9144,2.7526,2.8089,3.0756,3.2552,3.2544,3.3063,3.3395,3.3412,3.3383,3.3406,3.3403,3.3984,3.4572,3.5194,3.5198,3.5202,3.5191,3.5191,3.5191,3.5191,3.5191,3.5191,3.5191,3.5191,3.5191,3.5191,3.5191,3.5191,3.5191,3.5191,3.5191,3.5191,3.5191,3.5191,3.5191,3.5191,3.5191,3.5191,0.6756,0.6732,0.6793,0.6969,0.7087,0.7226,0.7416,0.7554,0.7658,0.7719,0.7998,0.8304,0.8591,0.8612,0.9132,1.0439,1.048,1.0819,1.174,1.1788,1.2037,1.2626,1.2386,1.2494,1.3042,1.2985,1.2801,1.2469,1.2469,1.2749,1.3283,1.3337,1.3804,1.4605,1.4999,1.563,1.6542,1.8718,2.0791,2.2575,2.2649,2.3549,2.501,2.7101,2.8058,2.8473,2.9958,3.0765,3.0799,2.8671,2.8331,2.8398,2.6333,2.4511,2.3069,0.0,0.0,0.0,0.0,0.0,0.0,0.0,0.0,1.9036,0.0,0.0,0.0,1.9965,2.0423,2.0772,2.0776,2.0951,2.1098,2.1103,2.111,2.2756,2.7542,2.4946,2.3058,2.4441,2.9599,3.3083,3.3061,3.3268,3.3392,3.3389,3.3404,3.3387,3.3393,3.3396,3.3838,3.481,3.5088,3.5198,3.5203,3.5204,3.5191,3.5191,3.5191,3.5191,3.5191,3.5191,3.5191,3.5191,3.5191,3.5191,3.5191,3.5191,3.5191,3.5191,3.5191,3.5191,3.5191,3.5191,3.5191,3.5191,0.6931,0.6884,0.6983,0.7283,0.7355,0.7412,0.755,0.7692,0.7882,0.8185,0.9466,1.0848,1.2154,1.224,1.2785,1.4252,1.3988,1.371,1.36,1.3485,1.3802,1.4628,1.3418,1.3114,1.3938,1.366,1.337,1.3096,1.3096,1.326,1.356,1.3868,1.4344,1.497,1.5473,1.6781,1.865,1.9988,2.1593,2.3403,2.5724,2.6774,2.7168,2.9262,2.9428,2.8751,3.0243,3.0782,3.0648,2.9304,2.9757,3.0341,2.7255,2.6152,2.555,2.3451,0.0,0.0,0.0,0.0,0.0,0.0,1.9118,1.8997,1.936,0.0,1.9415,1.9492,0.0,1.9588,1.9591,0.0,0.0,2.1101,2.1091,2.133,2.2006,2.1636,2.3636,2.9942,3.1411,3.1888,3.1878,3.2811,3.3402,3.3386,3.3399,3.34,3.3405,3.3391,3.3462,3.3604,3.4638,3.5195,3.5196,3.5215,3.5191,3.5191,3.5191,3.5191,3.5191,3.5191,3.5191,3.5191,3.5191,3.5191,3.5191,3.5191,3.5191,3.5191,3.5191,3.5191,3.5191,3.5191,3.5191,3.5191,0.7231,0.7183,0.7262,0.748,0.7582,0.7645,0.7712,0.8618,0.9452,0.987,1.1264,1.2704,1.3981,1.3634,1.444,1.7203,1.6622,1.6608,1.7773,1.7151,1.6808,1.7021,1.5432,1.4713,1.5074,1.4447,1.39,1.3437,1.3437,1.3594,1.3897,1.4028,1.4507,1.5295,1.6888,1.829,1.9598,2.2325,2.3714,2.4226,2.6213,2.6821,2.6734,2.846,2.912,2.9334,3.0805,3.154,3.1701,3.0872,3.0515,3.0318,2.9695,2.7575,2.5298,2.5016,0.0,0.0,0.0,0.0,0.0,2.1109,2.1026,2.0706,1.9826,1.9511,1.941,1.9401,0.0,0.0,0.0,0.0,0.0,0.0,1.8385,1.7765,1.9821,2.0687,2.2206,2.5189,2.5555,2.7162,3.1306,3.2132,3.324,3.528,3.4177,3.3388,3.3416,3.3393,3.3415,3.3397,3.3891,3.4481,3.5194,3.5211,3.5201,3.5191,3.5191,3.5191,3.5191,3.5191,3.5191,3.5191,3.5191,3.5191,3.5191,3.5191,3.5191,3.5191,3.5191,3.5191,3.5191,3.5191,3.5191,3.5191,0.8532,0.7973,0.7493,0.7631,0.8039,0.8512,0.8983,1.031,1.1374,1.1705,1.3197,1.4767,1.616,1.5692,1.6701,2.0248,1.9097,1.9021,2.1035,1.9826,1.9172,1.9454,1.7502,1.6448,1.6541,1.5606,1.4739,1.398,1.398,1.4111,1.4344,1.4413,1.479,1.5484,1.7435,1.9077,2.0615,2.3794,2.5405,2.592,2.7328,2.7468,2.6941,2.7997,2.892,2.978,3.1193,3.1754,3.1848,3.1821,3.1223,3.0608,3.1166,2.8845,2.6033,2.6513,0.0,0.0,2.3536,2.3224,2.2749,2.3149,2.2522,2.16,2.0831,1.9992,1.9397,1.9389,1.9398,0.0,0.0,0.0,1.9403,1.9412,0.0,1.6334,1.8594,1.9909,0.0,2.1054,2.1097,2.3134,2.8299,3.0564,3.2068,3.2997,3.1779,3.1698,3.3321,3.3395,3.3406,3.3391,3.3408,3.3825,3.4691,3.5035,3.5198,3.5189,3.519,3.5191,3.5191,3.5191,3.5191,3.5191,3.5191,3.5191,3.5191,3.5191,3.5191,3.5191,3.5191,3.5191,3.5191,3.5191,3.5191,3.5191,1.1315,0.9421,0.7638,0.7768,0.8864,1.0304,1.1994,1.2914,1.3399,1.3419,1.5266,1.736,1.9432,1.9389,2.0524,2.3768,2.1629,2.0753,2.2255,2.0496,2.0122,2.182,1.9358,1.8089,1.8411,1.7235,1.6084,1.4968,1.4968,1.4957,1.497,1.5229,1.5364,1.5431,1.6366,1.8691,2.2034,2.3581,2.6033,2.8961,3.0181,2.9944,2.8908,2.8948,2.9357,3.006,3.1273,3.0955,3.0198,3.1623,3.2064,3.1837,3.0778,2.9936,2.908,2.7684,2.678,2.6192,2.5957,2.4609,2.3616,2.5045,2.2798,2.0704,2.2408,2.1044,1.9391,1.9406,0.0,0.0,1.9394,0.0,0.0,0.0,0.0,0.0,0.0,0.0,0.0,0.0,0.0,2.1189,2.1425,2.7661,2.9383,2.3772,2.4304,2.7367,3.3096,3.3411,3.3404,3.3412,3.3403,3.3435,3.3462,3.4625,3.5208,3.5195,3.5215,3.5191,3.5191,3.5191,3.5191,3.5191,3.5191,3.5191,3.5191,3.5191,3.5191,3.5191,3.5191,3.5191,3.5191,3.5191,3.5191,3.5191,1.1745,1.1082,1.0452,1.0503,1.1069,1.1879,1.297,1.4319,1.5672,1.6913,1.8748,2.0802,2.3054,2.2721,2.3388,2.6018,2.469,2.4164,2.5245,2.3763,2.3207,2.4013,2.1309,1.984,1.9948,1.821,1.6726,1.5526,1.5349,1.5255,1.528,1.5362,1.5486,1.5766,1.7836,2.0281,2.2976,2.4863,2.6754,2.8505,2.8928,2.8585,2.8056,2.9797,3.0345,3.039,3.1554,3.2078,3.2278,3.2585,3.2703,3.2637,3.2235,3.1179,2.9909,2.9013,2.7762,2.6787,2.7309,2.7015,2.6607,2.6881,2.5497,2.3839,2.3081,2.1531,2.0102,1.9527,1.9399,0.0,0.0,0.0,0.0,0.0,0.0,0.0,0.0,0.0,0.0,0.0,0.0,0.0,0.0,0.0,2.4196,2.2985,2.3265,2.4673,2.7429,3.1295,3.3405,3.3385,3.3407,3.3389,3.3397,3.38,3.4401,3.5208,3.5184,3.5214,3.5191,3.5191,3.5191,3.5191,3.5191,3.5191,3.5191,3.5191,3.5191,3.5191,3.5191,3.5191,3.5191,3.5191,3.5191,3.5191,1.3221,1.3374,1.3162,1.2233,1.2888,1.3991,1.5395,1.6901,1.8306,1.9512,2.1338,2.3027,2.432,2.4146,2.4802,2.6941,2.6132,2.6026,2.7215,2.5806,2.5392,2.644,2.3661,2.2231,2.2586,2.0122,1.8277,1.7075,1.6178,1.5658,1.554,1.554,1.57,1.606,1.801,2.0227,2.2669,2.485,2.6406,2.7429,2.763,2.797,2.8559,3.0154,3.0394,3.0123,3.1714,3.2358,3.2519,3.277,3.2917,3.2998,3.2998,3.2222,3.1219,3.0738,2.9686,2.8751,2.904,2.8741,2.8385,2.8612,2.7315,2.5784,2.4967,2.3562,2.1944,2.0347,1.9674,1.9396,0.0,0.0,0.0,0.0,0.0,0.0,0.0,1.76,0.0,0.0,0.0,0.0,0.0,0.0,0.0,2.2205,2.2645,2.3217,2.3959,2.9966,3.34,3.3397,3.3414,3.3393,3.3403,3.3395,3.3775,3.4577,3.4996,3.5212,3.5191,3.5191,3.5191,3.5191,3.5191,3.5191,3.5191,3.5191,3.5191,3.5191,3.5191,3.5191,3.5191,3.5191,3.5191,3.5191,1.5662,1.6126,1.559,1.312,1.4426,1.6635,1.9093,2.0414,2.1176,2.1229,2.2979,2.4022,2.35,2.4022,2.5064,2.6727,2.6099,2.6379,2.8119,2.6593,2.662,2.8881,2.624,2.5098,2.5971,2.2823,2.0575,1.9441,1.7341,1.6165,1.5836,1.5835,1.5993,1.6351,1.6952,1.8679,2.1267,2.3519,2.5112,2.6185,2.6787,2.8377,3.0364,3.0127,2.9664,2.9464,3.1805,3.1888,3.1089,3.226,3.2808,3.3011,3.3024,3.3011,3.2944,3.2701,3.2369,3.1917,3.1062,2.9806,2.8991,3.011,2.8245,2.6493,2.7871,2.6794,2.4699,2.1892,2.0476,1.9688,1.9525,2.4078,0.0,0.0,0.0,0.0,0.0,0.0,0.0,0.0,0.0,0.0,0.0,0.0,0.0,0.0,0.0,0.0,0.0,2.9571,3.3402,3.3412,3.3395,3.3408,3.3408,3.3399,3.3411,3.3405,3.4628,3.5185,3.5204,3.5191,3.5191,3.5191,3.5191,3.5191,3.5191,3.5191,3.5191,3.5191,3.5191,3.5191,3.5191,3.5191,3.5191,3.5191,1.6478,1.69,1.7199,1.6965,1.7937,1.9099,2.0197,2.1165,2.2101,2.2983,2.3928,2.4778,2.5518,2.654,2.7349,2.7804,2.7643,2.7804,2.8444,2.7642,2.7615,2.8649,2.7114,2.6159,2.5998,2.3211,2.1189,1.9998,1.7702,1.6553,1.6461,1.6259,1.6313,1.662,1.7234,1.8973,2.1542,2.2552,2.4903,2.8056,2.949,3.0207,3.052,3.1537,3.166,3.1426,3.2516,3.2837,3.2786,3.3093,3.3118,3.3038,3.3227,3.3146,3.2984,3.2917,3.253,3.2011,3.158,3.1009,3.0515,3.0417,2.916,2.7984,2.8152,2.6794,2.53,2.452,2.449,2.3813,2.1158,2.1903,2.2149,0.0,0.0,0.0,0.0,0.0,0.0,0.0,0.0,0.0,0.0,0.0,0.0,0.0,0.0,0.0,2.2843,2.9575,3.3408,3.3408,3.3406,3.3398,3.3398,3.3395,3.3405,3.341,3.4622,3.5201,3.5211,3.5189,3.5191,3.5191,3.5191,3.5191,3.5191,3.5191,3.5191,3.5191,3.5191,3.5191,3.5191,3.5191,3.5191,3.5191,1.7329,1.7756,1.8357,1.8958,2.0107,2.1149,2.1737,2.293,2.4066,2.4983,2.5819,2.65,2.6921,2.771,2.8253,2.8358,2.8371,2.8492,2.8756,2.8449,2.8529,2.913,2.8417,2.7896,2.7716,2.535,2.334,2.1761,1.9398,1.7782,1.6926,1.6752,1.6832,1.7114,1.7849,1.9159,2.0927,2.2512,2.5064,2.8144,2.9401,3.0163,0.0,3.1805,3.2489,3.2946,3.34,3.3668,3.3776,3.3776,3.3614,3.3425,3.3574,3.332,3.2998,3.2998,3.2677,3.2222,3.1808,3.1567,3.1276,3.0725,3.0154,2.9633,2.9249,2.8537,2.7934,2.7725,2.7811,2.7314,2.531,2.4951,2.3894,0.0,0.0,0.0,0.0,0.0,0.0,0.0,0.0,0.0,0.0,0.0,0.0,0.0,0.0,0.0,2.2082,2.6373,3.0216,3.3312,3.3403,3.2408,3.0353,3.034,3.1361,3.3412,3.4096,3.4677,3.5208,3.5215,3.5191,3.5191,3.5191,3.5191,3.5191,3.5191,3.5191,3.5191,3.5191,3.5191,3.5191,3.5191,3.5191,3.5191,1.8289,1.8663,1.9224,1.9867,2.1323,2.2669,2.347,2.4877,2.6099,2.6714,2.7701,2.819,2.7696,2.8085,2.8473,2.8698,2.8724,2.8823,2.9095,2.9041,2.9242,2.9811,2.9619,2.9606,2.9838,2.7888,2.5892,2.3906,2.1534,1.9386,1.7487,1.7434,1.7581,1.7863,1.8663,1.9505,2.0508,2.334,2.5732,2.769,2.8419,2.9677,3.1142,3.1714,3.277,3.3975,3.4243,3.4323,3.4296,3.4296,3.4148,3.3948,3.3948,3.3546,3.3064,3.304,3.281,3.2433,3.1965,3.1781,3.162,3.1072,3.1102,3.1142,3.0618,3.0835,3.1042,3.066,3.0289,3.0026,2.9919,2.9261,2.7064,0.0,0.0,0.0,0.0,0.0,0.0,0.0,0.0,0.0,0.0,0.0,0.0,0.0,0.0,0.0,0.0,0.0,2.6565,3.2065,3.2241,3.0736,2.7583,2.679,2.8747,3.3412,3.3396,3.4041,3.5205,3.5214,3.519,3.5191,3.5191,3.5191,3.5191,3.5191,3.5191,3.5191,3.5191,3.5191,3.5191,3.5191,3.5191,3.5191,1.9506,1.9573,1.9892,2.0735,2.1721,2.3016,2.4831,2.5203,2.5631,2.666,2.6981,2.7188,2.7342,2.8505,2.9294,2.9347,2.9325,2.9459,2.9717,2.929,2.917,2.9539,2.9535,2.9535,2.9566,2.8024,2.6306,2.4471,2.2382,2.0552,1.9,1.8731,1.8771,1.9107,1.948,2.0938,2.3237,2.5424,2.7541,2.9566,3.0875,3.1915,3.2663,3.2973,3.3574,3.4256,3.4524,3.4497,3.4296,3.4296,3.4256,3.4216,3.4216,3.3828,3.3334,3.3335,3.2799,3.2211,3.2407,3.2235,3.1944,3.162,3.158,3.1527,3.1132,3.0969,3.0885,3.0983,3.0938,3.0677,3.0029,2.5924,2.2313,2.1271,0.0,0.0,0.0,0.0,0.0,0.0,0.0,0.0,0.0,0.0,0.0,0.0,0.0,0.0,0.0,0.0,2.8915,2.6226,2.6136,2.8575,3.3613,2.884,2.8765,3.3398,3.3399,3.4032,3.5206,3.5205,3.52,3.5191,3.5191,3.5191,3.5191,3.5191,3.5191,3.5191,3.5191,3.5191,3.5191,3.5191,3.5191,3.5191,2.0724,2.0844,2.1109,2.1683,2.2628,2.3941,2.5705,2.6379,2.7115,2.8249,2.8409,2.8591,2.9067,2.9628,3.0016,3.0154,3.0167,3.0221,3.0368,2.9967,2.986,3.0154,3.0043,2.9962,2.9962,2.9254,2.7583,2.4863,2.3714,2.194,1.9601,1.9452,1.9452,1.9667,2.1,2.2512,2.4187,2.682,2.8703,3.0038,3.1701,3.2692,3.3267,3.3682,3.4162,3.4589,3.4857,3.4897,3.4776,3.4776,3.467,3.4549,3.4549,3.4028,3.3415,3.3627,3.304,3.2382,3.2554,3.2487,3.2289,3.1995,3.2035,3.2035,3.158,3.1463,3.1406,3.1205,3.1129,3.1064,3.0884,2.8993,2.6587,2.3823,0.0,0.0,0.0,0.0,0.0,0.0,0.0,0.0,0.0,0.0,0.0,0.0,0.0,0.0,0.0,0.0,2.6363,2.4652,2.4594,2.7699,3.4194,3.2073,3.1783,3.3413,3.3395,3.3696,3.4296,3.4916,3.5186,3.5191,3.5191,3.5191,3.5191,3.5191,3.5191,3.5191,3.5191,3.5191,3.5191,3.5191,3.5191,3.5191,2.2479,2.2706,2.2943,2.3189,2.407,2.5237,2.664,2.7716,2.8759,2.986,3.0007,3.0207,3.0728,3.0725,3.0751,3.0979,3.1036,3.1049,3.1005,3.0725,3.0671,3.0875,3.0631,3.0511,3.0564,3.0511,2.892,2.5751,2.5251,2.3363,2.0267,2.0521,2.0857,2.1283,2.3189,2.4524,2.5491,2.8102,2.9691,3.0608,3.2155,3.3078,3.3576,3.4189,3.4563,3.4829,3.5097,3.5191,3.5191,3.5191,3.507,3.4883,3.4883,3.4282,3.3641,3.3828,3.3318,3.2688,3.2688,3.2648,3.2554,3.2332,3.2449,3.2474,3.2005,3.2062,3.2024,3.1413,3.1192,3.1222,3.1618,3.2033,3.0872,2.6493,2.5063,0.0,0.0,0.0,0.0,0.0,0.0,0.0,0.0,0.0,0.0,0.0,0.0,0.0,2.1095,2.2237,2.3305,2.4214,2.5681,2.8694,3.336,3.3355,3.3355,3.3391,3.3399,3.3399,3.3432,3.4654,3.5184,3.5191,3.5191,3.5191,3.5191,3.5191,3.5191,3.5191,3.5191,3.5191,3.5191,3.5191,3.5191,3.5191,2.5369,2.561,2.5717,2.5992,2.6333,2.6967,2.8217,2.8689,2.9263,3.0217,3.0337,3.0457,3.0778,3.1273,3.158,3.1607,3.1848,3.1888,3.162,3.1303,3.1132,3.1159,3.0902,3.0875,3.1119,3.0889,2.9829,2.7918,2.678,2.4721,2.182,2.2903,2.4267,2.5798,2.6279,2.7408,2.9053,2.9571,3.0795,3.2407,3.3066,3.3536,3.3908,3.4522,3.4762,3.4829,3.5097,3.5191,3.5191,3.5191,3.5177,3.5151,3.5151,3.4736,3.4163,3.3961,3.3465,3.2957,3.2957,3.2795,3.2648,3.2864,3.2768,3.2581,3.2527,3.2527,3.238,3.1767,3.1363,3.1226,3.1631,3.0055,2.8254,2.6907,2.531,0.0,0.0,0.0,0.0,0.0,0.0,0.0,0.0,2.0461,0.0,0.0,2.1102,0.0,0.0,2.2235,2.2957,2.3046,2.925,3.283,3.3391,2.9294,2.931,3.3398,3.3398,3.3392,3.3445,3.4647,3.5204,3.5191,3.5191,3.5191,3.5191,3.5191,3.5191,3.5191,3.5191,3.5191,3.5191,3.5191,3.5191,3.5191,2.7081,2.7329,2.7349,2.7456,2.801,2.8644,2.9277,3.0087,3.0808,3.1353,3.1273,3.1286,3.1543,3.1968,3.2246,3.2246,3.2353,3.2342,3.2246,3.1917,3.1757,3.1757,3.1637,3.1557,3.149,3.1406,3.0471,2.8684,2.7321,2.5959,2.4641,2.4396,2.5037,2.6473,2.7816,2.8818,2.9588,3.0952,3.2128,3.3118,3.3295,3.3814,3.4468,3.4696,3.4896,3.5044,3.5151,3.5191,3.5191,3.5191,3.5191,3.5191,3.5191,3.491,3.4589,3.4468,3.388,3.324,3.324,3.3051,3.2904,3.3187,3.316,3.3498,3.5057,3.5292,3.5057,3.4612,3.2882,3.1519,3.1662,3.1311,3.0233,2.8004,2.7621,2.6587,0.0,0.0,0.0,0.0,0.0,0.0,0.0,0.0,0.0,0.0,0.0,0.0,0.0,0.0,2.6561,2.3008,2.6276,2.813,2.8113,3.0496,3.2259,3.3386,3.3393,3.3391,3.3445,3.4645,3.5203,3.5191,3.5191,3.5191,3.5191,3.5191,3.5191,3.5191,3.5191,3.5191,3.5191,3.5191,3.5191,3.5204,2.8995,2.9222,2.9222,2.9222,2.9891,3.0444,3.0541,3.1996,3.3193,3.3474,3.4002,3.3821,3.2404,3.2516,3.2728,3.2728,3.2795,3.2784,3.2728,3.2503,3.2358,3.2358,3.2198,3.2091,3.2075,3.1901,3.1183,2.9918,2.8529,2.7535,2.6914,2.6126,2.6653,2.8291,2.9749,3.0457,3.0631,3.2169,3.3064,3.3402,3.3694,3.4214,3.4802,3.4883,3.5043,3.5191,3.5191,3.5191,3.5191,3.5191,3.5191,3.5191,3.5191,3.5083,3.4896,3.4816,3.4335,3.3788,3.3708,3.4041,3.4499,3.4792,3.5404,3.6383,3.8203,3.8483,3.8214,3.7766,3.5221,3.3044,3.2986,3.2758,3.173,2.9113,2.9375,2.8671,2.5072,2.7288,0.0,0.0,2.5966,2.6887,2.7128,2.4032,0.0,0.0,0.0,0.0,0.0,0.0,0.0,2.6046,2.7107,2.6698,2.4623,3.1655,3.4577,3.3404,3.3407,3.3395,3.3432,3.4652,3.5196,3.5191,3.5191,3.5191,3.5191,3.5191,3.5191,3.5191,3.5191,3.5191,3.5191,3.5191,3.5191,3.5217,3.142,3.1647,3.1647,3.1647,3.2166,3.246,3.2118,3.4502,3.6463,3.6792,3.9045,3.8544,3.3192,3.2824,3.2998,3.2998,3.324,3.328,3.3011,3.2998,3.2998,3.2998,3.2412,3.2372,3.2971,3.2398,3.2091,3.2064,3.0912,2.961,2.8186,2.8417,2.9953,3.2527,3.2541,3.2714,3.2984,3.3267,3.3375,3.3494,3.4415,3.4776,3.4816,3.5084,3.5191,3.5191,3.5191,3.5191,3.5191,3.5191,3.5191,3.5191,3.5191,3.5191,3.5137,3.4869,3.4776,3.4709,3.4389,3.6034,3.7914,3.8269,4.0131,4.1871,4.1774,4.1749,4.1534,4.0814,3.8347,3.6262,3.5995,3.3845,3.1623,3.0118,2.9891,2.8863,2.5899,2.8022,0.0,2.5483,2.6106,2.6807,2.6807,2.5192,0.0,0.0,0.0,0.0,0.0,0.0,0.0,3.3073,3.4427,3.17,2.4666,3.1649,3.4595,3.3393,3.3413,3.3401,3.3445,3.4661,3.5191,3.5191,3.5191,3.5191,3.5191,3.5191,3.5191,3.5191,3.5191,3.5191,3.5191,3.5191,3.5191,3.5217,3.3011,3.3211,3.3078,3.2663,3.2743,3.2837,3.2743,3.5012,3.6831,3.7127,3.9426,3.97,3.6192,3.7472,3.7873,3.6093,3.6022,3.526,3.3405,3.328,3.3187,3.3011,3.2986,3.308,3.3267,3.3093,3.3,3.3,3.1623,3.0608,2.9989,3.0898,3.1791,3.2607,3.2984,3.3187,3.3307,3.3789,3.4148,3.4529,3.668,3.7655,3.8065,3.9983,4.0708,4.0708,4.0708,4.0708,4.0708,4.0708,4.0708,4.0708,4.0708,3.817,3.5177,3.511,3.6225,3.7496,3.7395,3.913,4.105,4.1379,4.1873,4.2769,4.471,4.4792,4.4401,4.4161,4.155,3.9306,3.9218,3.7098,3.4744,3.2871,3.2089,3.0631,2.7442,2.8663,2.9232,2.7422,2.7529,2.8211,2.9406,2.7749,0.0,0.0,0.0,0.0,0.0,0.0,0.0,2.7322,2.7772,2.7275,2.5848,3.2056,3.4588,3.3388,3.3411,3.3827,3.4629,3.5017,3.5191,3.5191,3.5191,3.5191,3.5191,3.5191,3.5191,3.5191,3.5191,3.5191,3.5191,3.5191,3.5191,3.5217,3.6392,3.657,3.6327,3.5968,3.5997,3.607,3.607,3.8262,4.0005,4.0158,4.2475,4.3476,4.1836,4.3119,4.2267,3.7699,3.7306,3.7011,3.6362,3.6337,3.6249,3.6085,3.6118,3.5728,3.488,3.4869,3.4441,3.3587,3.2786,3.2267,3.2131,3.2891,3.3238,3.3252,3.3587,3.4315,3.5297,3.5788,3.6726,3.7987,3.9765,4.0624,4.099,4.2659,4.3293,4.3293,4.3293,4.3293,4.3293,4.3293,4.3293,4.3293,4.3293,4.0964,3.8248,3.8248,3.9326,4.0499,4.0499,4.2347,4.4324,4.4539,4.5188,4.6203,4.7863,4.7811,4.7338,4.7165,4.4703,4.2491,4.2223,4.0048,3.7906,3.6612,3.5171,3.3355,3.0836,3.0899,3.0492,2.8564,2.8839,2.9548,3.0551,2.9481,2.8799,0.0,0.0,0.0,0.0,0.0,2.6558,2.7857,2.8343,2.8723,2.9036,3.2672,3.4156,3.3414,3.3866,3.4469,3.5199,3.5203,3.5191,3.5191,3.5191,3.5191,3.5191,3.5191,3.5191,3.5191,3.5191,3.5191,3.5191,3.5191,3.5191,3.5217,4.0867,4.1068,4.0755,4.0722,4.098,4.1187,4.1187,4.3357,4.5008,4.5008,4.7283,4.8824,4.864,4.864,4.5708,3.8466,3.783,3.8807,4.1043,4.1019,4.1019,4.1187,4.0713,3.9564,3.764,3.7606,3.6566,3.4478,3.4738,3.4874,3.4874,3.4874,3.4874,3.4874,3.4887,3.6317,3.8721,3.9003,4.0597,4.2981,4.3413,4.3571,4.3597,4.3799,4.385,4.385,4.385,4.385,4.385,4.385,4.385,4.385,4.385,4.385,4.3799,4.342,4.3445,4.3571,4.3571,4.5602,4.7681,4.7681,4.9561,5.1304,5.0937,5.0527,5.0121,4.9683,4.7676,4.5792,4.5062,4.2823,4.104,4.0974,3.8677,3.6483,3.5278,3.4025,3.2134,2.9205,3.0034,3.0818,3.0671,3.0658,3.0641,3.0533,0.0,0.0,2.8745,2.8703,3.0169,3.3419,3.4623,3.4607,3.3405,3.3411,3.3437,3.3536,3.4669,3.5212,3.5191,3.5191,3.5191,3.5191,3.5191,3.5191,3.5191,3.5191,3.5191,3.5191,3.5191,3.5191,3.5191,3.5191,3.5191,3.519,4.1447,4.1454,4.133,4.1105,4.1162,4.1187,4.1187,4.3357,4.5008,4.5008,4.7283,4.8158,4.6149,4.5919,4.5173,4.3339,4.3173,4.2601,4.1283,3.9326,3.9099,4.1035,3.919,3.8862,4.0545,4.0585,4.0452,4.0248,4.0402,4.0483,4.0483,4.0483,4.0483,4.0499,4.0743,4.1231,4.1865,4.2129,4.2604,4.3405,4.5568,4.6445,4.6669,4.8688,4.9469,4.9469,4.9469,4.9469,4.9469,4.9469,4.9469,4.9469,4.9469,4.9469,4.8663,4.4531,4.4782,4.6445,4.6445,4.8416,5.0437,5.0437,5.092,5.1382,5.1284,5.0957,5.0625,5.0527,4.9783,4.8974,4.8437,4.6245,4.4329,4.3755,3.9857,3.6483,3.5278,3.2971,3.1383,3.1289,3.1406,3.1995,3.3253,3.3387,3.2919,3.177,3.2648,3.1215,2.6585,3.0911,3.3913,3.475,3.504,3.4613,3.3403,3.3402,3.3858,3.478,3.5065,3.5212,3.5191,3.5191,3.5191,3.5191,3.5191,3.5191,3.5191,3.5191,3.5191,3.5191,3.5191,3.5191,3.5191,3.5191,3.5191,3.5217,4.4975,4.5072,4.4899,4.4737,4.4725,4.4725,4.4725,4.5872,4.6775,4.6775,4.8023,4.8366,4.6938,4.6775,4.6775,4.6775,4.5685,4.4914,4.4725,4.3404,4.3214,4.4625,4.3531,4.3073,4.3465,4.3768,4.3539,4.2699,4.2774,4.2799,4.2799,4.2799,4.2799,4.2815,4.2989,4.3791,4.4983,4.5115,4.5878,4.7142,4.8638,4.9223,4.9371,5.0847,5.1401,5.1401,5.1401,5.1401,5.1401,5.1401,5.1401,5.1401,5.1401,5.1401,5.0822,4.7879,4.8052,4.9223,4.9223,5.0291,5.1401,5.1401,5.1401,5.1401,5.1401,5.1226,5.1011,5.084,5.0625,5.0332,4.9902,4.8699,4.7633,4.7211,4.2993,3.9509,3.8837,3.5426,3.312,3.3483,3.3277,3.3439,3.4216,3.4296,3.3963,3.3173,3.4102,3.3242,2.9828,3.0625,3.2392,3.5113,3.5205,3.4881,3.4216,3.4728,3.5059,3.5192,3.5192,3.5205,3.5192,3.5192,3.5192,3.5205,3.5191,3.5191,3.5191,3.5191,3.5191,3.5191,3.5191,3.5191,3.5191,3.5191,3.5191,3.5191,4.8916,4.9121,4.8913,4.8913,4.8913,4.8913,4.8913,4.8913,4.8913,4.8913,4.8913,4.8913,4.8913,4.8913,4.8913,4.8913,4.6868,4.6523,4.8755,4.8606,4.8559,4.889,4.8928,4.8087,4.6302,4.6949,4.6366,4.4421,4.4471,4.4531,4.4531,4.4531,4.4531,4.4531,4.4531,4.5828,4.8003,4.8003,4.9322,5.1401,5.1401,5.1401,5.1401,5.1401,5.1401,5.1401,5.1401,5.1401,5.1401,5.1401,5.1401,5.1401,5.1401,5.1401,5.1401,5.1401,5.1401,5.1401,5.1401,5.1401,5.1401,5.1401,5.1401,5.1401,5.1401,5.1401,5.1304,5.0952,5.0898,5.0781,5.043,5.0395,5.0159,4.952,4.5969,4.3121,4.262,3.8955,3.6181,3.5684,3.5607,3.5324,3.4629,3.4576,3.4576,3.4576,3.4734,3.4814,3.4771,3.0366,3.0175,3.5286,3.5297,3.5285,3.5457,3.6419,3.6421,3.5457,3.5454,3.5452,3.5452,3.5443,3.5364,3.5204,3.5192,3.5205,3.5205,3.5191,3.5191,3.5205,3.5191,3.5205,3.5205,3.5205,3.5205,3.5205,4.8899,4.8929,4.8913,4.8913,4.8913,4.8913,4.8913,4.8913,4.8913,4.8913,4.8913,4.8913,4.8913,4.8913,4.8913,4.8913,4.8547,4.8459,4.8871,4.7202,4.7027,4.8821,4.7211,4.7104,4.886,4.9736,4.9983,4.9634,4.9997,5.0125,5.0125,5.0125,5.0125,5.0125,5.0125,5.0388,5.0774,5.0774,5.1017,5.1401,5.1401,5.1401,5.1401,5.1401,5.1401,5.1401,5.1401,5.1401,5.1401,5.1401,5.1401,5.1401,5.1401,5.1401,5.1401,5.1401,5.1401,5.1401,5.1401,5.1401,5.1401,5.1401,5.1401,5.1401,5.1401,5.1401,5.1382,5.1323,5.1304,5.1284,5.1226,5.1206,5.0026,4.6406,4.4908,4.3212,4.0376,3.9842,3.922,3.781,3.8517,3.8223,3.6046,3.5832,3.5832,3.5832,3.5845,3.5795,3.5612,3.4794,3.5044,3.6583,3.5705,3.5655,3.6639,3.6802,3.6802,3.6652,3.6626,3.6653,3.6653,3.6639,3.6127,3.5212,3.5199,3.52,3.5214,3.5204,3.519,3.5214,3.5204,3.5204,3.52,3.52,3.52,3.52,4.9258,4.9219,4.9141,4.8952,4.8913,4.8913,4.8913,4.8913,4.8913,4.8913,4.8913,4.8913,4.8913,4.8913,4.8913,4.8913,4.8913,4.8913,4.8913,4.8188,4.82,4.9172,4.8719,4.9105,5.0499,5.0913,5.1109,5.1109,5.1304,5.1401,5.1401,5.1401,5.1401,5.1401,5.1401,5.1401,5.1401,5.1401,5.1401,5.1401,5.1401,5.1401,5.1401,5.1401,5.1401,5.1401,5.1401,5.1401,5.1401,5.1401,5.1401,5.1401,5.1401,5.1401,5.1401,5.1401,5.1401,5.1401,5.1401,5.1401,5.1401,5.1401,5.1401,5.1401,5.1401,5.1401,5.1401,5.1401,5.1401,5.1479,5.1738,5.1777,5.0838,4.7915,4.7266,4.6217,4.3508,4.3164,4.2926,4.2178,4.0936,3.9654,3.8488,3.6989,3.6099,3.6099,3.6099,3.6046,3.5968,3.606,3.6235,3.6465,3.6235,3.6365,3.6878,3.6894,3.6894,3.6905,3.6894,3.6909,3.6909,3.6897,3.6612,3.611,3.6112,3.6126,3.6113,3.6114,3.5737,3.5264,3.5885,3.6127,3.6126,3.6126,3.6126,3.6126,4.9722,4.9664,4.957,4.9265,4.9105,4.9046,4.9046,4.8972,4.8913,4.8913,4.8913,4.8913,4.8913,4.8913,4.8913,4.8913,4.8913,4.8913,4.8913,4.9277,4.9469,4.9352,5.0098,5.064,5.0952,5.1167,5.1265,5.1265,5.1362,5.1401,5.1401,5.1401,5.1401,5.1401,5.1401,5.1401,5.1401,5.1401,5.1401,5.1401,5.1401,5.1401,5.1401,5.1401,5.1401,5.1401,5.1401,5.1401,5.1401,5.1401,5.1401,5.1401,5.1401,5.1401,5.1401,5.1401,5.1401,5.1401,5.1401,5.1401,5.1401,5.1401,5.1401,5.1401,5.1401,5.1401,5.1401,5.1401,5.1401,5.1538,5.1992,5.2114,5.1377,4.9125,4.9281,4.8896,4.6751,4.6597,4.6687,4.6517,4.4104,4.2239,4.1551,3.8944,3.7303,3.7303,3.6667,3.63,3.63,3.6432,3.6456,3.6306,3.6675,3.6905,3.6913,3.6913,3.6913,3.6913,3.6913,3.6913,3.6913,3.6905,3.6894,3.6894,3.6897,3.6897,3.6911,3.6911,3.6368,3.5677,3.6572,3.6884,3.6897,3.6897,3.6897,3.6897,5.016,5.016,5.0141,5.0102,4.9746,4.9449,4.9449,4.9144,4.8913,4.8913,4.8913,4.8913,4.8913,4.8913,4.8913,4.8913,4.8913,4.8913,4.8913,4.9277,4.9313,4.8972,4.9375,4.9605,4.9644,5.0425,5.0859,5.0859,5.1226,5.1401,5.1401,5.1401,5.1401,5.1401,5.1401,5.1401,5.1401,5.1401,5.1401,5.1401,5.1401,5.1401,5.1401,5.1401,5.1401,5.1401,5.1401,5.1401,5.1401,5.1401,5.1401,5.1401,5.1401,5.1401,5.1401,5.1401,5.1401,5.1401,5.1401,5.1401,5.1401,5.1401,5.1401,5.1401,5.1401,5.1401,5.1401,5.1401,5.1401,5.1538,5.1992,5.2114,5.0875,4.715,4.8553,4.9376,4.7176,4.8909,5.0168,4.9558,4.921,4.7984,4.5372,4.2527,4.0828,4.0828,3.8361,3.6833,3.6833,3.6873,3.6873,3.6845,3.6873,3.6901,3.6913,3.6913,3.6913,3.6913,3.6913,3.6913,3.6913,3.6901,3.6901,3.6901,3.6902,3.6902,3.6902,3.6894,3.6838,3.6779,3.6853,3.6907,3.6902,3.6902,3.6902,3.6902,5.0625,5.0566,5.0488,5.0238,5.0039,4.9922,4.9922,4.9551,4.9277,4.9277,4.9046,4.8913,4.8913,4.8913,4.8913,4.8913,4.8913,4.8913,4.8913,4.9046,4.9301,4.9691,4.9844,4.9922,4.9922,5.0254,5.041,5.041,5.084,5.1011,5.103,5.1284,5.1401,5.1401,5.1401,5.1401,5.1401,5.1401,5.1401,5.1401,5.1401,5.1401,5.1401,5.1401,5.1401,5.1401,5.1401,5.1401,5.1401,5.1401,5.1401,5.1401,5.1401,5.1401,5.1401,5.1401,5.1401,5.1401,5.1401,5.1401,5.1401,5.1401,5.1401,5.1401,5.1401,5.1401,5.1401,5.1401,5.1401,5.1538,5.1992,5.2114,5.126,4.8704,5.047,5.1435,4.9263,5.1147,5.2684,5.2417,5.0583,4.8999,4.8185,4.5266,4.356,4.3836,4.1213,3.9568,3.9568,3.7853,3.6913,3.6913,3.6913,3.6913,3.6913,3.6913,3.6913,3.6913,3.6913,3.6913,3.6913,3.6913,3.6913,3.6913,3.6913,3.6913,3.6913,3.6902,3.6902,3.6913,3.6902,3.6902,3.6913,3.6913,3.6913,3.6913,5.103,5.0972,5.0894,5.0625,5.0469,5.0395,5.0395,4.9883,4.9508,4.9508,4.9164,4.8913,4.8913,4.8913,4.8913,4.8913,4.8913,4.8913,4.8913,4.8913,4.9167,4.9769,4.9789,4.9789,4.9789,4.9926,4.998,4.998,5.0391,5.0683,5.082,5.1069,5.1284,5.1401,5.1401,5.1401,5.1401,5.1401,5.1401,5.1401,5.1401,5.1401,5.1401,5.1401,5.1401,5.1401,5.1401,5.1401,5.1401,5.1401,5.1401,5.1401,5.1401,5.1401,5.1401,5.1401,5.1401,5.1401,5.1401,5.1401,5.1401,5.1401,5.1401,5.1401,5.1401,5.1401,5.1401,5.1401,5.1401,5.1499,5.1816,5.1875,5.1484,5.0289,5.1719,5.2466,5.1001,5.2422,5.3588,5.3588,5.1593,5.039,5.0822,4.7885,4.6184,4.6782,4.3221,4.0675,3.9909,3.7977,3.6913,3.6913,3.6913,3.6913,3.6913,3.6913,3.6913,3.6913,3.6913,3.6913,3.6913,3.6913,3.6913,3.6913,3.6913,3.6913,3.6913,3.6913,3.6913,3.6913,3.6913,3.6913,3.6913,3.6913,3.6913,3.6913,5.1401,5.1401,5.1401,5.1401,5.1069,5.0801,5.0801,5.0054,4.9508,4.9508,4.9164,4.8913,4.8913,4.8913,4.8913,4.8913,4.8913,4.8913,4.8913,4.8913,4.8913,4.8913,4.8913,4.8913,4.8913,4.9297,4.9508,4.9508,4.9961,5.0391,5.0801,5.0801,5.1011,5.1401,5.1401,5.1401,5.1401,5.1401,5.1401,5.1401,5.1401,5.1401,5.1401,5.1401,5.1401,5.1401,5.1401,5.1401,5.1401,5.1401,5.1401,5.1401,5.1401,5.1401,5.1401,5.1401,5.1401,5.1401,5.1401,5.1401,5.1401,5.1401,5.1401,5.1401,5.1401,5.1401,5.1401,5.1401,5.1401,5.1401,5.1401,5.1401,5.1401,5.1401,5.1797,5.2114,5.2114,5.2441,5.2715,5.2715,5.2695,5.2871,5.3345,5.043,4.8862,4.9664,4.4076,3.9549,3.7038,3.6913,3.6913,3.6913,3.6913,3.6913,3.6913,3.6913,3.6913,3.6913,3.6913,3.6913,3.6913,3.6913,3.6913,3.6913,3.6913,3.6913,3.6913,3.6913,3.6913,3.6913,3.6913,3.6913,3.6913,3.6913,3.6913,3.6913,5.1401,5.1401,5.1401,5.1401,5.1304,5.1226,5.1226,5.0527,4.998,4.998,4.934,4.8913,4.8913,4.8913,4.8913,4.8913,4.8913,4.8913,4.8913,4.8913,4.8913,4.8913,4.8913,4.8913,4.8913,4.9007,4.9086,4.9086,4.9492,4.9762,4.9898,5.0503,5.0855,5.0972,5.1284,5.1401,5.1401,5.1401,5.1401,5.1401,5.1401,5.1401,5.1401,5.1401,5.1401,5.1401,5.1401,5.1401,5.1401,5.1401,5.1401,5.1401,5.1401,5.1401,5.1401,5.1401,5.1401,5.1401,5.1401,5.1401,5.1401,5.1401,5.1401,5.1401,5.1401,5.1401,5.1401,5.1401,5.1401,5.1401,5.1401,5.1401,5.1401,5.1401,5.1797,5.2114,5.2114,5.2441,5.2715,5.2715,5.2441,5.2441,5.2871,5.176,5.1248,5.1757,4.6493,4.1389,3.7122,3.6726,3.6727,3.6885,3.6913,3.6913,3.6913,3.6913,3.6913,3.6913,3.6913,3.6913,3.6913,3.6913,3.6913,3.6913,3.6913,3.6913,3.6913,3.6913,3.6913,3.6913,3.6913,3.6913,3.6913,3.6913,3.6913,3.6913,5.1401,5.1401,5.1401,5.1401,5.1401,5.1343,5.1187,5.0605,5.0141,4.9941,4.932,4.8913,4.8913,4.8913,4.8913,4.8913,4.8913,4.8913,4.8913,4.8913,4.8913,4.8913,4.8913,4.8913,4.8913,4.8913,4.8913,4.8913,4.9121,4.9332,4.9508,5.0035,5.0488,5.082,5.105,5.1245,5.1401,5.1401,5.1401,5.1401,5.1401,5.1401,5.1401,5.1401,5.1401,5.1401,5.1401,5.1401,5.1401,5.1401,5.1401,5.1401,5.1401,5.1401,5.1401,5.1401,5.1401,5.1401,5.1401,5.1401,5.1401,5.1401,5.1401,5.1401,5.1401,5.1401,5.1401,5.1401,5.1401,5.1401,5.1401,5.1401,5.1401,5.1401,5.166,5.1816,5.1816,5.2026,5.2182,5.2182,5.1973,5.1992,5.2422,5.207,5.153,5.0822,4.7812,4.4273,4.0247,3.8803,3.7755,3.6934,3.6902,3.6913,3.6913,3.6913,3.6913,3.6913,3.6913,3.6913,3.6913,3.6913,3.6913,3.6913,3.6913,3.6913,3.6913,3.6913,3.6913,3.6913,3.6913,3.6913,3.6913,3.6913,3.6913,3.6913,5.1401,5.1401,5.1401,5.1401,5.1401,5.1265,5.0859,5.0473,5.0019,4.9566,4.9164,4.8913,4.8913,4.8913,4.8913,4.8913,4.8913,4.8913,4.8913,4.8913,4.8913,4.8913,4.8913,4.8913,4.8913,4.8913,4.8913,4.8913,4.8913,4.9086,4.9449,4.9488,4.9918,5.0703,5.0723,5.0957,5.1304,5.1343,5.1343,5.1362,5.1382,5.1401,5.1401,5.1401,5.1401,5.1401,5.1401,5.1401,5.1401,5.1401,5.1401,5.1401,5.1401,5.1401,5.1401,5.1401,5.1401,5.1401,5.1401,5.1401,5.1401,5.1401,5.1401,5.1401,5.1401,5.1401,5.1401,5.1401,5.1401,5.1401,5.1401,5.1401,5.1401,5.1401,5.1401,5.1401,5.1401,5.1401,5.1401,5.1401,5.1401,5.1558,5.1992,5.1636,5.0413,4.7975,4.8166,4.7332,4.488,4.2075,3.9533,3.7304,3.703,3.6913,3.6913,3.6913,3.6913,3.6913,3.6913,3.6913,3.6913,3.6913,3.6913,3.6913,3.6913,3.6913,3.6913,3.6913,3.6913,3.6913,3.6913,3.6913,3.6913,3.6913,3.6913,3.6913,5.1401,5.1401,5.1401,5.1401,5.1401,5.1265,5.0859,5.0473,5.0019,4.9566,4.9164,4.8913,4.8913,4.8913,4.8913,4.8913,4.8913,4.8913,4.8913,4.8913,4.8913,4.8913,4.8913,4.8913,4.8913,4.8913,4.8913,4.8913,4.8913,4.8929,4.9027,4.9332,4.9605,4.9801,5.0156,5.0395,5.0469,5.0801,5.0937,5.0976,5.1284,5.1401,5.1401,5.1401,5.1401,5.1401,5.1401,5.1401,5.1401,5.1401,5.1401,5.1401,5.1401,5.1401,5.1401,5.1401,5.1401,5.1401,5.1401,5.1401,5.1401,5.1401,5.1401,5.1401,5.1401,5.1401,5.1401,5.1401,5.1401,5.1401,5.1401,5.1401,5.1401,5.1401,5.1401,5.1401,5.1401,5.1401,5.1401,5.1401,5.1401,5.144,5.1538,5.146,5.0413,4.7975,4.7694,4.6672,4.4448,4.1692,4.0078,3.9804,3.7922,3.6913,3.6913,3.6913,3.6913,3.6913,3.6913,3.6913,3.6913,3.6913,3.6913,3.6913,3.6913,3.6913,3.6913,3.6913,3.6913,3.6913,3.6913,3.6913,3.6913,3.6913,3.6913,3.6913,5.1401,5.1401,5.1401,5.1401,5.1401,5.1206,5.0605,5.0336,4.9965,4.9297,4.9027,4.8913,4.8913,4.8913,4.8913,4.8913,4.8913,4.8913,4.8913,4.8913,4.8913,4.8913,4.8913,4.8913,4.8913,4.8913,4.8913,4.8913,4.8913,4.8913,4.8913,4.9125,4.9316,4.9508,4.9766,5.0098,5.0488,5.0723,5.0918,5.1089,5.1323,5.1401,5.1401,5.1401,5.1401,5.1401,5.1401,5.1401,5.1401,5.1401,5.1401,5.1401,5.1401,5.1401,5.1401,5.1401,5.1401,5.1401,5.1401,5.1401,5.1401,5.1401,5.1401,5.1401,5.1401,5.1401,5.1401,5.1401,5.1401,5.1401,5.1401,5.1401,5.1401,5.1401,5.1401,5.1401,5.1401,5.1401,5.1401,5.1401,5.1401,5.1401,5.1401,5.1401,5.0894,4.9597,4.9404,4.899,4.8298,4.4313,4.2345,4.2926,3.9004,3.6913,3.6913,3.6913,3.6913,3.6913,3.6913,3.6913,3.6913,3.6913,3.6913,3.6913,3.6913,3.6913,3.6913,3.6913,3.6913,3.6913,3.6913,3.6913,3.6913,3.6913,3.6913,3.6913,5.1401,5.1401,5.1401,5.1401,5.1343,5.105,5.0317,5.0141,4.9809,4.9011,4.8913,4.8913,4.8913,4.8913,4.8913,4.8913,4.8913,4.8913,4.8913,4.8913,4.8913,4.8913,4.8913,4.8913,4.8913,4.8913,4.8913,4.8913,4.8913,4.8913,4.8913,4.8913,4.9086,4.9414,4.9414,4.9805,5.0488,5.0625,5.0898,5.1206,5.1343,5.1401,5.1401,5.1401,5.1401,5.1401,5.1401,5.1401,5.1401,5.1401,5.1401,5.1401,5.1401,5.1401,5.1401,5.1401,5.1401,5.1401,5.1401,5.1401,5.1401,5.1401,5.1401,5.1401,5.1401,5.1401,5.1401,5.1401,5.1401,5.1401,5.1401,5.1401,5.1401,5.1401,5.1401,5.1401,5.1401,5.1401,5.1401,5.1401,5.1401,5.1401,5.1401,5.1401,5.1401,5.1401,5.1401,5.1714,5.2436,4.7172,4.4475,4.524,3.9766,3.6845,3.6913,3.6913,3.6913,3.6913,3.6913,3.6913,3.6913,3.6913,3.6913,3.6913,3.6913,3.6913,3.6913,3.6913,3.6913,3.6913,3.6913,3.6913,3.6913,3.6913,3.6913,3.6913,5.1401,5.1401,5.1401,5.1401,5.1109,5.0723,5.0278,4.9863,4.9433,4.8972,4.8913,4.8913,4.8913,4.8913,4.8913,4.8913,4.8913,4.8913,4.8913,4.8913,4.8913,4.8913,4.8913,4.8913,4.8913,4.8913,4.8913,4.8913,4.8913,4.8913,4.8913,4.8913,4.8933,4.8968,4.8968,4.905,4.9226,4.9965,5.0317,5.041,5.1109,5.1401,5.1401,5.1401,5.1401,5.1401,5.1401,5.1401,5.1401,5.1401,5.1401,5.1401,5.1401,5.1401,5.1401,5.1401,5.1401,5.1401,5.1401,5.1401,5.1401,5.1401,5.1401,5.1401,5.1401,5.1401,5.1401,5.1401,5.1401,5.1401,5.1401,5.1401,5.1401,5.1401,5.1401,5.1401,5.1401,5.1401,5.1401,5.1401,5.1401,5.1401,5.1401,5.1401,5.1401,5.1401,5.1401,5.146,5.1577,4.6678,4.4024,4.4367,3.9237,3.6591,3.6913,3.6913,3.6913,3.6913,3.6913,3.6913,3.6913,3.6913,3.6913,3.6913,3.6913,3.6913,3.6913,3.6913,3.6913,3.6913,3.6913,3.6913,3.6913,3.6913,3.6913,3.6913,5.1401,5.1401,5.1401,5.1401,5.1069,5.0664,5.0258,4.9805,4.9375,4.8949,4.8913,4.8913,4.8913,4.8913,4.8913,4.8913,4.8913,4.8913,4.8913,4.8913,4.8913,4.8913,4.8913,4.8913,4.8913,4.8913,4.8913,4.8913,4.8913,4.8913,4.8913,4.8913,4.8913,4.8913,4.8913,4.9027,4.9258,4.9648,5.0098,5.0566,5.0937,5.1206,5.1401,5.1401,5.1401,5.1401,5.1401,5.1401,5.1401,5.1401,5.1401,5.1401,5.1401,5.1401,5.1401,5.1401,5.1401,5.1401,5.1401,5.1401,5.1401,5.1401,5.1401,5.1401,5.1401,5.1401,5.1401,5.1401,5.1401,5.1401,5.1401,5.1401,5.1401,5.1401,5.1401,5.1401,5.1401,5.1401,5.1401,5.1401,5.1401,5.1401,5.1401,5.1401,5.1401,5.1401,5.1401,5.1519,5.1777,4.8389,4.5823,4.4584,4.0986,3.8388,3.6913,3.6913,3.6913,3.6913,3.6913,3.6913,3.6913,3.6913,3.6913,3.6913,3.6913,3.6913,3.6913,3.6913,3.6913,3.6913,3.6913,3.6913,3.6913,3.6913,3.6913,3.6913]}]]